<?xml version='1.0' encoding='UTF-8'?><gpx version="1.1" creator="JPX - https://github.com/jenetics/jpx" xmlns="http://www.topografix.com/GPX/1/1"><trk><trkseg><trkpt lat="50.388544073426736" lon="4.5269273583796945"><ele>164.0</ele><time>2026-04-16T08:19:36.999Z</time></trkpt><trkpt lat="50.388508928316824" lon="4.526798830536055"><ele>164.0</ele><time>2026-04-16T08:19:38.999Z</time></trkpt><trkpt lat="50.38845760547303" lon="4.526661877270368"><ele>164.0</ele><time>2026-04-16T08:19:40.999Z</time></trkpt><trkpt lat="50.38841497686223" lon="4.526517290708341"><ele>164.0</ele><time>2026-04-16T08:19:42.999Z</time></trkpt><trkpt lat="50.38839113490081" lon="4.526384086560807"><ele>164.0</ele><time>2026-04-16T08:19:44.999Z</time></trkpt><trkpt lat="50.38834483718614" lon="4.526310763576421"><ele>164.0</ele><time>2026-04-16T08:19:45.999Z</time></trkpt><trkpt lat="50.38829691330669" lon="4.526166479643497"><ele>164.0</ele><time>2026-04-16T08:19:47.999Z</time></trkpt><trkpt lat="50.388241994210716" lon="4.526040399957155"><ele>164.0</ele><time>2026-04-16T08:19:49.999Z</time></trkpt><trkpt lat="50.38821632351943" lon="4.525866340409767"><ele>164.0</ele><time>2026-04-16T08:19:51.999Z</time></trkpt><trkpt lat="50.38816492878685" lon="4.52570508378296"><ele>164.0</ele><time>2026-04-16T08:19:53.999Z</time></trkpt><trkpt lat="50.388115245464775" lon="4.525550175360963"><ele>164.0</ele><time>2026-04-16T08:19:55.999Z</time></trkpt><trkpt lat="50.388053287933715" lon="4.525384528453901"><ele>163.75</ele><time>2026-04-16T08:19:57.999Z</time></trkpt><trkpt lat="50.38800144982759" lon="4.525223885474435"><ele>163.5</ele><time>2026-04-16T08:19:59.999Z</time></trkpt><trkpt lat="50.38795078302566" lon="4.525063982596573"><ele>163.25</ele><time>2026-04-16T08:20:01.999Z</time></trkpt><trkpt lat="50.3878997977675" lon="4.524903635767994"><ele>163.0</ele><time>2026-04-16T08:20:03.999Z</time></trkpt><trkpt lat="50.38785321277634" lon="4.52473736155669"><ele>163.0</ele><time>2026-04-16T08:20:05.999Z</time></trkpt><trkpt lat="50.38782176994041" lon="4.524582853882032"><ele>163.0</ele><time>2026-04-16T08:20:07.999Z</time></trkpt><trkpt lat="50.38781965825303" lon="4.5244307125138254"><ele>163.0</ele><time>2026-04-16T08:20:09.999Z</time></trkpt><trkpt lat="50.387796168561245" lon="4.524295050819084"><ele>163.0</ele><time>2026-04-16T08:20:11.999Z</time></trkpt><trkpt lat="50.3877843921987" lon="4.524163500885553"><ele>163.0</ele><time>2026-04-16T08:20:13.999Z</time></trkpt><trkpt lat="50.387776419268455" lon="4.524040574931943"><ele>162.66666666666669</ele><time>2026-04-16T08:20:15.999Z</time></trkpt><trkpt lat="50.387780334618775" lon="4.523938215471371"><ele>162.33333333333334</ele><time>2026-04-16T08:20:17.999Z</time></trkpt><trkpt lat="50.387791976996375" lon="4.524078878874615"><ele>162.0</ele><time>2026-04-16T08:20:26.999Z</time></trkpt><trkpt lat="50.38765440945126" lon="4.52349607190952"><ele>162.0</ele><time>2026-04-16T08:20:28.999Z</time></trkpt><trkpt lat="50.38779331650076" lon="4.524291588932906"><ele>162.0</ele><time>2026-04-16T08:20:29.999Z</time></trkpt><trkpt lat="50.38780513819461" lon="4.524458345893893"><ele>162.0</ele><time>2026-04-16T08:20:31.999Z</time></trkpt><trkpt lat="50.38782548735359" lon="4.524646081083351"><ele>162.0</ele><time>2026-04-16T08:20:33.999Z</time></trkpt><trkpt lat="50.38786049670894" lon="4.524829778539512"><ele>162.0</ele><time>2026-04-16T08:20:35.999Z</time></trkpt><trkpt lat="50.38791462889259" lon="4.524997211121547"><ele>162.25</ele><time>2026-04-16T08:20:37.999Z</time></trkpt><trkpt lat="50.38796762642444" lon="4.5251582730408915"><ele>162.5</ele><time>2026-04-16T08:20:39.999Z</time></trkpt><trkpt lat="50.3880240445616" lon="4.525334919885375"><ele>162.75</ele><time>2026-04-16T08:20:41.999Z</time></trkpt><trkpt lat="50.38807745872226" lon="4.525501243422539"><ele>163.0</ele><time>2026-04-16T08:20:43.999Z</time></trkpt><trkpt lat="50.38812650399256" lon="4.525660874105026"><ele>163.2</ele><time>2026-04-16T08:20:45.999Z</time></trkpt><trkpt lat="50.38817703095493" lon="4.525822349509744"><ele>163.4</ele><time>2026-04-16T08:20:47.999Z</time></trkpt><trkpt lat="50.38823197820161" lon="4.525997309222977"><ele>163.6</ele><time>2026-04-16T08:20:49.999Z</time></trkpt><trkpt lat="50.38825692374427" lon="4.526088057519633"><ele>163.79999999999998</ele><time>2026-04-16T08:20:50.999Z</time></trkpt><trkpt lat="50.38830824049537" lon="4.526253016732107"><ele>164.0</ele><time>2026-04-16T08:20:52.999Z</time></trkpt><trkpt lat="50.38834010097928" lon="4.526338329361703"><ele>164.0</ele><time>2026-04-16T08:20:53.999Z</time></trkpt><trkpt lat="50.38839175456416" lon="4.526515474208133"><ele>164.0</ele><time>2026-04-16T08:20:55.999Z</time></trkpt><trkpt lat="50.38842433601736" lon="4.526603886450079"><ele>164.0</ele><time>2026-04-16T08:20:56.999Z</time></trkpt><trkpt lat="50.38845245525482" lon="4.526695442506229"><ele>164.0</ele><time>2026-04-16T08:20:57.999Z</time></trkpt><trkpt lat="50.388505043722375" lon="4.526871812216794"><ele>164.0</ele><time>2026-04-16T08:21:00Z</time></trkpt><trkpt lat="50.388560683956506" lon="4.527039812765967"><ele>163.79999999999998</ele><time>2026-04-16T08:21:02Z</time></trkpt><trkpt lat="50.388610473527926" lon="4.52719578548207"><ele>163.6</ele><time>2026-04-16T08:21:04Z</time></trkpt><trkpt lat="50.38866377523416" lon="4.527330546148507"><ele>163.4</ele><time>2026-04-16T08:21:06Z</time></trkpt><trkpt lat="50.38872069295597" lon="4.527449461545537"><ele>163.2</ele><time>2026-04-16T08:21:08Z</time></trkpt><trkpt lat="50.388724262443816" lon="4.527559669769756"><ele>163.0</ele><time>2026-04-16T08:21:10Z</time></trkpt><trkpt lat="50.388608247895505" lon="4.527503557930531"><ele>163.0</ele><time>2026-04-16T08:21:13Z</time></trkpt><trkpt lat="50.38849476674249" lon="4.527439908703651"><ele>163.0</ele><time>2026-04-16T08:21:15Z</time></trkpt><trkpt lat="50.388433560348176" lon="4.52739552910074"><ele>163.0</ele><time>2026-04-16T08:21:16Z</time></trkpt><trkpt lat="50.38836551841054" lon="4.527348313139241"><ele>163.0</ele><time>2026-04-16T08:21:17Z</time></trkpt><trkpt lat="50.388296147691115" lon="4.5272949546873456"><ele>163.0</ele><time>2026-04-16T08:21:18Z</time></trkpt><trkpt lat="50.38822637392221" lon="4.527247434876704"><ele>163.0</ele><time>2026-04-16T08:21:19Z</time></trkpt><trkpt lat="50.38816361515657" lon="4.527202903410033"><ele>163.0</ele><time>2026-04-16T08:21:20Z</time></trkpt><trkpt lat="50.3881054098723" lon="4.527155237053054"><ele>163.0</ele><time>2026-04-16T08:21:21Z</time></trkpt><trkpt lat="50.38800484995917" lon="4.527043853191879"><ele>163.0</ele><time>2026-04-16T08:21:23Z</time></trkpt><trkpt lat="50.38795163161626" lon="4.526990225554193"><ele>163.0</ele><time>2026-04-16T08:21:24Z</time></trkpt><trkpt lat="50.38788764919817" lon="4.526949086293999"><ele>163.0</ele><time>2026-04-16T08:21:25Z</time></trkpt><trkpt lat="50.38783795416268" lon="4.526866768333993"><ele>163.0</ele><time>2026-04-16T08:21:26Z</time></trkpt><trkpt lat="50.387784991611895" lon="4.526802573807498"><ele>162.71428571428572</ele><time>2026-04-16T08:21:27Z</time></trkpt><trkpt lat="50.38773684438859" lon="4.526732759135764"><ele>162.42857142857142</ele><time>2026-04-16T08:21:28Z</time></trkpt><trkpt lat="50.3876875971466" lon="4.5266601025606805"><ele>162.14285714285714</ele><time>2026-04-16T08:21:29Z</time></trkpt><trkpt lat="50.38764129804158" lon="4.526591795051075"><ele>161.85714285714286</ele><time>2026-04-16T08:21:30Z</time></trkpt><trkpt lat="50.38759380694333" lon="4.526521729015178"><ele>161.57142857142856</ele><time>2026-04-16T08:21:31Z</time></trkpt><trkpt lat="50.38753539303786" lon="4.52647652555762"><ele>161.28571428571428</ele><time>2026-04-16T08:21:32Z</time></trkpt><trkpt lat="50.38748260006769" lon="4.526411877045703"><ele>161.0</ele><time>2026-04-16T08:21:33Z</time></trkpt><trkpt lat="50.387425938761396" lon="4.526345597717246"><ele>161.0</ele><time>2026-04-16T08:21:34Z</time></trkpt><trkpt lat="50.38736896812545" lon="4.526273193021369"><ele>161.0</ele><time>2026-04-16T08:21:35Z</time></trkpt><trkpt lat="50.387309017744016" lon="4.526222231756156"><ele>161.0</ele><time>2026-04-16T08:21:36Z</time></trkpt><trkpt lat="50.38725263674067" lon="4.5261651727551175"><ele>161.0</ele><time>2026-04-16T08:21:37Z</time></trkpt><trkpt lat="50.387140858469955" lon="4.52605675550923"><ele>161.0</ele><time>2026-04-16T08:21:39Z</time></trkpt><trkpt lat="50.38704478345931" lon="4.525954679358543"><ele>160.42857142857142</ele><time>2026-04-16T08:21:41Z</time></trkpt><trkpt lat="50.386993890335745" lon="4.525888722743178"><ele>159.85714285714286</ele><time>2026-04-16T08:21:42Z</time></trkpt><trkpt lat="50.38695220043689" lon="4.525797727779344"><ele>159.28571428571428</ele><time>2026-04-16T08:21:43Z</time></trkpt><trkpt lat="50.386903921063265" lon="4.525718296904994"><ele>158.71428571428572</ele><time>2026-04-16T08:21:44Z</time></trkpt><trkpt lat="50.38685343693568" lon="4.525628273697345"><ele>158.14285714285714</ele><time>2026-04-16T08:21:45Z</time></trkpt><trkpt lat="50.38680241499394" lon="4.525527987431308"><ele>157.57142857142856</ele><time>2026-04-16T08:21:46Z</time></trkpt><trkpt lat="50.38675205230213" lon="4.525425959802669"><ele>157.0</ele><time>2026-04-16T08:21:47Z</time></trkpt><trkpt lat="50.386704020955534" lon="4.525325884484802"><ele>157.0</ele><time>2026-04-16T08:21:47.999Z</time></trkpt><trkpt lat="50.38664503138764" lon="4.525241706691461"><ele>157.0</ele><time>2026-04-16T08:21:48.999Z</time></trkpt><trkpt lat="50.38659967884177" lon="4.525147305182697"><ele>157.0</ele><time>2026-04-16T08:21:49.999Z</time></trkpt><trkpt lat="50.38654562321293" lon="4.52507774261735"><ele>157.0</ele><time>2026-04-16T08:21:50.999Z</time></trkpt><trkpt lat="50.38649467134714" lon="4.525012204874571"><ele>157.0</ele><time>2026-04-16T08:21:51.999Z</time></trkpt><trkpt lat="50.38645386825851" lon="4.524934856349508"><ele>157.0</ele><time>2026-04-16T08:21:52.999Z</time></trkpt><trkpt lat="50.38636499984156" lon="4.524856669607502"><ele>155.79999999999998</ele><time>2026-04-16T08:21:54.999Z</time></trkpt><trkpt lat="50.38630819055679" lon="4.524792921555415"><ele>154.6</ele><time>2026-04-16T08:21:56.999Z</time></trkpt><trkpt lat="50.38625982379921" lon="4.5247243144006655"><ele>153.39999999999998</ele><time>2026-04-16T08:21:59.999Z</time></trkpt><trkpt lat="50.38619784603467" lon="4.5246988180170815"><ele>152.2</ele><time>2026-04-16T08:22:03.999Z</time></trkpt><trkpt lat="50.38613489103264" lon="4.524661311594947"><ele>151.0</ele><time>2026-04-16T08:22:05.999Z</time></trkpt><trkpt lat="50.386001625888895" lon="4.524977963672089"><ele>151.0</ele><time>2026-04-16T08:22:06.999Z</time></trkpt><trkpt lat="50.38591426415774" lon="4.525060809166176"><ele>151.0</ele><time>2026-04-16T08:22:08.999Z</time></trkpt><trkpt lat="50.385826787067174" lon="4.525126395295057"><ele>151.0</ele><time>2026-04-16T08:22:10.999Z</time></trkpt><trkpt lat="50.38572615694322" lon="4.525217560741252"><ele>151.0</ele><time>2026-04-16T08:22:12.999Z</time></trkpt><trkpt lat="50.38562625414581" lon="4.525298651086272"><ele>151.0</ele><time>2026-04-16T08:22:14.999Z</time></trkpt><trkpt lat="50.38554793581326" lon="4.525365430279866"><ele>152.6</ele><time>2026-04-16T08:22:16.999Z</time></trkpt><trkpt lat="50.38546246901731" lon="4.525449993609507"><ele>154.2</ele><time>2026-04-16T08:22:18.999Z</time></trkpt><trkpt lat="50.385367152501615" lon="4.525536683477661"><ele>155.8</ele><time>2026-04-16T08:22:20.999Z</time></trkpt><trkpt lat="50.38527161963008" lon="4.525647186688558"><ele>157.4</ele><time>2026-04-16T08:22:22.999Z</time></trkpt><trkpt lat="50.38518858285578" lon="4.525767694491949"><ele>159.0</ele><time>2026-04-16T08:22:24.999Z</time></trkpt><trkpt lat="50.38509032050439" lon="4.525871115554773"><ele>159.0</ele><time>2026-04-16T08:22:26.999Z</time></trkpt><trkpt lat="50.38503740449225" lon="4.525935025142532"><ele>159.0</ele><time>2026-04-16T08:22:27.999Z</time></trkpt><trkpt lat="50.384937635394635" lon="4.526058762818106"><ele>159.0</ele><time>2026-04-16T08:22:29.999Z</time></trkpt><trkpt lat="50.38487927361115" lon="4.526125357990139"><ele>159.0</ele><time>2026-04-16T08:22:30.999Z</time></trkpt><trkpt lat="50.384815498264786" lon="4.52619451626542"><ele>159.0</ele><time>2026-04-16T08:22:31.999Z</time></trkpt><trkpt lat="50.38475254150823" lon="4.526264475737584"><ele>159.0</ele><time>2026-04-16T08:22:32.999Z</time></trkpt><trkpt lat="50.384696402629345" lon="4.5263200858335875"><ele>159.8</ele><time>2026-04-16T08:22:33.999Z</time></trkpt><trkpt lat="50.38464605006891" lon="4.526383235775998"><ele>160.60000000000002</ele><time>2026-04-16T08:22:34.999Z</time></trkpt><trkpt lat="50.38454347594431" lon="4.5264785430605015"><ele>161.4</ele><time>2026-04-16T08:22:36.999Z</time></trkpt><trkpt lat="50.38444141735378" lon="4.526589016819311"><ele>162.20000000000002</ele><time>2026-04-16T08:22:38.999Z</time></trkpt><trkpt lat="50.38433175571162" lon="4.526682007897549"><ele>163.0</ele><time>2026-04-16T08:22:40.999Z</time></trkpt><trkpt lat="50.38425135773708" lon="4.526791108091984"><ele>163.0</ele><time>2026-04-16T08:22:41.999Z</time></trkpt><trkpt lat="50.38413062254304" lon="4.526873208069676"><ele>163.0</ele><time>2026-04-16T08:22:43.999Z</time></trkpt><trkpt lat="50.38406298594801" lon="4.5269370184096624"><ele>163.0</ele><time>2026-04-16T08:22:44.999Z</time></trkpt><trkpt lat="50.384003127713164" lon="4.526995361632607"><ele>163.0</ele><time>2026-04-16T08:22:45.999Z</time></trkpt><trkpt lat="50.38393937428655" lon="4.527058930168773"><ele>163.0</ele><time>2026-04-16T08:22:46.999Z</time></trkpt><trkpt lat="50.38383842086732" lon="4.527126004022312"><ele>163.14285714285714</ele><time>2026-04-16T08:22:48.999Z</time></trkpt><trkpt lat="50.38378584001182" lon="4.527180679727351"><ele>163.28571428571428</ele><time>2026-04-16T08:22:49.999Z</time></trkpt><trkpt lat="50.3837294462812" lon="4.527235731827616"><ele>163.42857142857142</ele><time>2026-04-16T08:22:50.999Z</time></trkpt><trkpt lat="50.383655182762794" lon="4.5273028394666195"><ele>163.57142857142856</ele><time>2026-04-16T08:22:51.999Z</time></trkpt><trkpt lat="50.38359174916196" lon="4.527363338872322"><ele>163.71428571428572</ele><time>2026-04-16T08:22:52.999Z</time></trkpt><trkpt lat="50.383532902559466" lon="4.527414925242263"><ele>163.85714285714283</ele><time>2026-04-16T08:22:53.999Z</time></trkpt><trkpt lat="50.38347204397707" lon="4.5274514891060145"><ele>164.0</ele><time>2026-04-16T08:22:54.999Z</time></trkpt><trkpt lat="50.38340710290973" lon="4.527503080808339"><ele>164.0</ele><time>2026-04-16T08:22:55.999Z</time></trkpt><trkpt lat="50.38331405409275" lon="4.527594116100707"><ele>164.0</ele><time>2026-04-16T08:22:57.999Z</time></trkpt><trkpt lat="50.3831849236691" lon="4.5277000908404474"><ele>164.0</ele><time>2026-04-16T08:22:59.999Z</time></trkpt><trkpt lat="50.38312679986993" lon="4.5277502636760305"><ele>164.0</ele><time>2026-04-16T08:23:00.999Z</time></trkpt><trkpt lat="50.38305500331204" lon="4.527806406546021"><ele>164.0</ele><time>2026-04-16T08:23:01.999Z</time></trkpt><trkpt lat="50.38299145510622" lon="4.527868030980218"><ele>163.39999999999998</ele><time>2026-04-16T08:23:02.999Z</time></trkpt><trkpt lat="50.382918863835286" lon="4.52793586185735"><ele>162.8</ele><time>2026-04-16T08:23:03.999Z</time></trkpt><trkpt lat="50.38284551874372" lon="4.527998199854401"><ele>162.2</ele><time>2026-04-16T08:23:05Z</time></trkpt><trkpt lat="50.38276946044188" lon="4.528067270416148"><ele>161.60000000000002</ele><time>2026-04-16T08:23:06Z</time></trkpt><trkpt lat="50.38268412117225" lon="4.52814223662593"><ele>161.0</ele><time>2026-04-16T08:23:07Z</time></trkpt><trkpt lat="50.38259953333445" lon="4.528214332739156"><ele>161.0</ele><time>2026-04-16T08:23:08Z</time></trkpt><trkpt lat="50.382506062750394" lon="4.528292795725159"><ele>161.0</ele><time>2026-04-16T08:23:09Z</time></trkpt><trkpt lat="50.38241510025403" lon="4.528368893513013"><ele>161.0</ele><time>2026-04-16T08:23:10Z</time></trkpt><trkpt lat="50.38232144324744" lon="4.528451667837469"><ele>161.0</ele><time>2026-04-16T08:23:11Z</time></trkpt><trkpt lat="50.38222488792053" lon="4.528536172580187"><ele>161.0</ele><time>2026-04-16T08:23:12Z</time></trkpt><trkpt lat="50.38214202826249" lon="4.528614504474448"><ele>160.25</ele><time>2026-04-16T08:23:13Z</time></trkpt><trkpt lat="50.38203385948291" lon="4.528701278520917"><ele>159.5</ele><time>2026-04-16T08:23:14Z</time></trkpt><trkpt lat="50.38193342040433" lon="4.528775896311131"><ele>158.75</ele><time>2026-04-16T08:23:15Z</time></trkpt><trkpt lat="50.38184076783067" lon="4.528872977756941"><ele>158.0</ele><time>2026-04-16T08:23:16Z</time></trkpt><trkpt lat="50.381747492602386" lon="4.528959837702097"><ele>158.0</ele><time>2026-04-16T08:23:17Z</time></trkpt><trkpt lat="50.38165608047762" lon="4.529039320268107"><ele>158.0</ele><time>2026-04-16T08:23:18Z</time></trkpt><trkpt lat="50.381561744928455" lon="4.529121404119958"><ele>158.0</ele><time>2026-04-16T08:23:19Z</time></trkpt><trkpt lat="50.381470978505945" lon="4.529195473873555"><ele>158.0</ele><time>2026-04-16T08:23:20Z</time></trkpt><trkpt lat="50.38137919691794" lon="4.52927027489823"><ele>158.0</ele><time>2026-04-16T08:23:21Z</time></trkpt><trkpt lat="50.38129202482971" lon="4.529339511199196"><ele>158.20000000000002</ele><time>2026-04-16T08:23:22Z</time></trkpt><trkpt lat="50.38120623287967" lon="4.529405016083881"><ele>158.4</ele><time>2026-04-16T08:23:23Z</time></trkpt><trkpt lat="50.38112425912759" lon="4.52946960174944"><ele>158.60000000000002</ele><time>2026-04-16T08:23:24Z</time></trkpt><trkpt lat="50.38104532869285" lon="4.529533827607126"><ele>158.8</ele><time>2026-04-16T08:23:25Z</time></trkpt><trkpt lat="50.380979342205556" lon="4.529576615942053"><ele>159.0</ele><time>2026-04-16T08:23:26Z</time></trkpt><trkpt lat="50.380885440849426" lon="4.529653066492176"><ele>159.0</ele><time>2026-04-16T08:23:28Z</time></trkpt><trkpt lat="50.380800422829736" lon="4.52972569392487"><ele>159.0</ele><time>2026-04-16T08:23:30Z</time></trkpt><trkpt lat="50.380710127555965" lon="4.529795811533704"><ele>159.0</ele><time>2026-04-16T08:23:32Z</time></trkpt><trkpt lat="50.38061677009237" lon="4.5298693685877645"><ele>159.0</ele><time>2026-04-16T08:23:34Z</time></trkpt><trkpt lat="50.38054317558491" lon="4.529926124266975"><ele>159.0</ele><time>2026-04-16T08:23:36Z</time></trkpt><trkpt lat="50.38054149267045" lon="4.5300664678453915"><ele>159.0</ele><time>2026-04-16T08:23:40Z</time></trkpt><trkpt lat="50.38056151713982" lon="4.530203292982062"><ele>159.0</ele><time>2026-04-16T08:23:42Z</time></trkpt><trkpt lat="50.38059767070461" lon="4.530381318851336"><ele>159.0</ele><time>2026-04-16T08:23:44Z</time></trkpt><trkpt lat="50.38061499881403" lon="4.53047735061815"><ele>159.0</ele><time>2026-04-16T08:23:45Z</time></trkpt><trkpt lat="50.38063719658512" lon="4.530571412580185"><ele>159.0</ele><time>2026-04-16T08:23:46Z</time></trkpt><trkpt lat="50.38066479066194" lon="4.530674276653576"><ele>159.0</ele><time>2026-04-16T08:23:47Z</time></trkpt><trkpt lat="50.38069278931705" lon="4.530796083374153"><ele>159.6</ele><time>2026-04-16T08:23:48Z</time></trkpt><trkpt lat="50.380729934337616" lon="4.530920820691803"><ele>160.2</ele><time>2026-04-16T08:23:49Z</time></trkpt><trkpt lat="50.380757555044994" lon="4.531037034682742"><ele>160.79999999999998</ele><time>2026-04-16T08:23:50Z</time></trkpt><trkpt lat="50.38077872511002" lon="4.531139945613279"><ele>161.4</ele><time>2026-04-16T08:23:51Z</time></trkpt><trkpt lat="50.38082584191616" lon="4.5313162331363905"><ele>162.0</ele><time>2026-04-16T08:23:53Z</time></trkpt><trkpt lat="50.3808592176701" lon="4.531480786181008"><ele>162.0</ele><time>2026-04-16T08:23:55Z</time></trkpt><trkpt lat="50.38079609620624" lon="4.531573467412967"><ele>162.0</ele><time>2026-04-16T08:23:57.999Z</time></trkpt><trkpt lat="50.38068504888513" lon="4.531608585836456"><ele>162.0</ele><time>2026-04-16T08:23:59.999Z</time></trkpt><trkpt lat="50.38061720074559" lon="4.531644635645403"><ele>162.0</ele><time>2026-04-16T08:24:00.999Z</time></trkpt><trkpt lat="50.38054640578443" lon="4.53169382963797"><ele>162.0</ele><time>2026-04-16T08:24:01.999Z</time></trkpt><trkpt lat="50.38047517804032" lon="4.531752891115998"><ele>162.0</ele><time>2026-04-16T08:24:02.999Z</time></trkpt><trkpt lat="50.38039514999987" lon="4.53180876028206"><ele>161.66666666666666</ele><time>2026-04-16T08:24:03.999Z</time></trkpt><trkpt lat="50.380320965699646" lon="4.531867807456711"><ele>161.33333333333334</ele><time>2026-04-16T08:24:04.999Z</time></trkpt><trkpt lat="50.38025641189421" lon="4.531912962715758"><ele>161.0</ele><time>2026-04-16T08:24:05.999Z</time></trkpt><trkpt lat="50.38014577616665" lon="4.531986203454726"><ele>160.66666666666669</ele><time>2026-04-16T08:24:07.999Z</time></trkpt><trkpt lat="50.38005187418836" lon="4.532040412334598"><ele>160.33333333333334</ele><time>2026-04-16T08:24:09.999Z</time></trkpt><trkpt lat="50.37999308838492" lon="4.532091489288912"><ele>160.0</ele><time>2026-04-16T08:24:11.999Z</time></trkpt><trkpt lat="50.37994928279005" lon="4.532188791833296"><ele>160.0</ele><time>2026-04-16T08:24:14.999Z</time></trkpt><trkpt lat="50.37998384866282" lon="4.532332129665076"><ele>160.0</ele><time>2026-04-16T08:24:16.999Z</time></trkpt><trkpt lat="50.38001193725913" lon="4.532421130333469"><ele>160.0</ele><time>2026-04-16T08:24:17.999Z</time></trkpt><trkpt lat="50.38004139434407" lon="4.532510804975939"><ele>160.0</ele><time>2026-04-16T08:24:18.999Z</time></trkpt><trkpt lat="50.380065824645605" lon="4.532612625685518"><ele>160.0</ele><time>2026-04-16T08:24:19.999Z</time></trkpt><trkpt lat="50.380101240707916" lon="4.532719264715526"><ele>160.0</ele><time>2026-04-16T08:24:20.999Z</time></trkpt><trkpt lat="50.38013849099381" lon="4.532832365411642"><ele>160.33333333333334</ele><time>2026-04-16T08:24:21.999Z</time></trkpt><trkpt lat="50.38017854835465" lon="4.532951100637991"><ele>160.66666666666669</ele><time>2026-04-16T08:24:22.999Z</time></trkpt><trkpt lat="50.380221821220594" lon="4.533073231934773"><ele>161.0</ele><time>2026-04-16T08:24:23.999Z</time></trkpt><trkpt lat="50.38025718377882" lon="4.533193843631016"><ele>161.33333333333334</ele><time>2026-04-16T08:24:24.999Z</time></trkpt><trkpt lat="50.38029686350248" lon="4.533318119922557"><ele>161.66666666666666</ele><time>2026-04-16T08:24:25.999Z</time></trkpt><trkpt lat="50.38032856989811" lon="4.533428315241057"><ele>162.0</ele><time>2026-04-16T08:24:26.999Z</time></trkpt><trkpt lat="50.38038176820145" lon="4.533608702555314"><ele>162.0</ele><time>2026-04-16T08:24:28.999Z</time></trkpt><trkpt lat="50.38041127173357" lon="4.533768879816239"><ele>162.0</ele><time>2026-04-16T08:24:30.999Z</time></trkpt><trkpt lat="50.38040446871661" lon="4.5339253302698515"><ele>162.0</ele><time>2026-04-16T08:24:32.999Z</time></trkpt><trkpt lat="50.3803997726203" lon="4.534036767098998"><ele>162.0</ele><time>2026-04-16T08:24:33.999Z</time></trkpt><trkpt lat="50.38036651373949" lon="4.534245354493598"><ele>162.0</ele><time>2026-04-16T08:24:35.999Z</time></trkpt><trkpt lat="50.38034219107704" lon="4.534357517127277"><ele>162.0</ele><time>2026-04-16T08:24:36.999Z</time></trkpt><trkpt lat="50.380324608284155" lon="4.534463326345586"><ele>162.0</ele><time>2026-04-16T08:24:37.999Z</time></trkpt><trkpt lat="50.38028951881925" lon="4.534642127814705"><ele>162.0</ele><time>2026-04-16T08:24:39.999Z</time></trkpt><trkpt lat="50.38027837919928" lon="4.534750719520294"><ele>162.0</ele><time>2026-04-16T08:24:40.999Z</time></trkpt><trkpt lat="50.3802996994094" lon="4.534918455547916"><ele>162.0</ele><time>2026-04-16T08:24:42.999Z</time></trkpt><trkpt lat="50.38035500822123" lon="4.535070463574522"><ele>161.83333333333334</ele><time>2026-04-16T08:24:44.999Z</time></trkpt><trkpt lat="50.38039331589466" lon="4.5352091344121765"><ele>161.66666666666666</ele><time>2026-04-16T08:24:46.999Z</time></trkpt><trkpt lat="50.38043196623234" lon="4.53534799463332"><ele>161.5</ele><time>2026-04-16T08:24:49.999Z</time></trkpt><trkpt lat="50.38047533704572" lon="4.535454221688527"><ele>161.33333333333331</ele><time>2026-04-16T08:24:51.999Z</time></trkpt><trkpt lat="50.380501119625805" lon="4.535545272451601"><ele>161.16666666666666</ele><time>2026-04-16T08:24:53.999Z</time></trkpt><trkpt lat="50.380542038829724" lon="4.535633354212495"><ele>161.0</ele><time>2026-04-16T08:25:15Z</time></trkpt><trkpt lat="50.380571444557965" lon="4.535730257215639"><ele>161.16666666666666</ele><time>2026-04-16T08:25:17Z</time></trkpt><trkpt lat="50.38059177277415" lon="4.535875082588171"><ele>161.33333333333331</ele><time>2026-04-16T08:25:19Z</time></trkpt><trkpt lat="50.3805899739205" lon="4.536015775476769"><ele>161.5</ele><time>2026-04-16T08:25:21Z</time></trkpt><trkpt lat="50.38057464060875" lon="4.5361669612022135"><ele>161.66666666666666</ele><time>2026-04-16T08:25:23Z</time></trkpt><trkpt lat="50.38055088853058" lon="4.536267976886706"><ele>161.83333333333334</ele><time>2026-04-16T08:25:25Z</time></trkpt><trkpt lat="50.38053062932495" lon="4.5364031765071795"><ele>162.0</ele><time>2026-04-16T08:25:27Z</time></trkpt><trkpt lat="50.3805052607879" lon="4.536552098146558"><ele>162.0</ele><time>2026-04-16T08:25:29Z</time></trkpt><trkpt lat="50.38050803834048" lon="4.536673263551614"><ele>162.0</ele><time>2026-04-16T08:25:31Z</time></trkpt><trkpt lat="50.38053660659708" lon="4.536791179663829"><ele>162.0</ele><time>2026-04-16T08:25:33Z</time></trkpt><trkpt lat="50.38057509964446" lon="4.536926653078213"><ele>162.0</ele><time>2026-04-16T08:25:35Z</time></trkpt><trkpt lat="50.38060932946685" lon="4.537051095053495"><ele>162.0</ele><time>2026-04-16T08:25:37Z</time></trkpt><trkpt lat="50.38064824050487" lon="4.537161082434224"><ele>162.0</ele><time>2026-04-16T08:25:39Z</time></trkpt><trkpt lat="50.380663379843114" lon="4.53726600282971"><ele>161.6</ele><time>2026-04-16T08:25:43Z</time></trkpt><trkpt lat="50.380620758781035" lon="4.537371880505245"><ele>161.2</ele><time>2026-04-16T08:25:46Z</time></trkpt><trkpt lat="50.38054928097661" lon="4.537405427619856"><ele>160.8</ele><time>2026-04-16T08:25:47Z</time></trkpt><trkpt lat="50.38047496729633" lon="4.537441829552255"><ele>160.4</ele><time>2026-04-16T08:25:48Z</time></trkpt><trkpt lat="50.38032607262146" lon="4.5375439310079075"><ele>160.0</ele><time>2026-04-16T08:25:50Z</time></trkpt><trkpt lat="50.38023249262664" lon="4.537608399882384"><ele>160.0</ele><time>2026-04-16T08:25:51Z</time></trkpt><trkpt lat="50.38013100299328" lon="4.537674201792152"><ele>160.0</ele><time>2026-04-16T08:25:52Z</time></trkpt><trkpt lat="50.38001932769992" lon="4.537749963494305"><ele>160.0</ele><time>2026-04-16T08:25:53Z</time></trkpt><trkpt lat="50.379899308033394" lon="4.537841221838197"><ele>160.0</ele><time>2026-04-16T08:25:54Z</time></trkpt><trkpt lat="50.379777023532654" lon="4.537937978926933"><ele>157.66666666666669</ele><time>2026-04-16T08:25:55Z</time></trkpt><trkpt lat="50.37963564579288" lon="4.538025980298675"><ele>155.33333333333334</ele><time>2026-04-16T08:25:56Z</time></trkpt><trkpt lat="50.37949647470915" lon="4.538125426810489"><ele>153.0</ele><time>2026-04-16T08:25:57Z</time></trkpt><trkpt lat="50.3793637548682" lon="4.538228786189223"><ele>153.0</ele><time>2026-04-16T08:25:58Z</time></trkpt><trkpt lat="50.37922834372341" lon="4.538319477969231"><ele>153.0</ele><time>2026-04-16T08:25:59Z</time></trkpt><trkpt lat="50.37908734769081" lon="4.538410826436345"><ele>153.0</ele><time>2026-04-16T08:26:00Z</time></trkpt><trkpt lat="50.37894230730477" lon="4.538489770638762"><ele>152.33333333333334</ele><time>2026-04-16T08:26:01Z</time></trkpt><trkpt lat="50.37879612130964" lon="4.538553675773171"><ele>151.66666666666669</ele><time>2026-04-16T08:26:02Z</time></trkpt><trkpt lat="50.37864418265801" lon="4.538634401183199"><ele>151.0</ele><time>2026-04-16T08:26:03Z</time></trkpt><trkpt lat="50.378498903555034" lon="4.538698387387353"><ele>151.5</ele><time>2026-04-16T08:26:04Z</time></trkpt><trkpt lat="50.37835299101534" lon="4.538764090805717"><ele>152.0</ele><time>2026-04-16T08:26:05Z</time></trkpt><trkpt lat="50.3782093675701" lon="4.538813693775531"><ele>152.5</ele><time>2026-04-16T08:26:06Z</time></trkpt><trkpt lat="50.378063569101585" lon="4.538862772463013"><ele>153.0</ele><time>2026-04-16T08:26:07Z</time></trkpt><trkpt lat="50.3779206531463" lon="4.538907254734844"><ele>153.75</ele><time>2026-04-16T08:26:08Z</time></trkpt><trkpt lat="50.37777787826858" lon="4.538946356512111"><ele>154.5</ele><time>2026-04-16T08:26:09Z</time></trkpt><trkpt lat="50.37763911549518" lon="4.538979824960675"><ele>155.25</ele><time>2026-04-16T08:26:10Z</time></trkpt><trkpt lat="50.377498983661155" lon="4.539016390643115"><ele>156.0</ele><time>2026-04-16T08:26:11Z</time></trkpt><trkpt lat="50.37735734169068" lon="4.539054468761083"><ele>156.0</ele><time>2026-04-16T08:26:12Z</time></trkpt><trkpt lat="50.377215110977424" lon="4.539093733080509"><ele>156.0</ele><time>2026-04-16T08:26:13Z</time></trkpt><trkpt lat="50.37707343124191" lon="4.539136864203696"><ele>156.0</ele><time>2026-04-16T08:26:14Z</time></trkpt><trkpt lat="50.376934928510416" lon="4.539186802527978"><ele>156.0</ele><time>2026-04-16T08:26:15Z</time></trkpt><trkpt lat="50.37678884791575" lon="4.539224340194887"><ele>157.0</ele><time>2026-04-16T08:26:16Z</time></trkpt><trkpt lat="50.37664507662226" lon="4.539282589233225"><ele>158.0</ele><time>2026-04-16T08:26:17Z</time></trkpt><trkpt lat="50.37649698757678" lon="4.53934829009513"><ele>159.0</ele><time>2026-04-16T08:26:18Z</time></trkpt><trkpt lat="50.376351145439244" lon="4.539418375077192"><ele>161.33333333333334</ele><time>2026-04-16T08:26:19Z</time></trkpt><trkpt lat="50.3762026598741" lon="4.5394967453158825"><ele>163.66666666666669</ele><time>2026-04-16T08:26:20Z</time></trkpt><trkpt lat="50.37605575220609" lon="4.5395671121559324"><ele>166.0</ele><time>2026-04-16T08:26:21Z</time></trkpt><trkpt lat="50.375910808567404" lon="4.539648430408415"><ele>166.66666666666669</ele><time>2026-04-16T08:26:22Z</time></trkpt><trkpt lat="50.37577065518296" lon="4.539741904250521"><ele>167.33333333333334</ele><time>2026-04-16T08:26:23Z</time></trkpt><trkpt lat="50.37563067916752" lon="4.539843067522861"><ele>168.0</ele><time>2026-04-16T08:26:24Z</time></trkpt><trkpt lat="50.37548907851664" lon="4.539945804697458"><ele>169.33333333333334</ele><time>2026-04-16T08:26:25Z</time></trkpt><trkpt lat="50.37535141110305" lon="4.540060756702444"><ele>170.66666666666669</ele><time>2026-04-16T08:26:26Z</time></trkpt><trkpt lat="50.37521278114081" lon="4.540177365126099"><ele>172.0</ele><time>2026-04-16T08:26:27Z</time></trkpt><trkpt lat="50.37507518244563" lon="4.540294538795251"><ele>172.5</ele><time>2026-04-16T08:26:27.999Z</time></trkpt><trkpt lat="50.37494858842426" lon="4.540402561280896"><ele>173.0</ele><time>2026-04-16T08:26:28.999Z</time></trkpt><trkpt lat="50.37483549535366" lon="4.540515754018249"><ele>173.5</ele><time>2026-04-16T08:26:29.999Z</time></trkpt><trkpt lat="50.374721893344514" lon="4.540633275912052"><ele>174.0</ele><time>2026-04-16T08:26:30.999Z</time></trkpt><trkpt lat="50.37460576052461" lon="4.540745950000613"><ele>175.79999999999998</ele><time>2026-04-16T08:26:31.999Z</time></trkpt><trkpt lat="50.37449014139338" lon="4.540858810142703"><ele>177.6</ele><time>2026-04-16T08:26:32.999Z</time></trkpt><trkpt lat="50.3743769156195" lon="4.540958940479717"><ele>179.4</ele><time>2026-04-16T08:26:33.999Z</time></trkpt><trkpt lat="50.37428567911231" lon="4.541025708329035"><ele>181.2</ele><time>2026-04-16T08:26:34.999Z</time></trkpt><trkpt lat="50.374213876520265" lon="4.541058636439394"><ele>183.0</ele><time>2026-04-16T08:26:35.999Z</time></trkpt><trkpt lat="50.37410583297491" lon="4.54114883685343"><ele>183.75</ele><time>2026-04-16T08:26:37.999Z</time></trkpt><trkpt lat="50.3739923581021" lon="4.541350395040015"><ele>184.5</ele><time>2026-04-16T08:26:38.999Z</time></trkpt><trkpt lat="50.37389224330353" lon="4.541434626281887"><ele>185.25</ele><time>2026-04-16T08:26:40.999Z</time></trkpt><trkpt lat="50.37390654633045" lon="4.541610912398602"><ele>186.0</ele><time>2026-04-16T08:26:41.999Z</time></trkpt><trkpt lat="50.37387468160047" lon="4.5416965853671565"><ele>187.16666666666666</ele><time>2026-04-16T08:26:42.999Z</time></trkpt><trkpt lat="50.37384389087719" lon="4.541857400914515"><ele>188.33333333333331</ele><time>2026-04-16T08:26:44.999Z</time></trkpt><trkpt lat="50.37381250303329" lon="4.541973682899846"><ele>189.5</ele><time>2026-04-16T08:26:46.999Z</time></trkpt><trkpt lat="50.37377681368979" lon="4.542098579570846"><ele>190.66666666666666</ele><time>2026-04-16T08:26:49.999Z</time></trkpt><trkpt lat="50.37375608487132" lon="4.5422105994026705"><ele>191.83333333333331</ele><time>2026-04-16T08:27:08.999Z</time></trkpt><trkpt lat="50.373737473403594" lon="4.54231117695441"><ele>193.0</ele><time>2026-04-16T08:27:11.999Z</time></trkpt><trkpt lat="50.37371562164099" lon="4.54242926524487"><ele>193.0</ele><time>2026-04-16T08:27:13.999Z</time></trkpt><trkpt lat="50.373807229654155" lon="4.542546804192028"><ele>193.0</ele><time>2026-04-16T08:27:14.999Z</time></trkpt><trkpt lat="50.373837122834104" lon="4.542733204543796"><ele>193.0</ele><time>2026-04-16T08:27:17Z</time></trkpt><trkpt lat="50.373841319632774" lon="4.542839563518904"><ele>193.0</ele><time>2026-04-16T08:27:18Z</time></trkpt><trkpt lat="50.3738563064522" lon="4.5429500492535215"><ele>193.0</ele><time>2026-04-16T08:27:19Z</time></trkpt><trkpt lat="50.373872189885105" lon="4.543074186406081"><ele>192.16666666666666</ele><time>2026-04-16T08:27:20Z</time></trkpt><trkpt lat="50.37389011854737" lon="4.543189239564802"><ele>191.33333333333331</ele><time>2026-04-16T08:27:21Z</time></trkpt><trkpt lat="50.373914547991674" lon="4.543299143345168"><ele>190.5</ele><time>2026-04-16T08:27:22Z</time></trkpt><trkpt lat="50.373932990442505" lon="4.543407558113669"><ele>189.66666666666666</ele><time>2026-04-16T08:27:23Z</time></trkpt><trkpt lat="50.37394132652459" lon="4.543505676844022"><ele>188.83333333333331</ele><time>2026-04-16T08:27:24Z</time></trkpt><trkpt lat="50.37397915336871" lon="4.543694539557125"><ele>188.0</ele><time>2026-04-16T08:27:26Z</time></trkpt><trkpt lat="50.37400690324068" lon="4.543793547853452"><ele>187.83333333333331</ele><time>2026-04-16T08:27:27Z</time></trkpt><trkpt lat="50.37403570875066" lon="4.543898174983276"><ele>187.66666666666666</ele><time>2026-04-16T08:27:28Z</time></trkpt><trkpt lat="50.374067680548215" lon="4.543994762647159"><ele>187.5</ele><time>2026-04-16T08:27:29Z</time></trkpt><trkpt lat="50.3741106408248" lon="4.544108973488708"><ele>187.33333333333334</ele><time>2026-04-16T08:27:30Z</time></trkpt><trkpt lat="50.37415856032247" lon="4.544238865254627"><ele>187.16666666666669</ele><time>2026-04-16T08:27:31Z</time></trkpt><trkpt lat="50.37420630870593" lon="4.544370261634833"><ele>187.0</ele><time>2026-04-16T08:27:32Z</time></trkpt><trkpt lat="50.37426047279994" lon="4.544511332002508"><ele>187.0</ele><time>2026-04-16T08:27:33Z</time></trkpt><trkpt lat="50.374300253454" lon="4.544621196124089"><ele>187.0</ele><time>2026-04-16T08:27:34Z</time></trkpt><trkpt lat="50.37436182518575" lon="4.544810931116609"><ele>187.0</ele><time>2026-04-16T08:27:36Z</time></trkpt><trkpt lat="50.37440975981022" lon="4.544920709582558"><ele>187.0</ele><time>2026-04-16T08:27:37Z</time></trkpt><trkpt lat="50.37445688731649" lon="4.545044729802906"><ele>187.0</ele><time>2026-04-16T08:27:38Z</time></trkpt><trkpt lat="50.37449503376141" lon="4.545146037823582"><ele>187.0</ele><time>2026-04-16T08:27:39Z</time></trkpt><trkpt lat="50.37453354078617" lon="4.545254430344009"><ele>187.0</ele><time>2026-04-16T08:27:40Z</time></trkpt><trkpt lat="50.374564339820324" lon="4.545360192119775"><ele>187.0</ele><time>2026-04-16T08:27:41Z</time></trkpt><trkpt lat="50.37460200991884" lon="4.545454980209726"><ele>187.0</ele><time>2026-04-16T08:27:42Z</time></trkpt><trkpt lat="50.374661559317104" lon="4.54560117328008"><ele>187.0</ele><time>2026-04-16T08:27:44Z</time></trkpt><trkpt lat="50.374727164503405" lon="4.5456456107399665"><ele>187.0</ele><time>2026-04-16T08:27:45Z</time></trkpt><trkpt lat="50.374746201094986" lon="4.5458272689396395"><ele>186.16666666666669</ele><time>2026-04-16T08:27:46Z</time></trkpt><trkpt lat="50.37478168825808" lon="4.545939685488441"><ele>185.33333333333334</ele><time>2026-04-16T08:27:47Z</time></trkpt><trkpt lat="50.37481412081767" lon="4.546027114707093"><ele>184.5</ele><time>2026-04-16T08:27:48Z</time></trkpt><trkpt lat="50.37486334544376" lon="4.546163834437324"><ele>183.66666666666666</ele><time>2026-04-16T08:27:50Z</time></trkpt><trkpt lat="50.37491574922221" lon="4.546272483189607"><ele>182.83333333333331</ele><time>2026-04-16T08:27:52Z</time></trkpt><trkpt lat="50.37496190833341" lon="4.546418933779399"><ele>182.0</ele><time>2026-04-16T08:27:54Z</time></trkpt><trkpt lat="50.37501160878213" lon="4.5465732029220325"><ele>182.0</ele><time>2026-04-16T08:27:56Z</time></trkpt><trkpt lat="50.375044036572284" lon="4.546666295696628"><ele>182.0</ele><time>2026-04-16T08:27:57Z</time></trkpt><trkpt lat="50.37508961823629" lon="4.546826881713435"><ele>182.0</ele><time>2026-04-16T08:27:59Z</time></trkpt><trkpt lat="50.37512808344747" lon="4.546996752920833"><ele>182.0</ele><time>2026-04-16T08:28:01Z</time></trkpt><trkpt lat="50.375176251170814" lon="4.54712088670872"><ele>182.0</ele><time>2026-04-16T08:28:03Z</time></trkpt><trkpt lat="50.37522300113061" lon="4.547273922037613"><ele>182.83333333333331</ele><time>2026-04-16T08:28:05Z</time></trkpt><trkpt lat="50.37524512806549" lon="4.547446150073058"><ele>183.66666666666666</ele><time>2026-04-16T08:28:07Z</time></trkpt><trkpt lat="50.375255321896766" lon="4.547617484781635"><ele>184.5</ele><time>2026-04-16T08:28:09Z</time></trkpt><trkpt lat="50.37525544097877" lon="4.547717356965475"><ele>185.33333333333334</ele><time>2026-04-16T08:28:10Z</time></trkpt><trkpt lat="50.37526062769354" lon="4.547822280430889"><ele>186.16666666666669</ele><time>2026-04-16T08:28:11Z</time></trkpt><trkpt lat="50.37527597560363" lon="4.547944066830732"><ele>187.0</ele><time>2026-04-16T08:28:12Z</time></trkpt><trkpt lat="50.375280224244314" lon="4.548047095927785"><ele>187.83333333333334</ele><time>2026-04-16T08:28:13Z</time></trkpt><trkpt lat="50.37529249271512" lon="4.548178414019301"><ele>188.66666666666669</ele><time>2026-04-16T08:28:15Z</time></trkpt><trkpt lat="50.37529473352646" lon="4.54829104470745"><ele>189.5</ele><time>2026-04-16T08:28:17Z</time></trkpt><trkpt lat="50.37531960162763" lon="4.548410750776658"><ele>190.33333333333334</ele><time>2026-04-16T08:28:20Z</time></trkpt><trkpt lat="50.37535279178185" lon="4.548503868298127"><ele>191.16666666666666</ele><time>2026-04-16T08:28:22Z</time></trkpt><trkpt lat="50.37537123963513" lon="4.5486566862585285"><ele>192.0</ele><time>2026-04-16T08:28:24Z</time></trkpt><trkpt lat="50.37538358624177" lon="4.548771604784269"><ele>192.8</ele><time>2026-04-16T08:28:25.999Z</time></trkpt><trkpt lat="50.37538583894424" lon="4.5489704790508805"><ele>193.6</ele><time>2026-04-16T08:28:27.999Z</time></trkpt><trkpt lat="50.375392591768765" lon="4.549076777370765"><ele>194.4</ele><time>2026-04-16T08:28:28.999Z</time></trkpt><trkpt lat="50.375412443764716" lon="4.549204775694092"><ele>195.20000000000002</ele><time>2026-04-16T08:28:29.999Z</time></trkpt><trkpt lat="50.37542986728908" lon="4.5493408200614"><ele>196.0</ele><time>2026-04-16T08:28:30.999Z</time></trkpt><trkpt lat="50.375457607176315" lon="4.549473611602796"><ele>195.60000000000002</ele><time>2026-04-16T08:28:31.999Z</time></trkpt><trkpt lat="50.375453735430646" lon="4.549635786463876"><ele>195.2</ele><time>2026-04-16T08:28:32.999Z</time></trkpt><trkpt lat="50.37545033420466" lon="4.54980036327827"><ele>194.8</ele><time>2026-04-16T08:28:33.999Z</time></trkpt><trkpt lat="50.37546364038127" lon="4.549948254558437"><ele>194.39999999999998</ele><time>2026-04-16T08:28:34.999Z</time></trkpt><trkpt lat="50.375483104963436" lon="4.550084947422506"><ele>194.0</ele><time>2026-04-16T08:28:35.999Z</time></trkpt><trkpt lat="50.37549015547787" lon="4.5502720498316185"><ele>194.0</ele><time>2026-04-16T08:28:36.999Z</time></trkpt><trkpt lat="50.37550135903295" lon="4.55042705927389"><ele>194.0</ele><time>2026-04-16T08:28:37.999Z</time></trkpt><trkpt lat="50.37552849009401" lon="4.550580786955771"><ele>194.0</ele><time>2026-04-16T08:28:38.999Z</time></trkpt><trkpt lat="50.37555585145839" lon="4.550740794683573"><ele>194.0</ele><time>2026-04-16T08:28:39.999Z</time></trkpt><trkpt lat="50.37559693641597" lon="4.550909066720172"><ele>194.0</ele><time>2026-04-16T08:28:40.999Z</time></trkpt><trkpt lat="50.37562895556932" lon="4.5511507829606455"><ele>193.00000000000003</ele><time>2026-04-16T08:28:42.999Z</time></trkpt><trkpt lat="50.37565884356849" lon="4.551269454216153"><ele>192.0</ele><time>2026-04-16T08:28:43.999Z</time></trkpt><trkpt lat="50.375679753414616" lon="4.551398928242095"><ele>191.0</ele><time>2026-04-16T08:28:44.999Z</time></trkpt><trkpt lat="50.375692129511435" lon="4.551537091309848"><ele>190.0</ele><time>2026-04-16T08:28:45.999Z</time></trkpt><trkpt lat="50.375737063782545" lon="4.5516754004191595"><ele>189.0</ele><time>2026-04-16T08:28:46.999Z</time></trkpt><trkpt lat="50.375769927806594" lon="4.5518055448851165"><ele>188.0</ele><time>2026-04-16T08:28:47.999Z</time></trkpt><trkpt lat="50.37579416042246" lon="4.551916466136046"><ele>188.0</ele><time>2026-04-16T08:28:48.999Z</time></trkpt><trkpt lat="50.37581903637136" lon="4.552013836647724"><ele>188.0</ele><time>2026-04-16T08:28:49.999Z</time></trkpt><trkpt lat="50.37584711309832" lon="4.552105525879563"><ele>188.0</ele><time>2026-04-16T08:28:50.999Z</time></trkpt><trkpt lat="50.375918143879126" lon="4.552257160388607"><ele>188.0</ele><time>2026-04-16T08:28:52.999Z</time></trkpt><trkpt lat="50.37595554829787" lon="4.552346136512209"><ele>188.0</ele><time>2026-04-16T08:28:53.999Z</time></trkpt><trkpt lat="50.37598900280464" lon="4.552443237950651"><ele>188.0</ele><time>2026-04-16T08:28:54.999Z</time></trkpt><trkpt lat="50.37604065226161" lon="4.552550567332533"><ele>189.33333333333331</ele><time>2026-04-16T08:28:55.999Z</time></trkpt><trkpt lat="50.37606551049281" lon="4.5526757906475455"><ele>190.66666666666666</ele><time>2026-04-16T08:28:56.999Z</time></trkpt><trkpt lat="50.37609574029998" lon="4.5527954974350475"><ele>192.0</ele><time>2026-04-16T08:28:57.999Z</time></trkpt><trkpt lat="50.376122914504705" lon="4.552905361232804"><ele>193.33333333333331</ele><time>2026-04-16T08:28:58.999Z</time></trkpt><trkpt lat="50.3761420906977" lon="4.553009070097868"><ele>194.66666666666666</ele><time>2026-04-16T08:28:59.999Z</time></trkpt><trkpt lat="50.37616528567916" lon="4.553126034062884"><ele>196.0</ele><time>2026-04-16T08:29:00.999Z</time></trkpt><trkpt lat="50.37620012282135" lon="4.553346159547993"><ele>196.99999999999997</ele><time>2026-04-16T08:29:02.999Z</time></trkpt><trkpt lat="50.37620261261435" lon="4.553460316341308"><ele>198.0</ele><time>2026-04-16T08:29:03.999Z</time></trkpt><trkpt lat="50.376212680922464" lon="4.553564778324323"><ele>199.0</ele><time>2026-04-16T08:29:04.999Z</time></trkpt><trkpt lat="50.3762344936589" lon="4.553673768388235"><ele>200.0</ele><time>2026-04-16T08:29:05.999Z</time></trkpt><trkpt lat="50.376242677767436" lon="4.553790603603256"><ele>200.99999999999997</ele><time>2026-04-16T08:29:06.999Z</time></trkpt><trkpt lat="50.376239689755515" lon="4.5539209587317515"><ele>202.0</ele><time>2026-04-16T08:29:07.999Z</time></trkpt><trkpt lat="50.37622404774304" lon="4.554065316029344"><ele>203.16666666666666</ele><time>2026-04-16T08:29:08.999Z</time></trkpt><trkpt lat="50.37622081099253" lon="4.554195686741131"><ele>204.33333333333331</ele><time>2026-04-16T08:29:09.999Z</time></trkpt><trkpt lat="50.37622703278437" lon="4.55430552306868"><ele>205.5</ele><time>2026-04-16T08:29:10.999Z</time></trkpt><trkpt lat="50.37623551004162" lon="4.554421993441071"><ele>206.66666666666669</ele><time>2026-04-16T08:29:11.999Z</time></trkpt><trkpt lat="50.376229263139464" lon="4.5545405953648075"><ele>207.83333333333334</ele><time>2026-04-16T08:29:12.999Z</time></trkpt><trkpt lat="50.37622387357763" lon="4.554656546304982"><ele>209.0</ele><time>2026-04-16T08:29:13.999Z</time></trkpt><trkpt lat="50.37622319939865" lon="4.5547917332053895"><ele>209.16666666666669</ele><time>2026-04-16T08:29:14.999Z</time></trkpt><trkpt lat="50.37622777582647" lon="4.554918112731961"><ele>209.33333333333334</ele><time>2026-04-16T08:29:15.999Z</time></trkpt><trkpt lat="50.376222717017654" lon="4.555046459237909"><ele>209.5</ele><time>2026-04-16T08:29:16.999Z</time></trkpt><trkpt lat="50.376222214271266" lon="4.555178371148447"><ele>209.66666666666669</ele><time>2026-04-16T08:29:17.999Z</time></trkpt><trkpt lat="50.37622818513394" lon="4.555305445866577"><ele>209.83333333333334</ele><time>2026-04-16T08:29:18.999Z</time></trkpt><trkpt lat="50.376234877573125" lon="4.5554514835164515"><ele>210.0</ele><time>2026-04-16T08:29:19.999Z</time></trkpt><trkpt lat="50.37622460080409" lon="4.555562713385759"><ele>210.0</ele><time>2026-04-16T08:29:20.999Z</time></trkpt><trkpt lat="50.3762259802587" lon="4.555662298363911"><ele>210.0</ele><time>2026-04-16T08:29:21.999Z</time></trkpt><trkpt lat="50.376232543190405" lon="4.555761537677562"><ele>210.0</ele><time>2026-04-16T08:29:23Z</time></trkpt><trkpt lat="50.37623200916397" lon="4.555895892430961"><ele>210.0</ele><time>2026-04-16T08:29:25Z</time></trkpt><trkpt lat="50.37621276778108" lon="4.556022414546145"><ele>210.0</ele><time>2026-04-16T08:29:27Z</time></trkpt><trkpt lat="50.37623108031638" lon="4.556144713297506"><ele>210.0</ele><time>2026-04-16T08:29:30Z</time></trkpt><trkpt lat="50.3762324939349" lon="4.556269511254672"><ele>210.0</ele><time>2026-04-16T08:29:33Z</time></trkpt><trkpt lat="50.37624762041573" lon="4.556376101476625"><ele>210.0</ele><time>2026-04-16T08:29:37Z</time></trkpt><trkpt lat="50.37618960646154" lon="4.55650682244232"><ele>210.0</ele><time>2026-04-16T08:30:01Z</time></trkpt><trkpt lat="50.37610991075644" lon="4.556499127592443"><ele>210.0</ele><time>2026-04-16T08:30:03Z</time></trkpt><trkpt lat="50.37602336418855" lon="4.556464361955135"><ele>210.0</ele><time>2026-04-16T08:30:04Z</time></trkpt><trkpt lat="50.3759527156025" lon="4.556416906294152"><ele>210.0</ele><time>2026-04-16T08:30:05Z</time></trkpt><trkpt lat="50.37586030695451" lon="4.556375348718136"><ele>210.0</ele><time>2026-04-16T08:30:06Z</time></trkpt><trkpt lat="50.37576102821528" lon="4.556325544434956"><ele>210.0</ele><time>2026-04-16T08:30:07Z</time></trkpt><trkpt lat="50.37565092533608" lon="4.556271370063242"><ele>210.0</ele><time>2026-04-16T08:30:08Z</time></trkpt><trkpt lat="50.375530656440695" lon="4.556226966648186"><ele>210.0</ele><time>2026-04-16T08:30:09Z</time></trkpt><trkpt lat="50.37540921376866" lon="4.55616346784239"><ele>211.0</ele><time>2026-04-16T08:30:10Z</time></trkpt><trkpt lat="50.37527458288771" lon="4.556097762626899"><ele>212.0</ele><time>2026-04-16T08:30:11Z</time></trkpt><trkpt lat="50.375131848412416" lon="4.5560370425113526"><ele>213.0</ele><time>2026-04-16T08:30:12Z</time></trkpt><trkpt lat="50.374985561798" lon="4.555970723372587"><ele>214.0</ele><time>2026-04-16T08:30:13Z</time></trkpt><trkpt lat="50.37483485506708" lon="4.555883855718731"><ele>213.66666666666666</ele><time>2026-04-16T08:30:14Z</time></trkpt><trkpt lat="50.37467147611915" lon="4.555808055705667"><ele>213.33333333333331</ele><time>2026-04-16T08:30:15Z</time></trkpt><trkpt lat="50.37451810227689" lon="4.555762790885967"><ele>213.0</ele><time>2026-04-16T08:30:16Z</time></trkpt><trkpt lat="50.37435335811683" lon="4.555665435180642"><ele>213.0</ele><time>2026-04-16T08:30:17Z</time></trkpt><trkpt lat="50.37418708722527" lon="4.5555833035029485"><ele>213.0</ele><time>2026-04-16T08:30:18Z</time></trkpt><trkpt lat="50.374041852966776" lon="4.5555161345472674"><ele>213.0</ele><time>2026-04-16T08:30:19Z</time></trkpt><trkpt lat="50.37389066457032" lon="4.555461577479517"><ele>213.66666666666669</ele><time>2026-04-16T08:30:20Z</time></trkpt><trkpt lat="50.373735724963936" lon="4.555399515244732"><ele>214.33333333333334</ele><time>2026-04-16T08:30:21Z</time></trkpt><trkpt lat="50.37358000682937" lon="4.555317361047995"><ele>215.0</ele><time>2026-04-16T08:30:22Z</time></trkpt><trkpt lat="50.3734188674894" lon="4.555235527138702"><ele>215.66666666666669</ele><time>2026-04-16T08:30:23Z</time></trkpt><trkpt lat="50.373260289790544" lon="4.555156329281378"><ele>216.33333333333331</ele><time>2026-04-16T08:30:24Z</time></trkpt><trkpt lat="50.37309801773713" lon="4.555075664485232"><ele>217.0</ele><time>2026-04-16T08:30:25Z</time></trkpt><trkpt lat="50.37294381062118" lon="4.555006355147211"><ele>217.25</ele><time>2026-04-16T08:30:26Z</time></trkpt><trkpt lat="50.3727911083756" lon="4.5549411520894925"><ele>217.5</ele><time>2026-04-16T08:30:27Z</time></trkpt><trkpt lat="50.37265337734873" lon="4.5548757166757134"><ele>217.75</ele><time>2026-04-16T08:30:28Z</time></trkpt><trkpt lat="50.372511882492724" lon="4.554814006870711"><ele>218.0</ele><time>2026-04-16T08:30:28.999Z</time></trkpt><trkpt lat="50.37237167583039" lon="4.554743582093522"><ele>218.0</ele><time>2026-04-16T08:30:29.999Z</time></trkpt><trkpt lat="50.37222033868067" lon="4.554693090451052"><ele>218.0</ele><time>2026-04-16T08:30:30.999Z</time></trkpt><trkpt lat="50.37207605324914" lon="4.5546346863276375"><ele>218.0</ele><time>2026-04-16T08:30:31.999Z</time></trkpt><trkpt lat="50.37191495309523" lon="4.554623584832148"><ele>218.0</ele><time>2026-04-16T08:30:32.999Z</time></trkpt><trkpt lat="50.371748817576545" lon="4.554573038936152"><ele>218.0</ele><time>2026-04-16T08:30:33.999Z</time></trkpt><trkpt lat="50.371600414967176" lon="4.554540861566482"><ele>218.0</ele><time>2026-04-16T08:30:34.999Z</time></trkpt><trkpt lat="50.37145051779148" lon="4.554528569660176"><ele>218.0</ele><time>2026-04-16T08:30:35.999Z</time></trkpt><trkpt lat="50.37129385100268" lon="4.554494658459874"><ele>218.0</ele><time>2026-04-16T08:30:36.999Z</time></trkpt><trkpt lat="50.371133441012915" lon="4.554464663118749"><ele>218.0</ele><time>2026-04-16T08:30:37.999Z</time></trkpt><trkpt lat="50.370980781915534" lon="4.554435364931544"><ele>218.0</ele><time>2026-04-16T08:30:38.999Z</time></trkpt><trkpt lat="50.37082483304088" lon="4.554402942279324"><ele>218.0</ele><time>2026-04-16T08:30:39.999Z</time></trkpt><trkpt lat="50.370683450366414" lon="4.554352495915882"><ele>218.0</ele><time>2026-04-16T08:30:40.999Z</time></trkpt><trkpt lat="50.37052215839887" lon="4.554335807848452"><ele>218.5</ele><time>2026-04-16T08:30:41.999Z</time></trkpt><trkpt lat="50.370370681661164" lon="4.554287428835851"><ele>219.0</ele><time>2026-04-16T08:30:42.999Z</time></trkpt><trkpt lat="50.37023707109068" lon="4.554259753694458"><ele>219.5</ele><time>2026-04-16T08:30:43.999Z</time></trkpt><trkpt lat="50.37011326411349" lon="4.554257290823551"><ele>220.0</ele><time>2026-04-16T08:30:44.999Z</time></trkpt><trkpt lat="50.370012090232485" lon="4.554223244866047"><ele>220.0</ele><time>2026-04-16T08:30:45.999Z</time></trkpt><trkpt lat="50.36988688152216" lon="4.5542354136744745"><ele>220.0</ele><time>2026-04-16T08:30:46.999Z</time></trkpt><trkpt lat="50.3697628563412" lon="4.554254995373675"><ele>220.0</ele><time>2026-04-16T08:30:47.999Z</time></trkpt><trkpt lat="50.369630664235565" lon="4.554250750065029"><ele>220.0</ele><time>2026-04-16T08:30:48.999Z</time></trkpt><trkpt lat="50.369488207595275" lon="4.5542755517404006"><ele>221.0</ele><time>2026-04-16T08:30:49.999Z</time></trkpt><trkpt lat="50.36934273654001" lon="4.554298718298927"><ele>222.0</ele><time>2026-04-16T08:30:50.999Z</time></trkpt><trkpt lat="50.36919296914444" lon="4.554324748398899"><ele>223.0</ele><time>2026-04-16T08:30:51.999Z</time></trkpt><trkpt lat="50.36903683952564" lon="4.554364905510667"><ele>223.0</ele><time>2026-04-16T08:30:52.999Z</time></trkpt><trkpt lat="50.368880873815826" lon="4.554384867095325"><ele>223.0</ele><time>2026-04-16T08:30:53.999Z</time></trkpt><trkpt lat="50.36872470731959" lon="4.554437369620837"><ele>223.0</ele><time>2026-04-16T08:30:54.999Z</time></trkpt><trkpt lat="50.368563051911146" lon="4.554467435211729"><ele>224.0</ele><time>2026-04-16T08:30:55.999Z</time></trkpt><trkpt lat="50.368410659922006" lon="4.5544865693164445"><ele>225.0</ele><time>2026-04-16T08:30:56.999Z</time></trkpt><trkpt lat="50.36827785195974" lon="4.554515337966064"><ele>226.0</ele><time>2026-04-16T08:30:57.999Z</time></trkpt><trkpt lat="50.36814036337287" lon="4.5544941180432765"><ele>227.0</ele><time>2026-04-16T08:30:58.999Z</time></trkpt><trkpt lat="50.3680288488697" lon="4.554505573715066"><ele>226.50000000000003</ele><time>2026-04-16T08:30:59.999Z</time></trkpt><trkpt lat="50.36793499434054" lon="4.554558504186474"><ele>226.0</ele><time>2026-04-16T08:31:00.999Z</time></trkpt><trkpt lat="50.367841423075056" lon="4.554593588233488"><ele>225.5</ele><time>2026-04-16T08:31:01.999Z</time></trkpt><trkpt lat="50.36774957889855" lon="4.554587823021642"><ele>225.0</ele><time>2026-04-16T08:31:02.999Z</time></trkpt><trkpt lat="50.367672058471776" lon="4.5546222327845225"><ele>224.50000000000003</ele><time>2026-04-16T08:31:03.999Z</time></trkpt><trkpt lat="50.367596307910446" lon="4.554614333715316"><ele>224.0</ele><time>2026-04-16T08:31:04.999Z</time></trkpt><trkpt lat="50.36751214762508" lon="4.554628129725352"><ele>224.0</ele><time>2026-04-16T08:31:05.999Z</time></trkpt><trkpt lat="50.36741753414252" lon="4.554643908241927"><ele>223.99999999999997</ele><time>2026-04-16T08:31:06.999Z</time></trkpt><trkpt lat="50.36730997001074" lon="4.554663625056254"><ele>223.99999999999997</ele><time>2026-04-16T08:31:07.999Z</time></trkpt><trkpt lat="50.367196833067005" lon="4.554690056651193"><ele>224.0</ele><time>2026-04-16T08:31:08.999Z</time></trkpt><trkpt lat="50.367074690245836" lon="4.5547119836816785"><ele>224.0</ele><time>2026-04-16T08:31:09.999Z</time></trkpt><trkpt lat="50.36695285828341" lon="4.554741208190092"><ele>222.79999999999998</ele><time>2026-04-16T08:31:10.999Z</time></trkpt><trkpt lat="50.36684162592121" lon="4.554770838160934"><ele>221.59999999999997</ele><time>2026-04-16T08:31:11.999Z</time></trkpt><trkpt lat="50.366734674614165" lon="4.55476664349808"><ele>220.4</ele><time>2026-04-16T08:31:12.999Z</time></trkpt><trkpt lat="50.36663262341393" lon="4.554810820993069"><ele>219.2</ele><time>2026-04-16T08:31:13.999Z</time></trkpt><trkpt lat="50.366524978563525" lon="4.554806244360465"><ele>218.0</ele><time>2026-04-16T08:31:14.999Z</time></trkpt><trkpt lat="50.366418403345264" lon="4.554848512242989"><ele>218.5</ele><time>2026-04-16T08:31:15.999Z</time></trkpt><trkpt lat="50.366309563930365" lon="4.5548676680226485"><ele>219.0</ele><time>2026-04-16T08:31:16.999Z</time></trkpt><trkpt lat="50.36619777697133" lon="4.554887076133926"><ele>219.5</ele><time>2026-04-16T08:31:17.999Z</time></trkpt><trkpt lat="50.366081666057056" lon="4.554899330839408"><ele>220.0</ele><time>2026-04-16T08:31:18.999Z</time></trkpt><trkpt lat="50.3659652460693" lon="4.554902797253171"><ele>220.0</ele><time>2026-04-16T08:31:19.999Z</time></trkpt><trkpt lat="50.365848085209244" lon="4.554914255660888"><ele>220.0</ele><time>2026-04-16T08:31:20.999Z</time></trkpt><trkpt lat="50.365728901177576" lon="4.55493803170763"><ele>220.0</ele><time>2026-04-16T08:31:21.999Z</time></trkpt><trkpt lat="50.365601858128734" lon="4.554970633994552"><ele>220.0</ele><time>2026-04-16T08:31:22.999Z</time></trkpt><trkpt lat="50.36547305810374" lon="4.554998524459323"><ele>220.0</ele><time>2026-04-16T08:31:23.999Z</time></trkpt><trkpt lat="50.365332546957774" lon="4.555037095861822"><ele>220.0</ele><time>2026-04-16T08:31:24.999Z</time></trkpt><trkpt lat="50.36519557975207" lon="4.555067821645003"><ele>220.0</ele><time>2026-04-16T08:31:25.999Z</time></trkpt><trkpt lat="50.36507400689396" lon="4.555072684637347"><ele>220.0</ele><time>2026-04-16T08:31:26.999Z</time></trkpt><trkpt lat="50.36496200839788" lon="4.555081752528203"><ele>220.0</ele><time>2026-04-16T08:31:27.999Z</time></trkpt><trkpt lat="50.36485081391991" lon="4.555108552716783"><ele>220.0</ele><time>2026-04-16T08:31:29Z</time></trkpt><trkpt lat="50.364741106662414" lon="4.55513295390581"><ele>220.0</ele><time>2026-04-16T08:31:30Z</time></trkpt><trkpt lat="50.364636714725805" lon="4.55515150244335"><ele>220.0</ele><time>2026-04-16T08:31:31Z</time></trkpt><trkpt lat="50.364548755250354" lon="4.555171800542208"><ele>220.0</ele><time>2026-04-16T08:31:32Z</time></trkpt><trkpt lat="50.364468227439325" lon="4.555190043549469"><ele>220.75</ele><time>2026-04-16T08:31:33Z</time></trkpt><trkpt lat="50.364378132717675" lon="4.555200644819425"><ele>221.5</ele><time>2026-04-16T08:31:34Z</time></trkpt><trkpt lat="50.36426782772875" lon="4.5552113832227"><ele>222.25</ele><time>2026-04-16T08:31:35Z</time></trkpt><trkpt lat="50.364147615387104" lon="4.555230539182112"><ele>223.0</ele><time>2026-04-16T08:31:36Z</time></trkpt><trkpt lat="50.36401658719741" lon="4.555262360185212"><ele>223.0</ele><time>2026-04-16T08:31:37Z</time></trkpt><trkpt lat="50.36387870183963" lon="4.55527121057883"><ele>223.0</ele><time>2026-04-16T08:31:38Z</time></trkpt><trkpt lat="50.36374340804213" lon="4.555271083681734"><ele>223.0</ele><time>2026-04-16T08:31:39Z</time></trkpt><trkpt lat="50.36361635619948" lon="4.555236636321809"><ele>223.0</ele><time>2026-04-16T08:31:40Z</time></trkpt><trkpt lat="50.36348426399179" lon="4.555162847751882"><ele>223.0</ele><time>2026-04-16T08:31:41Z</time></trkpt><trkpt lat="50.36334923084862" lon="4.555058002644539"><ele>223.0</ele><time>2026-04-16T08:31:42Z</time></trkpt><trkpt lat="50.36320813219475" lon="4.554957419544751"><ele>223.0</ele><time>2026-04-16T08:31:43Z</time></trkpt><trkpt lat="50.36306113878593" lon="4.55487266657854"><ele>222.33333333333331</ele><time>2026-04-16T08:31:44Z</time></trkpt><trkpt lat="50.36291044026003" lon="4.554791440183353"><ele>221.66666666666669</ele><time>2026-04-16T08:31:45Z</time></trkpt><trkpt lat="50.36277080876348" lon="4.554680745205869"><ele>221.0</ele><time>2026-04-16T08:31:46Z</time></trkpt><trkpt lat="50.362632966486224" lon="4.554593239635594"><ele>220.66666666666669</ele><time>2026-04-16T08:31:47Z</time></trkpt><trkpt lat="50.362495752814255" lon="4.554505959403101"><ele>220.33333333333331</ele><time>2026-04-16T08:31:48Z</time></trkpt><trkpt lat="50.362352605520464" lon="4.554435036342753"><ele>220.0</ele><time>2026-04-16T08:31:49Z</time></trkpt><trkpt lat="50.362204212102945" lon="4.554327031953341"><ele>219.33333333333331</ele><time>2026-04-16T08:31:50Z</time></trkpt><trkpt lat="50.36204575021048" lon="4.554232382959821"><ele>218.66666666666669</ele><time>2026-04-16T08:31:51Z</time></trkpt><trkpt lat="50.36188584238295" lon="4.554134451344452"><ele>218.0</ele><time>2026-04-16T08:31:52Z</time></trkpt><trkpt lat="50.361732282776266" lon="4.554037357197657"><ele>218.0</ele><time>2026-04-16T08:31:53Z</time></trkpt><trkpt lat="50.36159384680862" lon="4.553951333201318"><ele>218.0</ele><time>2026-04-16T08:31:54Z</time></trkpt><trkpt lat="50.36146915179906" lon="4.553872638005457"><ele>218.0</ele><time>2026-04-16T08:31:55Z</time></trkpt><trkpt lat="50.3613498905283" lon="4.55380595316831"><ele>218.0</ele><time>2026-04-16T08:31:56Z</time></trkpt><trkpt lat="50.36122903588667" lon="4.553720817239633"><ele>217.25</ele><time>2026-04-16T08:31:57Z</time></trkpt><trkpt lat="50.36109879462542" lon="4.553646627912153"><ele>216.5</ele><time>2026-04-16T08:31:58Z</time></trkpt><trkpt lat="50.36097772007536" lon="4.553572506030521"><ele>215.75</ele><time>2026-04-16T08:31:59Z</time></trkpt><trkpt lat="50.36086818797243" lon="4.553487204771018"><ele>215.0</ele><time>2026-04-16T08:32:00Z</time></trkpt><trkpt lat="50.36075966025374" lon="4.553419187918691"><ele>215.0</ele><time>2026-04-16T08:32:01Z</time></trkpt><trkpt lat="50.360660123623326" lon="4.553357939420953"><ele>215.0</ele><time>2026-04-16T08:32:02Z</time></trkpt><trkpt lat="50.36055972711493" lon="4.553295682978967"><ele>215.0</ele><time>2026-04-16T08:32:03Z</time></trkpt><trkpt lat="50.36046298623263" lon="4.55323687312128"><ele>215.0</ele><time>2026-04-16T08:32:04Z</time></trkpt><trkpt lat="50.36037065703699" lon="4.553171895414005"><ele>215.0</ele><time>2026-04-16T08:32:05Z</time></trkpt><trkpt lat="50.360291778630625" lon="4.553056923976359"><ele>215.00000000000003</ele><time>2026-04-16T08:32:06.001Z</time></trkpt><trkpt lat="50.36020621544884" lon="4.553001097942182"><ele>215.0</ele><time>2026-04-16T08:32:07Z</time></trkpt><trkpt lat="50.360118510799616" lon="4.552955604497684"><ele>215.0</ele><time>2026-04-16T08:32:08Z</time></trkpt><trkpt lat="50.360034311276216" lon="4.552906680834787"><ele>215.0</ele><time>2026-04-16T08:32:09Z</time></trkpt><trkpt lat="50.35995234378325" lon="4.5528499376824305"><ele>215.00000000000003</ele><time>2026-04-16T08:32:10Z</time></trkpt><trkpt lat="50.35988075522939" lon="4.552797618683866"><ele>215.0</ele><time>2026-04-16T08:32:11Z</time></trkpt><trkpt lat="50.359819395253545" lon="4.552760644439313"><ele>214.8</ele><time>2026-04-16T08:32:12Z</time></trkpt><trkpt lat="50.359716175383774" lon="4.552692562760081"><ele>214.6</ele><time>2026-04-16T08:32:14Z</time></trkpt><trkpt lat="50.35964997921456" lon="4.552651493630858"><ele>214.39999999999998</ele><time>2026-04-16T08:32:16Z</time></trkpt><trkpt lat="50.35959492549839" lon="4.552576741382592"><ele>214.2</ele><time>2026-04-16T08:32:19Z</time></trkpt><trkpt lat="50.359502350438994" lon="4.552462910718018"><ele>214.0</ele><time>2026-04-16T08:32:21Z</time></trkpt><trkpt lat="50.35943053157841" lon="4.552395774810364"><ele>213.39999999999998</ele><time>2026-04-16T08:32:22Z</time></trkpt><trkpt lat="50.35935183349346" lon="4.55234065673722"><ele>212.79999999999998</ele><time>2026-04-16T08:32:23Z</time></trkpt><trkpt lat="50.359265530337545" lon="4.552271649544694"><ele>212.2</ele><time>2026-04-16T08:32:24Z</time></trkpt><trkpt lat="50.359171445537605" lon="4.552196511034179"><ele>211.60000000000002</ele><time>2026-04-16T08:32:25Z</time></trkpt><trkpt lat="50.359078978458825" lon="4.552111774240399"><ele>211.0</ele><time>2026-04-16T08:32:26Z</time></trkpt><trkpt lat="50.35896949408278" lon="4.55204914139237"><ele>209.5</ele><time>2026-04-16T08:32:27Z</time></trkpt><trkpt lat="50.358861287611816" lon="4.55198839503169"><ele>208.0</ele><time>2026-04-16T08:32:28Z</time></trkpt><trkpt lat="50.358752112497804" lon="4.551929983542671"><ele>206.5</ele><time>2026-04-16T08:32:29Z</time></trkpt><trkpt lat="50.35864064696187" lon="4.5518834495083365"><ele>205.0</ele><time>2026-04-16T08:32:30Z</time></trkpt><trkpt lat="50.358534916373884" lon="4.551848797380585"><ele>205.0</ele><time>2026-04-16T08:32:31Z</time></trkpt><trkpt lat="50.358431909061544" lon="4.5518195580132135"><ele>205.0</ele><time>2026-04-16T08:32:32Z</time></trkpt><trkpt lat="50.35833390153641" lon="4.551773208052166"><ele>205.0</ele><time>2026-04-16T08:32:33Z</time></trkpt><trkpt lat="50.35824368513795" lon="4.5517329411245475"><ele>205.0</ele><time>2026-04-16T08:32:34Z</time></trkpt><trkpt lat="50.35815400840693" lon="4.5516912288616425"><ele>205.0</ele><time>2026-04-16T08:32:35Z</time></trkpt><trkpt lat="50.358068635662626" lon="4.551656398887667"><ele>204.4</ele><time>2026-04-16T08:32:35.999Z</time></trkpt><trkpt lat="50.35798620341385" lon="4.551621678194968"><ele>203.8</ele><time>2026-04-16T08:32:36.999Z</time></trkpt><trkpt lat="50.3579082026986" lon="4.551595925628939"><ele>203.2</ele><time>2026-04-16T08:32:37.999Z</time></trkpt><trkpt lat="50.35783687010479" lon="4.551566904973663"><ele>202.6</ele><time>2026-04-16T08:32:38.999Z</time></trkpt><trkpt lat="50.357726149278975" lon="4.5515177848973885"><ele>202.0</ele><time>2026-04-16T08:32:40.999Z</time></trkpt><trkpt lat="50.357596044352256" lon="4.5514621615432524"><ele>202.0</ele><time>2026-04-16T08:32:42.999Z</time></trkpt><trkpt lat="50.35751145295372" lon="4.551422376490843"><ele>202.0</ele><time>2026-04-16T08:32:43.999Z</time></trkpt><trkpt lat="50.3574213160795" lon="4.551383714153384"><ele>202.0</ele><time>2026-04-16T08:32:44.999Z</time></trkpt><trkpt lat="50.357324365796586" lon="4.551336990607469"><ele>202.0</ele><time>2026-04-16T08:32:45.999Z</time></trkpt><trkpt lat="50.35722205585842" lon="4.5512790101939755"><ele>202.0</ele><time>2026-04-16T08:32:46.999Z</time></trkpt><trkpt lat="50.3571107697687" lon="4.551234509443622"><ele>201.25</ele><time>2026-04-16T08:32:47.999Z</time></trkpt><trkpt lat="50.35699095838778" lon="4.551172562321081"><ele>200.5</ele><time>2026-04-16T08:32:48.999Z</time></trkpt><trkpt lat="50.3568696410079" lon="4.551106225979491"><ele>199.75</ele><time>2026-04-16T08:32:49.999Z</time></trkpt><trkpt lat="50.356741899610654" lon="4.551013477717083"><ele>199.0</ele><time>2026-04-16T08:32:50.999Z</time></trkpt><trkpt lat="50.35662818480186" lon="4.550946215034271"><ele>199.0</ele><time>2026-04-16T08:32:51.999Z</time></trkpt><trkpt lat="50.356514851285326" lon="4.55087917794412"><ele>199.0</ele><time>2026-04-16T08:32:52.999Z</time></trkpt><trkpt lat="50.35640349195236" lon="4.550819615520934"><ele>199.0</ele><time>2026-04-16T08:32:53.999Z</time></trkpt><trkpt lat="50.35630911854324" lon="4.55074949825263"><ele>199.0</ele><time>2026-04-16T08:32:54.999Z</time></trkpt><trkpt lat="50.35621779052438" lon="4.550680273815925"><ele>199.0</ele><time>2026-04-16T08:32:55.999Z</time></trkpt><trkpt lat="50.35612886719726" lon="4.55060127229201"><ele>198.6</ele><time>2026-04-16T08:32:56.999Z</time></trkpt><trkpt lat="50.3560334722035" lon="4.550534235718918"><ele>198.2</ele><time>2026-04-16T08:32:57.999Z</time></trkpt><trkpt lat="50.35593579302805" lon="4.550458047965991"><ele>197.79999999999998</ele><time>2026-04-16T08:32:58.999Z</time></trkpt><trkpt lat="50.355829142149965" lon="4.550382051715044"><ele>197.39999999999998</ele><time>2026-04-16T08:32:59.999Z</time></trkpt><trkpt lat="50.35572973207954" lon="4.550299618032252"><ele>197.0</ele><time>2026-04-16T08:33:00.999Z</time></trkpt><trkpt lat="50.35563194407191" lon="4.5502214066065"><ele>196.2</ele><time>2026-04-16T08:33:01.999Z</time></trkpt><trkpt lat="50.35553675793723" lon="4.5501419387495785"><ele>195.39999999999998</ele><time>2026-04-16T08:33:02.999Z</time></trkpt><trkpt lat="50.355444119084154" lon="4.550069373594583"><ele>194.60000000000002</ele><time>2026-04-16T08:33:03.999Z</time></trkpt><trkpt lat="50.35535458329463" lon="4.55000316148609"><ele>193.8</ele><time>2026-04-16T08:33:04.999Z</time></trkpt><trkpt lat="50.35526069095716" lon="4.549927671278766"><ele>193.0</ele><time>2026-04-16T08:33:05.999Z</time></trkpt><trkpt lat="50.355162835595515" lon="4.549848175836798"><ele>193.0</ele><time>2026-04-16T08:33:06.999Z</time></trkpt><trkpt lat="50.35506597450977" lon="4.549770752845417"><ele>193.0</ele><time>2026-04-16T08:33:07.999Z</time></trkpt><trkpt lat="50.35497537209947" lon="4.549696471788546"><ele>193.0</ele><time>2026-04-16T08:33:08.999Z</time></trkpt><trkpt lat="50.35489522955251" lon="4.549614956393883"><ele>193.0</ele><time>2026-04-16T08:33:09.999Z</time></trkpt><trkpt lat="50.354810980165404" lon="4.549551052570659"><ele>193.0</ele><time>2026-04-16T08:33:10.999Z</time></trkpt><trkpt lat="50.354724280694484" lon="4.549483744500293"><ele>192.8</ele><time>2026-04-16T08:33:11.999Z</time></trkpt><trkpt lat="50.35463489292695" lon="4.549409316835571"><ele>192.60000000000002</ele><time>2026-04-16T08:33:12.999Z</time></trkpt><trkpt lat="50.35453962600246" lon="4.549347355040792"><ele>192.39999999999998</ele><time>2026-04-16T08:33:13.999Z</time></trkpt><trkpt lat="50.35444445557512" lon="4.549294202929373"><ele>192.2</ele><time>2026-04-16T08:33:14.999Z</time></trkpt><trkpt lat="50.35434807367183" lon="4.549245942907047"><ele>192.0</ele><time>2026-04-16T08:33:15.999Z</time></trkpt><trkpt lat="50.354248228546254" lon="4.549215659606582"><ele>192.0</ele><time>2026-04-16T08:33:16.999Z</time></trkpt><trkpt lat="50.35414549033959" lon="4.549182251850489"><ele>192.0</ele><time>2026-04-16T08:33:17.999Z</time></trkpt><trkpt lat="50.354052159624985" lon="4.549151133496138"><ele>192.0</ele><time>2026-04-16T08:33:18.999Z</time></trkpt><trkpt lat="50.353953571973335" lon="4.54911893257685"><ele>192.0</ele><time>2026-04-16T08:33:19.999Z</time></trkpt><trkpt lat="50.3538535644384" lon="4.54909864599171"><ele>192.0</ele><time>2026-04-16T08:33:20.999Z</time></trkpt><trkpt lat="50.35375244182724" lon="4.549074655177148"><ele>191.6</ele><time>2026-04-16T08:33:21.999Z</time></trkpt><trkpt lat="50.353654201809995" lon="4.549025970824438"><ele>191.2</ele><time>2026-04-16T08:33:22.999Z</time></trkpt><trkpt lat="50.353554451825154" lon="4.548998320789783"><ele>190.8</ele><time>2026-04-16T08:33:23.999Z</time></trkpt><trkpt lat="50.353447392167666" lon="4.548988453241976"><ele>190.4</ele><time>2026-04-16T08:33:24.999Z</time></trkpt><trkpt lat="50.35335143468271" lon="4.548974898266568"><ele>190.0</ele><time>2026-04-16T08:33:25.999Z</time></trkpt><trkpt lat="50.35325540190414" lon="4.548951179133447"><ele>190.0</ele><time>2026-04-16T08:33:26.999Z</time></trkpt><trkpt lat="50.35315306853875" lon="4.5489465238456015"><ele>190.0</ele><time>2026-04-16T08:33:27.999Z</time></trkpt><trkpt lat="50.35306664398491" lon="4.548938512896564"><ele>190.0</ele><time>2026-04-16T08:33:28.999Z</time></trkpt><trkpt lat="50.3529880172521" lon="4.548925253636597"><ele>190.0</ele><time>2026-04-16T08:33:29.999Z</time></trkpt><trkpt lat="50.352906251569635" lon="4.548918614351218"><ele>190.0</ele><time>2026-04-16T08:33:30.999Z</time></trkpt><trkpt lat="50.35281857668069" lon="4.548923970348367"><ele>190.0</ele><time>2026-04-16T08:33:31.999Z</time></trkpt><trkpt lat="50.352723684958654" lon="4.548940929757913"><ele>189.4</ele><time>2026-04-16T08:33:32.999Z</time></trkpt><trkpt lat="50.35263132374092" lon="4.548938064876358"><ele>188.8</ele><time>2026-04-16T08:33:33.999Z</time></trkpt><trkpt lat="50.352541806753855" lon="4.548917332773748"><ele>188.2</ele><time>2026-04-16T08:33:35Z</time></trkpt><trkpt lat="50.35245419979691" lon="4.548885637667456"><ele>187.6</ele><time>2026-04-16T08:33:36Z</time></trkpt><trkpt lat="50.352371369670486" lon="4.548835230434643"><ele>187.0</ele><time>2026-04-16T08:33:37Z</time></trkpt><trkpt lat="50.35228668470971" lon="4.548762868314706"><ele>186.83333333333334</ele><time>2026-04-16T08:33:38Z</time></trkpt><trkpt lat="50.352211348252126" lon="4.548671783765935"><ele>186.66666666666669</ele><time>2026-04-16T08:33:39Z</time></trkpt><trkpt lat="50.352146606224004" lon="4.548578475736485"><ele>186.5</ele><time>2026-04-16T08:33:40Z</time></trkpt><trkpt lat="50.35209359503227" lon="4.548498962948811"><ele>186.33333333333334</ele><time>2026-04-16T08:33:41Z</time></trkpt><trkpt lat="50.35205240222128" lon="4.548419792888723"><ele>186.16666666666666</ele><time>2026-04-16T08:33:42Z</time></trkpt><trkpt lat="50.352020364496326" lon="4.548249203530155"><ele>186.0</ele><time>2026-04-16T08:33:44Z</time></trkpt><trkpt lat="50.351870248776095" lon="4.548181875469572"><ele>186.16666666666666</ele><time>2026-04-16T08:33:46Z</time></trkpt><trkpt lat="50.351791914531184" lon="4.548140337348722"><ele>186.33333333333334</ele><time>2026-04-16T08:33:47Z</time></trkpt><trkpt lat="50.351703700328805" lon="4.5481218460926"><ele>186.5</ele><time>2026-04-16T08:33:48Z</time></trkpt><trkpt lat="50.35162101189748" lon="4.5481071998047"><ele>186.66666666666669</ele><time>2026-04-16T08:33:49Z</time></trkpt><trkpt lat="50.35154183241226" lon="4.548093175037337"><ele>186.83333333333334</ele><time>2026-04-16T08:33:50Z</time></trkpt><trkpt lat="50.35145838442968" lon="4.548085649067287"><ele>187.0</ele><time>2026-04-16T08:33:51Z</time></trkpt><trkpt lat="50.351369843937334" lon="4.548069744731533"><ele>187.0</ele><time>2026-04-16T08:33:52Z</time></trkpt><trkpt lat="50.35128457131408" lon="4.548047410618251"><ele>187.0</ele><time>2026-04-16T08:33:53Z</time></trkpt><trkpt lat="50.35121157852179" lon="4.548039892095993"><ele>187.0</ele><time>2026-04-16T08:33:54Z</time></trkpt><trkpt lat="50.35114545246085" lon="4.548024890638499"><ele>187.0</ele><time>2026-04-16T08:33:55Z</time></trkpt><trkpt lat="50.35105170610363" lon="4.547995545729376"><ele>187.0</ele><time>2026-04-16T08:33:57Z</time></trkpt><trkpt lat="50.35098297585345" lon="4.547989473261179"><ele>187.0</ele><time>2026-04-16T08:33:59Z</time></trkpt><trkpt lat="50.350976716747596" lon="4.548130943678544"><ele>187.0</ele><time>2026-04-16T08:34:00Z</time></trkpt><trkpt lat="50.350996034640396" lon="4.548226993041062"><ele>187.0</ele><time>2026-04-16T08:34:01Z</time></trkpt><trkpt lat="50.351063230467325" lon="4.54840694877156"><ele>187.0</ele><time>2026-04-16T08:34:03Z</time></trkpt><trkpt lat="50.35108291754643" lon="4.548507386286153"><ele>187.0</ele><time>2026-04-16T08:34:04Z</time></trkpt><trkpt lat="50.35106510198246" lon="4.548611171480857"><ele>187.0</ele><time>2026-04-16T08:34:05Z</time></trkpt><trkpt lat="50.351058662580996" lon="4.548723514079128"><ele>187.0</ele><time>2026-04-16T08:34:06Z</time></trkpt><trkpt lat="50.351068226219596" lon="4.548842172370389"><ele>187.16666666666669</ele><time>2026-04-16T08:34:07Z</time></trkpt><trkpt lat="50.35106012149049" lon="4.548963119897579"><ele>187.33333333333334</ele><time>2026-04-16T08:34:08Z</time></trkpt><trkpt lat="50.35105028135089" lon="4.549102111415882"><ele>187.5</ele><time>2026-04-16T08:34:09Z</time></trkpt><trkpt lat="50.35103805350414" lon="4.549240451505006"><ele>187.66666666666666</ele><time>2026-04-16T08:34:10Z</time></trkpt><trkpt lat="50.351032014528045" lon="4.549371686171872"><ele>187.83333333333331</ele><time>2026-04-16T08:34:11Z</time></trkpt><trkpt lat="50.3510129702529" lon="4.5494854801434945"><ele>188.0</ele><time>2026-04-16T08:34:12Z</time></trkpt><trkpt lat="50.35100085549782" lon="4.549585069553509"><ele>188.16666666666666</ele><time>2026-04-16T08:34:13Z</time></trkpt><trkpt lat="50.35100246825891" lon="4.549684405194007"><ele>188.33333333333331</ele><time>2026-04-16T08:34:14Z</time></trkpt><trkpt lat="50.35093720506166" lon="4.5498000876459335"><ele>188.5</ele><time>2026-04-16T08:34:16Z</time></trkpt><trkpt lat="50.350857777969594" lon="4.549912126977763"><ele>188.66666666666666</ele><time>2026-04-16T08:34:17Z</time></trkpt><trkpt lat="50.350796571242135" lon="4.55002123095987"><ele>188.83333333333334</ele><time>2026-04-16T08:34:18Z</time></trkpt><trkpt lat="50.3507493546469" lon="4.55011179092226"><ele>189.0</ele><time>2026-04-16T08:34:19Z</time></trkpt><trkpt lat="50.350708494055574" lon="4.550194602599158"><ele>189.0</ele><time>2026-04-16T08:34:20Z</time></trkpt><trkpt lat="50.350654069653615" lon="4.5502580418170595"><ele>189.0</ele><time>2026-04-16T08:34:21Z</time></trkpt><trkpt lat="50.35058693521555" lon="4.550270577418118"><ele>189.0</ele><time>2026-04-16T08:34:22Z</time></trkpt><trkpt lat="50.35050842958952" lon="4.5502458525934655"><ele>189.0</ele><time>2026-04-16T08:34:23Z</time></trkpt><trkpt lat="50.35041984523293" lon="4.550242466198108"><ele>189.0</ele><time>2026-04-16T08:34:24Z</time></trkpt><trkpt lat="50.35032535368618" lon="4.550261952593427"><ele>189.0</ele><time>2026-04-16T08:34:25Z</time></trkpt><trkpt lat="50.35022833056979" lon="4.550245050752415"><ele>189.39999999999998</ele><time>2026-04-16T08:34:26Z</time></trkpt><trkpt lat="50.350125983097804" lon="4.550236412671914"><ele>189.8</ele><time>2026-04-16T08:34:27Z</time></trkpt><trkpt lat="50.35001843877383" lon="4.550222516067858"><ele>190.2</ele><time>2026-04-16T08:34:28Z</time></trkpt><trkpt lat="50.34992206600333" lon="4.550186196557096"><ele>190.60000000000002</ele><time>2026-04-16T08:34:29Z</time></trkpt><trkpt lat="50.34983725725207" lon="4.550170902662393"><ele>191.0</ele><time>2026-04-16T08:34:30Z</time></trkpt><trkpt lat="50.34975957534342" lon="4.550157955668416"><ele>191.0</ele><time>2026-04-16T08:34:31Z</time></trkpt><trkpt lat="50.349694706906" lon="4.550144610546551"><ele>191.0</ele><time>2026-04-16T08:34:32Z</time></trkpt><trkpt lat="50.34961089246408" lon="4.5500283373804224"><ele>191.0</ele><time>2026-04-16T08:34:34Z</time></trkpt><trkpt lat="50.34959907836924" lon="4.549919418107053"><ele>191.0</ele><time>2026-04-16T08:34:35Z</time></trkpt><trkpt lat="50.349574429035016" lon="4.549815334658542"><ele>191.0</ele><time>2026-04-16T08:34:36Z</time></trkpt><trkpt lat="50.34952699962453" lon="4.549669976848219"><ele>191.0</ele><time>2026-04-16T08:34:38Z</time></trkpt><trkpt lat="50.349490008960856" lon="4.549569016255457"><ele>191.0</ele><time>2026-04-16T08:34:40Z</time></trkpt><trkpt lat="50.349372877602676" lon="4.549657480888514"><ele>191.0</ele><time>2026-04-16T08:34:41Z</time></trkpt><trkpt lat="50.34927392247321" lon="4.549746651859854"><ele>191.0</ele><time>2026-04-16T08:34:43Z</time></trkpt><trkpt lat="50.34916699876518" lon="4.549821034405636"><ele>191.0</ele><time>2026-04-16T08:34:45Z</time></trkpt><trkpt lat="50.349077188871966" lon="4.549933877864476"><ele>191.0</ele><time>2026-04-16T08:34:47Z</time></trkpt><trkpt lat="50.34901025755317" lon="4.550053600101827"><ele>191.0</ele><time>2026-04-16T08:34:48.999Z</time></trkpt><trkpt lat="50.349011531279196" lon="4.550161855513886"><ele>191.0</ele><time>2026-04-16T08:34:49.999Z</time></trkpt><trkpt lat="50.34902398083487" lon="4.550259853400833"><ele>191.0</ele><time>2026-04-16T08:34:50.999Z</time></trkpt><trkpt lat="50.34906645063239" lon="4.550359910317863"><ele>191.0</ele><time>2026-04-16T08:34:51.999Z</time></trkpt><trkpt lat="50.34910134457403" lon="4.550484043689161"><ele>191.0</ele><time>2026-04-16T08:34:52.999Z</time></trkpt><trkpt lat="50.349133484691656" lon="4.550626582815849"><ele>191.60000000000002</ele><time>2026-04-16T08:34:53.999Z</time></trkpt><trkpt lat="50.34917437858717" lon="4.550770907883278"><ele>192.2</ele><time>2026-04-16T08:34:54.999Z</time></trkpt><trkpt lat="50.349219975320466" lon="4.5509279874328294"><ele>192.8</ele><time>2026-04-16T08:34:55.999Z</time></trkpt><trkpt lat="50.34926651628022" lon="4.551086052303497"><ele>193.39999999999998</ele><time>2026-04-16T08:34:56.999Z</time></trkpt><trkpt lat="50.34930558957234" lon="4.551214911026315"><ele>194.0</ele><time>2026-04-16T08:34:57.999Z</time></trkpt><trkpt lat="50.34933962422337" lon="4.551331131932883"><ele>194.2</ele><time>2026-04-16T08:34:58.999Z</time></trkpt><trkpt lat="50.3493759726322" lon="4.551439620613546"><ele>194.39999999999998</ele><time>2026-04-16T08:34:59.999Z</time></trkpt><trkpt lat="50.34939654307911" lon="4.551561983356572"><ele>194.6</ele><time>2026-04-16T08:35:00.999Z</time></trkpt><trkpt lat="50.34944533561797" lon="4.551676572587355"><ele>194.8</ele><time>2026-04-16T08:35:01.999Z</time></trkpt><trkpt lat="50.34948181779116" lon="4.551817118386307"><ele>195.0</ele><time>2026-04-16T08:35:02.999Z</time></trkpt><trkpt lat="50.349523608240126" lon="4.5519698242209214"><ele>194.75</ele><time>2026-04-16T08:35:03.999Z</time></trkpt><trkpt lat="50.3495660883736" lon="4.552134514172553"><ele>194.5</ele><time>2026-04-16T08:35:04.999Z</time></trkpt><trkpt lat="50.349602643669954" lon="4.552305942335482"><ele>194.25</ele><time>2026-04-16T08:35:05.999Z</time></trkpt><trkpt lat="50.34964544606151" lon="4.552498191964203"><ele>194.0</ele><time>2026-04-16T08:35:06.999Z</time></trkpt><trkpt lat="50.34968394820219" lon="4.552683424080005"><ele>193.0</ele><time>2026-04-16T08:35:07.999Z</time></trkpt><trkpt lat="50.3497094751593" lon="4.5528566945037685"><ele>192.0</ele><time>2026-04-16T08:35:08.999Z</time></trkpt><trkpt lat="50.34972586810407" lon="4.5530405924244635"><ele>191.0</ele><time>2026-04-16T08:35:09.999Z</time></trkpt><trkpt lat="50.349736287704786" lon="4.553231299072581"><ele>190.0</ele><time>2026-04-16T08:35:10.999Z</time></trkpt><trkpt lat="50.3497247969182" lon="4.55343272163329"><ele>190.0</ele><time>2026-04-16T08:35:11.999Z</time></trkpt><trkpt lat="50.34971295921693" lon="4.553622251927712"><ele>190.0</ele><time>2026-04-16T08:35:12.999Z</time></trkpt><trkpt lat="50.34971686935118" lon="4.553800377961672"><ele>190.0</ele><time>2026-04-16T08:35:13.999Z</time></trkpt><trkpt lat="50.34970378876853" lon="4.553956193901234"><ele>190.0</ele><time>2026-04-16T08:35:14.999Z</time></trkpt><trkpt lat="50.3496877222673" lon="4.5541041138032465"><ele>190.0</ele><time>2026-04-16T08:35:15.999Z</time></trkpt><trkpt lat="50.349668233042415" lon="4.554238911855132"><ele>190.2</ele><time>2026-04-16T08:35:16.999Z</time></trkpt><trkpt lat="50.34965609446352" lon="4.554373038462015"><ele>190.4</ele><time>2026-04-16T08:35:17.999Z</time></trkpt><trkpt lat="50.34964652559393" lon="4.5544993969201375"><ele>190.60000000000002</ele><time>2026-04-16T08:35:18.999Z</time></trkpt><trkpt lat="50.34963935382603" lon="4.554602427223049"><ele>190.8</ele><time>2026-04-16T08:35:19.999Z</time></trkpt><trkpt lat="50.349628274320224" lon="4.554789772909422"><ele>191.0</ele><time>2026-04-16T08:35:21.999Z</time></trkpt><trkpt lat="50.349613917715935" lon="4.554957540251116"><ele>191.0</ele><time>2026-04-16T08:35:23.999Z</time></trkpt><trkpt lat="50.34960672120366" lon="4.555114449568054"><ele>191.0</ele><time>2026-04-16T08:35:25.999Z</time></trkpt><trkpt lat="50.34959370245989" lon="4.555246614835015"><ele>191.0</ele><time>2026-04-16T08:35:27.999Z</time></trkpt><trkpt lat="50.349597652322224" lon="4.555140150398832"><ele>191.0</ele><time>2026-04-16T08:35:38.999Z</time></trkpt><trkpt lat="50.34961275722844" lon="4.554992474688531"><ele>191.0</ele><time>2026-04-16T08:35:41Z</time></trkpt><trkpt lat="50.349619548178715" lon="4.554885434620838"><ele>191.0</ele><time>2026-04-16T08:35:42Z</time></trkpt><trkpt lat="50.34963021251901" lon="4.554661777053725"><ele>191.0</ele><time>2026-04-16T08:35:44Z</time></trkpt><trkpt lat="50.34964022792188" lon="4.554535565075279"><ele>191.0</ele><time>2026-04-16T08:35:45Z</time></trkpt><trkpt lat="50.34968137131724" lon="4.55437373569244"><ele>191.0</ele><time>2026-04-16T08:35:46Z</time></trkpt><trkpt lat="50.34969660490734" lon="4.554211829669901"><ele>191.0</ele><time>2026-04-16T08:35:47Z</time></trkpt><trkpt lat="50.34971131765483" lon="4.554055459513917"><ele>191.0</ele><time>2026-04-16T08:35:48Z</time></trkpt><trkpt lat="50.34972564053396" lon="4.5539032326765"><ele>190.8</ele><time>2026-04-16T08:35:49Z</time></trkpt><trkpt lat="50.349738377299595" lon="4.553767863478413"><ele>190.60000000000002</ele><time>2026-04-16T08:35:50Z</time></trkpt><trkpt lat="50.349732280754985" lon="4.553618456425154"><ele>190.4</ele><time>2026-04-16T08:35:51Z</time></trkpt><trkpt lat="50.34974044278721" lon="4.553461183620939"><ele>190.2</ele><time>2026-04-16T08:35:52Z</time></trkpt><trkpt lat="50.349741590938436" lon="4.553291236202027"><ele>190.0</ele><time>2026-04-16T08:35:53Z</time></trkpt><trkpt lat="50.34973773519887" lon="4.553115134620938"><ele>190.0</ele><time>2026-04-16T08:35:54Z</time></trkpt><trkpt lat="50.34972064425556" lon="4.552939920057708"><ele>190.0</ele><time>2026-04-16T08:35:55Z</time></trkpt><trkpt lat="50.34971660639559" lon="4.5527532480241435"><ele>190.0</ele><time>2026-04-16T08:35:56Z</time></trkpt><trkpt lat="50.34968456400067" lon="4.5525674805344725"><ele>190.0</ele><time>2026-04-16T08:35:57Z</time></trkpt><trkpt lat="50.34965300453806" lon="4.552387036284659"><ele>190.8</ele><time>2026-04-16T08:35:58Z</time></trkpt><trkpt lat="50.349611675090124" lon="4.552223395271035"><ele>191.6</ele><time>2026-04-16T08:35:59Z</time></trkpt><trkpt lat="50.349571129378496" lon="4.552057936267028"><ele>192.39999999999998</ele><time>2026-04-16T08:36:00Z</time></trkpt><trkpt lat="50.34951160026442" lon="4.551907142301861"><ele>193.2</ele><time>2026-04-16T08:36:01Z</time></trkpt><trkpt lat="50.34946895612426" lon="4.551752798233688"><ele>194.0</ele><time>2026-04-16T08:36:02Z</time></trkpt><trkpt lat="50.349442628364926" lon="4.551594620274301"><ele>194.0</ele><time>2026-04-16T08:36:03Z</time></trkpt><trkpt lat="50.34940151744892" lon="4.551453772182135"><ele>194.0</ele><time>2026-04-16T08:36:04Z</time></trkpt><trkpt lat="50.34936381362533" lon="4.551324596932152"><ele>194.0</ele><time>2026-04-16T08:36:05Z</time></trkpt><trkpt lat="50.349326385841735" lon="4.551196367498028"><ele>194.0</ele><time>2026-04-16T08:36:06Z</time></trkpt><trkpt lat="50.34929025285658" lon="4.551074960393758"><ele>194.0</ele><time>2026-04-16T08:36:07Z</time></trkpt><trkpt lat="50.34925374330034" lon="4.550952420443675"><ele>194.00000000000003</ele><time>2026-04-16T08:36:08Z</time></trkpt><trkpt lat="50.34921648329376" lon="4.550827361782888"><ele>194.0</ele><time>2026-04-16T08:36:09Z</time></trkpt><trkpt lat="50.349182039072055" lon="4.550704924439735"><ele>194.0</ele><time>2026-04-16T08:36:10Z</time></trkpt><trkpt lat="50.34914977446638" lon="4.550586167873622"><ele>194.0</ele><time>2026-04-16T08:36:11Z</time></trkpt><trkpt lat="50.349118517158345" lon="4.550473012903576"><ele>194.00000000000003</ele><time>2026-04-16T08:36:12Z</time></trkpt><trkpt lat="50.34908975761705" lon="4.550372094127604"><ele>194.0</ele><time>2026-04-16T08:36:13Z</time></trkpt><trkpt lat="50.34905363996623" lon="4.550290328624211"><ele>192.5</ele><time>2026-04-16T08:36:14Z</time></trkpt><trkpt lat="50.34904295350491" lon="4.550188896435268"><ele>191.0</ele><time>2026-04-16T08:36:16Z</time></trkpt><trkpt lat="50.34956041686989" lon="4.549949416218712"><ele>194.0</ele><time>2026-04-16T08:36:22Z</time></trkpt><trkpt lat="50.34894172244498" lon="4.5504529967515595"><ele>194.00000000000003</ele><time>2026-04-16T08:36:23Z</time></trkpt><trkpt lat="50.34891778627582" lon="4.550547237613308"><ele>194.0</ele><time>2026-04-16T08:36:24Z</time></trkpt><trkpt lat="50.34888806604761" lon="4.550654840079442"><ele>194.0</ele><time>2026-04-16T08:36:25Z</time></trkpt><trkpt lat="50.34885853943946" lon="4.550769121023948"><ele>194.0</ele><time>2026-04-16T08:36:26Z</time></trkpt><trkpt lat="50.348827222260596" lon="4.550894195360176"><ele>194.00000000000003</ele><time>2026-04-16T08:36:27Z</time></trkpt><trkpt lat="50.348793356103734" lon="4.551024166427919"><ele>194.0</ele><time>2026-04-16T08:36:28Z</time></trkpt><trkpt lat="50.348760160261016" lon="4.55116163462393"><ele>194.39999999999998</ele><time>2026-04-16T08:36:29Z</time></trkpt><trkpt lat="50.34872454977803" lon="4.5513040991278935"><ele>194.8</ele><time>2026-04-16T08:36:30Z</time></trkpt><trkpt lat="50.34868500404023" lon="4.551454063092409"><ele>195.2</ele><time>2026-04-16T08:36:31Z</time></trkpt><trkpt lat="50.34864516649045" lon="4.5516026130362475"><ele>195.60000000000002</ele><time>2026-04-16T08:36:32Z</time></trkpt><trkpt lat="50.3486073221837" lon="4.551757422749526"><ele>196.0</ele><time>2026-04-16T08:36:33Z</time></trkpt><trkpt lat="50.34857856378702" lon="4.5518907590597335"><ele>195.99999999999997</ele><time>2026-04-16T08:36:34Z</time></trkpt><trkpt lat="50.34854601162063" lon="4.552010323932247"><ele>196.0</ele><time>2026-04-16T08:36:35Z</time></trkpt><trkpt lat="50.34851230382201" lon="4.552142084033044"><ele>196.0</ele><time>2026-04-16T08:36:36Z</time></trkpt><trkpt lat="50.34848475005552" lon="4.552271399975774"><ele>196.0</ele><time>2026-04-16T08:36:37Z</time></trkpt><trkpt lat="50.348455448015436" lon="4.552393469044084"><ele>195.99999999999997</ele><time>2026-04-16T08:36:37.999Z</time></trkpt><trkpt lat="50.34842359344214" lon="4.552518185449651"><ele>196.0</ele><time>2026-04-16T08:36:38.999Z</time></trkpt><trkpt lat="50.3483932117061" lon="4.5526423367739035"><ele>196.0</ele><time>2026-04-16T08:36:39.999Z</time></trkpt><trkpt lat="50.348360351229644" lon="4.552775680883468"><ele>196.0</ele><time>2026-04-16T08:36:40.999Z</time></trkpt><trkpt lat="50.348325824747796" lon="4.5529113697878385"><ele>196.0</ele><time>2026-04-16T08:36:41.999Z</time></trkpt><trkpt lat="50.34829074577735" lon="4.553059554641051"><ele>196.0</ele><time>2026-04-16T08:36:42.999Z</time></trkpt><trkpt lat="50.348254500569155" lon="4.553209160678581"><ele>196.0</ele><time>2026-04-16T08:36:43.999Z</time></trkpt><trkpt lat="50.348218249295414" lon="4.553360440419503"><ele>196.0</ele><time>2026-04-16T08:36:44.999Z</time></trkpt><trkpt lat="50.3481818554703" lon="4.553512331391691"><ele>196.0</ele><time>2026-04-16T08:36:45.999Z</time></trkpt><trkpt lat="50.348141247700696" lon="4.553658765106172"><ele>196.0</ele><time>2026-04-16T08:36:46.999Z</time></trkpt><trkpt lat="50.34810475836907" lon="4.553809180627593"><ele>196.0</ele><time>2026-04-16T08:36:47.999Z</time></trkpt><trkpt lat="50.34807227315735" lon="4.553950317665424"><ele>196.0</ele><time>2026-04-16T08:36:48.999Z</time></trkpt><trkpt lat="50.348039749223084" lon="4.554095857639864"><ele>196.60000000000002</ele><time>2026-04-16T08:36:49.999Z</time></trkpt><trkpt lat="50.348008544905035" lon="4.5542370800985035"><ele>197.2</ele><time>2026-04-16T08:36:50.999Z</time></trkpt><trkpt lat="50.34797317206884" lon="4.5543764067380765"><ele>197.8</ele><time>2026-04-16T08:36:51.999Z</time></trkpt><trkpt lat="50.3479407380909" lon="4.554517034232222"><ele>198.39999999999998</ele><time>2026-04-16T08:36:52.999Z</time></trkpt><trkpt lat="50.34791049360458" lon="4.554653765490635"><ele>199.0</ele><time>2026-04-16T08:36:53.999Z</time></trkpt><trkpt lat="50.3478817261222" lon="4.554791745744346"><ele>198.99999999999997</ele><time>2026-04-16T08:36:54.999Z</time></trkpt><trkpt lat="50.347848556336736" lon="4.554917274074163"><ele>199.0</ele><time>2026-04-16T08:36:55.999Z</time></trkpt><trkpt lat="50.34781462277813" lon="4.555030774556687"><ele>199.0</ele><time>2026-04-16T08:36:56.999Z</time></trkpt><trkpt lat="50.34778422285665" lon="4.555174568938675"><ele>199.0</ele><time>2026-04-16T08:36:57.999Z</time></trkpt><trkpt lat="50.34774989077813" lon="4.555298388970882"><ele>198.99999999999997</ele><time>2026-04-16T08:36:58.999Z</time></trkpt><trkpt lat="50.34772176226921" lon="4.555399915690451"><ele>199.0</ele><time>2026-04-16T08:36:59.999Z</time></trkpt><trkpt lat="50.34769195290707" lon="4.555500847687857"><ele>198.7142857142857</ele><time>2026-04-16T08:37:00.999Z</time></trkpt><trkpt lat="50.34767350854051" lon="4.555600330992908"><ele>198.42857142857142</ele><time>2026-04-16T08:37:01.999Z</time></trkpt><trkpt lat="50.3476510614739" lon="4.555697577786222"><ele>198.14285714285714</ele><time>2026-04-16T08:37:02.999Z</time></trkpt><trkpt lat="50.34762960650976" lon="4.555809626267392"><ele>197.85714285714283</ele><time>2026-04-16T08:37:03.999Z</time></trkpt><trkpt lat="50.34760116482307" lon="4.555915289021879"><ele>197.57142857142858</ele><time>2026-04-16T08:37:04.999Z</time></trkpt><trkpt lat="50.347571773484766" lon="4.5560146883735175"><ele>197.28571428571428</ele><time>2026-04-16T08:37:05.999Z</time></trkpt><trkpt lat="50.34753570254573" lon="4.556133390197256"><ele>197.0</ele><time>2026-04-16T08:37:06.999Z</time></trkpt><trkpt lat="50.347501415681435" lon="4.55625175113903"><ele>197.0</ele><time>2026-04-16T08:37:07.999Z</time></trkpt><trkpt lat="50.34746608508059" lon="4.556379643592588"><ele>197.0</ele><time>2026-04-16T08:37:08.999Z</time></trkpt><trkpt lat="50.34742844721244" lon="4.556513675420846"><ele>197.0</ele><time>2026-04-16T08:37:09.999Z</time></trkpt><trkpt lat="50.34738992514947" lon="4.556643327349307"><ele>197.0</ele><time>2026-04-16T08:37:10.999Z</time></trkpt><trkpt lat="50.34734976263386" lon="4.556771104466837"><ele>197.0</ele><time>2026-04-16T08:37:11.999Z</time></trkpt><trkpt lat="50.34731027296478" lon="4.556900129820821"><ele>197.00000000000003</ele><time>2026-04-16T08:37:12.999Z</time></trkpt><trkpt lat="50.34727131248316" lon="4.557022667826256"><ele>197.0</ele><time>2026-04-16T08:37:13.999Z</time></trkpt><trkpt lat="50.34723245553367" lon="4.557138643384629"><ele>197.0</ele><time>2026-04-16T08:37:14.999Z</time></trkpt><trkpt lat="50.34718932337985" lon="4.55724575317832"><ele>197.0</ele><time>2026-04-16T08:37:15.999Z</time></trkpt><trkpt lat="50.34714116701323" lon="4.557338163951475"><ele>197.00000000000003</ele><time>2026-04-16T08:37:16.999Z</time></trkpt><trkpt lat="50.3470889645841" lon="4.557434415262623"><ele>197.0</ele><time>2026-04-16T08:37:17.999Z</time></trkpt><trkpt lat="50.347033442760946" lon="4.557531295373575"><ele>197.66666666666669</ele><time>2026-04-16T08:37:18.999Z</time></trkpt><trkpt lat="50.34698613089732" lon="4.557613730638644"><ele>198.33333333333334</ele><time>2026-04-16T08:37:19.999Z</time></trkpt><trkpt lat="50.34693676739189" lon="4.557678339387281"><ele>199.0</ele><time>2026-04-16T08:37:20.999Z</time></trkpt><trkpt lat="50.34688502091931" lon="4.557746710891038"><ele>199.66666666666669</ele><time>2026-04-16T08:37:21.999Z</time></trkpt><trkpt lat="50.346794926021" lon="4.557878054505836"><ele>200.33333333333334</ele><time>2026-04-16T08:37:23.999Z</time></trkpt><trkpt lat="50.3467127477917" lon="4.557991901888895"><ele>201.0</ele><time>2026-04-16T08:37:25.999Z</time></trkpt><trkpt lat="50.34662487507398" lon="4.558067341622014"><ele>201.0</ele><time>2026-04-16T08:37:27.999Z</time></trkpt><trkpt lat="50.34654280101763" lon="4.558106484138308"><ele>201.0</ele><time>2026-04-16T08:37:29.999Z</time></trkpt><trkpt lat="50.34645538422339" lon="4.558163363653252"><ele>201.0</ele><time>2026-04-16T08:37:31.999Z</time></trkpt><trkpt lat="50.34639290672739" lon="4.558194177041295"><ele>201.0</ele><time>2026-04-16T08:37:32.999Z</time></trkpt><trkpt lat="50.34632585170274" lon="4.558192070706151"><ele>201.0</ele><time>2026-04-16T08:37:33.999Z</time></trkpt><trkpt lat="50.346221140831375" lon="4.5582230039103395"><ele>201.0</ele><time>2026-04-16T08:37:35.999Z</time></trkpt><trkpt lat="50.34612514360714" lon="4.558269332313669"><ele>203.0</ele><time>2026-04-16T08:37:37.999Z</time></trkpt><trkpt lat="50.34602773127127" lon="4.55827288845041"><ele>205.0</ele><time>2026-04-16T08:37:39.999Z</time></trkpt><trkpt lat="50.34592987415556" lon="4.5583527509583"><ele>207.0</ele><time>2026-04-16T08:37:41.999Z</time></trkpt><trkpt lat="50.34584885648194" lon="4.558401341815145"><ele>209.0</ele><time>2026-04-16T08:37:43.999Z</time></trkpt><trkpt lat="50.345745033071196" lon="4.558399172458253"><ele>211.0</ele><time>2026-04-16T08:37:45.999Z</time></trkpt><trkpt lat="50.34565733656744" lon="4.558376021192356"><ele>211.0</ele><time>2026-04-16T08:37:48Z</time></trkpt><trkpt lat="50.34556889812788" lon="4.558409586976667"><ele>211.0</ele><time>2026-04-16T08:37:50Z</time></trkpt><trkpt lat="50.345503252386656" lon="4.558418463708438"><ele>211.0</ele><time>2026-04-16T08:37:52Z</time></trkpt><trkpt lat="50.34547993800327" lon="4.558596713545328"><ele>211.0</ele><time>2026-04-16T08:37:53Z</time></trkpt><trkpt lat="50.34549942663595" lon="4.558768284691178"><ele>211.0</ele><time>2026-04-16T08:37:55Z</time></trkpt><trkpt lat="50.345520964046074" lon="4.5589610179674755"><ele>211.66666666666666</ele><time>2026-04-16T08:37:57Z</time></trkpt><trkpt lat="50.34553175247903" lon="4.55908089791773"><ele>212.33333333333331</ele><time>2026-04-16T08:37:58Z</time></trkpt><trkpt lat="50.34553446920754" lon="4.559201653958806"><ele>213.0</ele><time>2026-04-16T08:37:59Z</time></trkpt><trkpt lat="50.34553446920821" lon="4.559311107300191"><ele>213.66666666666669</ele><time>2026-04-16T08:38:00Z</time></trkpt><trkpt lat="50.34552628618359" lon="4.559420751954805"><ele>214.33333333333334</ele><time>2026-04-16T08:38:01Z</time></trkpt><trkpt lat="50.345519401719265" lon="4.559518893949077"><ele>215.0</ele><time>2026-04-16T08:38:02Z</time></trkpt><trkpt lat="50.3455184513431" lon="4.559670057114637"><ele>215.0</ele><time>2026-04-16T08:38:04Z</time></trkpt><trkpt lat="50.34548555819051" lon="4.559766649708857"><ele>215.0</ele><time>2026-04-16T08:38:07Z</time></trkpt><trkpt lat="50.34538147543074" lon="4.559672707968123"><ele>215.0</ele><time>2026-04-16T08:38:09Z</time></trkpt><trkpt lat="50.34531374067126" lon="4.559565770136932"><ele>215.0</ele><time>2026-04-16T08:38:11Z</time></trkpt><trkpt lat="50.34521122350372" lon="4.559406477971472"><ele>215.0</ele><time>2026-04-16T08:38:13Z</time></trkpt><trkpt lat="50.345146080327396" lon="4.5593098259564036"><ele>215.4</ele><time>2026-04-16T08:38:14Z</time></trkpt><trkpt lat="50.345086584217384" lon="4.559208891643101"><ele>215.8</ele><time>2026-04-16T08:38:15Z</time></trkpt><trkpt lat="50.345016590054136" lon="4.559065777079009"><ele>216.2</ele><time>2026-04-16T08:38:16Z</time></trkpt><trkpt lat="50.344958115920605" lon="4.558956898357523"><ele>216.6</ele><time>2026-04-16T08:38:17Z</time></trkpt><trkpt lat="50.34488552562678" lon="4.558854834475643"><ele>217.0</ele><time>2026-04-16T08:38:18Z</time></trkpt><trkpt lat="50.34482193073097" lon="4.558724804569275"><ele>217.0</ele><time>2026-04-16T08:38:19Z</time></trkpt><trkpt lat="50.344755752841344" lon="4.558550163138761"><ele>217.0</ele><time>2026-04-16T08:38:20Z</time></trkpt><trkpt lat="50.34469011812857" lon="4.558404230055065"><ele>217.0</ele><time>2026-04-16T08:38:21Z</time></trkpt><trkpt lat="50.344601340848804" lon="4.5582611041398025"><ele>217.0</ele><time>2026-04-16T08:38:22Z</time></trkpt><trkpt lat="50.34452539050805" lon="4.55812675913466"><ele>218.25</ele><time>2026-04-16T08:38:23Z</time></trkpt><trkpt lat="50.344452191472776" lon="4.55798626138743"><ele>219.5</ele><time>2026-04-16T08:38:24Z</time></trkpt><trkpt lat="50.34435948065431" lon="4.557855566663936"><ele>220.75</ele><time>2026-04-16T08:38:25Z</time></trkpt><trkpt lat="50.34427469099583" lon="4.557699162190629"><ele>222.0</ele><time>2026-04-16T08:38:26Z</time></trkpt><trkpt lat="50.34419124637951" lon="4.557586816601996"><ele>222.0</ele><time>2026-04-16T08:38:27Z</time></trkpt><trkpt lat="50.34410843941191" lon="4.557500535406578"><ele>222.0</ele><time>2026-04-16T08:38:28Z</time></trkpt><trkpt lat="50.34404739331136" lon="4.557376626919142"><ele>222.0</ele><time>2026-04-16T08:38:29Z</time></trkpt><trkpt lat="50.343986188262676" lon="4.557282410406949"><ele>222.0</ele><time>2026-04-16T08:38:30Z</time></trkpt><trkpt lat="50.343937563153645" lon="4.55719120181446"><ele>222.0</ele><time>2026-04-16T08:38:31Z</time></trkpt><trkpt lat="50.34389977510743" lon="4.5571031241211015"><ele>222.0</ele><time>2026-04-16T08:38:32Z</time></trkpt><trkpt lat="50.34387585004794" lon="4.557007673552209"><ele>224.8</ele><time>2026-04-16T08:38:33Z</time></trkpt><trkpt lat="50.343847340751175" lon="4.556884105629976"><ele>227.6</ele><time>2026-04-16T08:38:34Z</time></trkpt><trkpt lat="50.343818231333245" lon="4.5567237814207076"><ele>230.40000000000003</ele><time>2026-04-16T08:38:36Z</time></trkpt><trkpt lat="50.34379851675312" lon="4.556577776236995"><ele>233.20000000000002</ele><time>2026-04-16T08:38:38Z</time></trkpt><trkpt lat="50.343769036464856" lon="4.556407721322439"><ele>236.0</ele><time>2026-04-16T08:38:40Z</time></trkpt><trkpt lat="50.343762149981494" lon="4.556298068589788"><ele>236.0</ele><time>2026-04-16T08:38:43Z</time></trkpt><trkpt lat="50.34351792595646" lon="4.556365096230833"><ele>236.0</ele><time>2026-04-16T08:38:47Z</time></trkpt><trkpt lat="50.343405823902266" lon="4.556354597760283"><ele>236.0</ele><time>2026-04-16T08:38:48.999Z</time></trkpt><trkpt lat="50.34334181729828" lon="4.556367533946982"><ele>236.0</ele><time>2026-04-16T08:38:49.999Z</time></trkpt><trkpt lat="50.34326658540372" lon="4.556383779648669"><ele>236.0</ele><time>2026-04-16T08:38:50.999Z</time></trkpt><trkpt lat="50.343186657561574" lon="4.556402010749418"><ele>236.0</ele><time>2026-04-16T08:38:51.999Z</time></trkpt><trkpt lat="50.343105653006575" lon="4.556420657249669"><ele>236.0</ele><time>2026-04-16T08:38:52.999Z</time></trkpt><trkpt lat="50.343035144851754" lon="4.55642425304107"><ele>236.0</ele><time>2026-04-16T08:38:53.999Z</time></trkpt><trkpt lat="50.34297323961788" lon="4.556467040110205"><ele>236.0</ele><time>2026-04-16T08:38:54.999Z</time></trkpt><trkpt lat="50.34290976555839" lon="4.556481999126418"><ele>236.0</ele><time>2026-04-16T08:38:55.999Z</time></trkpt><trkpt lat="50.34283732852777" lon="4.556511071001669"><ele>236.0</ele><time>2026-04-16T08:38:56.999Z</time></trkpt><trkpt lat="50.34275753293942" lon="4.556536092978651"><ele>236.50000000000003</ele><time>2026-04-16T08:38:57.999Z</time></trkpt><trkpt lat="50.342669041991286" lon="4.5565665347321165"><ele>237.0</ele><time>2026-04-16T08:38:58.999Z</time></trkpt><trkpt lat="50.34258096939848" lon="4.556593603543577"><ele>237.5</ele><time>2026-04-16T08:38:59.999Z</time></trkpt><trkpt lat="50.34249408224928" lon="4.556591265635747"><ele>238.0</ele><time>2026-04-16T08:39:00.999Z</time></trkpt><trkpt lat="50.34242640488873" lon="4.5566370107167"><ele>238.50000000000003</ele><time>2026-04-16T08:39:01.999Z</time></trkpt><trkpt lat="50.34235991736631" lon="4.556652215848729"><ele>239.0</ele><time>2026-04-16T08:39:02.999Z</time></trkpt><trkpt lat="50.34228502230457" lon="4.556674913399171"><ele>239.28571428571433</ele><time>2026-04-16T08:39:04.999Z</time></trkpt><trkpt lat="50.34221268622097" lon="4.556691056914533"><ele>239.57142857142858</ele><time>2026-04-16T08:39:14.999Z</time></trkpt><trkpt lat="50.34214066502789" lon="4.556713848510024"><ele>239.8571428571429</ele><time>2026-04-16T08:39:18.999Z</time></trkpt><trkpt lat="50.34207646560463" lon="4.556723442813589"><ele>240.14285714285717</ele><time>2026-04-16T08:39:20.999Z</time></trkpt><trkpt lat="50.34199885671358" lon="4.556740282641253"><ele>240.42857142857144</ele><time>2026-04-16T08:39:22.999Z</time></trkpt><trkpt lat="50.34192975696774" lon="4.556771320078136"><ele>240.71428571428572</ele><time>2026-04-16T08:39:24.999Z</time></trkpt><trkpt lat="50.3418516708215" lon="4.556788122467181"><ele>241.0</ele><time>2026-04-16T08:39:28.999Z</time></trkpt><trkpt lat="50.34178547528696" lon="4.556814111924035"><ele>241.0</ele><time>2026-04-16T08:39:31.999Z</time></trkpt><trkpt lat="50.3417010910066" lon="4.556813498035425"><ele>241.00000000000003</ele><time>2026-04-16T08:39:39.999Z</time></trkpt><trkpt lat="50.34163633152066" lon="4.556804191635576"><ele>241.0</ele><time>2026-04-16T08:39:41.999Z</time></trkpt><trkpt lat="50.34156551583546" lon="4.556852735566094"><ele>241.0</ele><time>2026-04-16T08:39:43.999Z</time></trkpt><trkpt lat="50.34150107376348" lon="4.556849799445182"><ele>241.00000000000003</ele><time>2026-04-16T08:39:44.999Z</time></trkpt><trkpt lat="50.341433093434425" lon="4.556872387829731"><ele>241.0</ele><time>2026-04-16T08:39:45.999Z</time></trkpt><trkpt lat="50.34136291534721" lon="4.556885065873657"><ele>241.0</ele><time>2026-04-16T08:39:46.999Z</time></trkpt><trkpt lat="50.34126138896378" lon="4.556913775227231"><ele>241.99999999999997</ele><time>2026-04-16T08:39:48.999Z</time></trkpt><trkpt lat="50.3411952334537" lon="4.556940887051141"><ele>243.0</ele><time>2026-04-16T08:39:50.999Z</time></trkpt><trkpt lat="50.3411151036876" lon="4.556963237366014"><ele>244.0</ele><time>2026-04-16T08:39:53Z</time></trkpt><trkpt lat="50.341047459423784" lon="4.55696021002309"><ele>245.0</ele><time>2026-04-16T08:39:55Z</time></trkpt><trkpt lat="50.340987889372165" lon="4.556880514959921"><ele>245.99999999999997</ele><time>2026-04-16T08:40:00Z</time></trkpt><trkpt lat="50.34096429258435" lon="4.556745672101169"><ele>247.0</ele><time>2026-04-16T08:40:03Z</time></trkpt><trkpt lat="50.340928722402026" lon="4.556606715463632"><ele>246.99999999999997</ele><time>2026-04-16T08:40:05Z</time></trkpt><trkpt lat="50.34092550372951" lon="4.556468729459913"><ele>247.0</ele><time>2026-04-16T08:40:07Z</time></trkpt><trkpt lat="50.340920109638255" lon="4.556364532732115"><ele>247.0</ele><time>2026-04-16T08:40:09Z</time></trkpt><trkpt lat="50.34090159515156" lon="4.556268973443337"><ele>247.0</ele><time>2026-04-16T08:40:11Z</time></trkpt><trkpt lat="50.34090492094457" lon="4.556164558146525"><ele>246.99999999999997</ele><time>2026-04-16T08:40:13Z</time></trkpt><trkpt lat="50.34083489163995" lon="4.5560914165858915"><ele>247.0</ele><time>2026-04-16T08:40:17Z</time></trkpt><trkpt lat="50.3407343275932" lon="4.556143475653237"><ele>246.99999999999997</ele><time>2026-04-16T08:40:19Z</time></trkpt><trkpt lat="50.340615827141015" lon="4.556182865580783"><ele>247.0</ele><time>2026-04-16T08:40:21Z</time></trkpt><trkpt lat="50.340547795761445" lon="4.55619542164134"><ele>247.0</ele><time>2026-04-16T08:40:22Z</time></trkpt><trkpt lat="50.34047860946042" lon="4.5562166475281805"><ele>247.0</ele><time>2026-04-16T08:40:23Z</time></trkpt><trkpt lat="50.34040310171805" lon="4.556207398320336"><ele>246.99999999999997</ele><time>2026-04-16T08:40:24Z</time></trkpt><trkpt lat="50.340336343256865" lon="4.556222427964648"><ele>247.0</ele><time>2026-04-16T08:40:25Z</time></trkpt><trkpt lat="50.34027610306988" lon="4.556257565810708"><ele>247.33333333333331</ele><time>2026-04-16T08:40:26Z</time></trkpt><trkpt lat="50.340202905863116" lon="4.5562618394541206"><ele>247.66666666666666</ele><time>2026-04-16T08:40:27Z</time></trkpt><trkpt lat="50.34013559104808" lon="4.556277519322779"><ele>248.0</ele><time>2026-04-16T08:40:28Z</time></trkpt><trkpt lat="50.340048643285286" lon="4.556356647164772"><ele>248.33333333333331</ele><time>2026-04-16T08:40:30Z</time></trkpt><trkpt lat="50.33998272940538" lon="4.556334412971581"><ele>248.66666666666666</ele><time>2026-04-16T08:42:33Z</time></trkpt><trkpt lat="50.33990867033564" lon="4.556383647988125"><ele>249.0</ele><time>2026-04-16T08:42:36Z</time></trkpt><trkpt lat="50.33980704135348" lon="4.55639685295473"><ele>249.0</ele><time>2026-04-16T08:42:38Z</time></trkpt><trkpt lat="50.33972635114331" lon="4.556450869047231"><ele>248.99999999999997</ele><time>2026-04-16T08:42:40Z</time></trkpt><trkpt lat="50.33966492289449" lon="4.556493473032022"><ele>248.99999999999997</ele><time>2026-04-16T08:42:42Z</time></trkpt><trkpt lat="50.339575617949734" lon="4.556536394390118"><ele>249.0</ele><time>2026-04-16T08:42:44Z</time></trkpt><trkpt lat="50.33971170619785" lon="4.556437947653765"><ele>249.0</ele><time>2026-04-16T08:44:24Z</time></trkpt><trkpt lat="50.33977999172022" lon="4.556420637850441"><ele>249.0</ele><time>2026-04-16T08:44:28Z</time></trkpt><trkpt lat="50.339842701028125" lon="4.55640544141898"><ele>249.0</ele><time>2026-04-16T08:44:31Z</time></trkpt><trkpt lat="50.33993952447539" lon="4.556354152636069"><ele>249.0</ele><time>2026-04-16T08:44:34Z</time></trkpt><trkpt lat="50.340010883389624" lon="4.556321204468467"><ele>249.0</ele><time>2026-04-16T08:44:36Z</time></trkpt><trkpt lat="50.3401108111688" lon="4.556293395760533"><ele>249.0</ele><time>2026-04-16T08:44:38Z</time></trkpt><trkpt lat="50.34021216027075" lon="4.556273916464516"><ele>249.0</ele><time>2026-04-16T08:44:40Z</time></trkpt><trkpt lat="50.34028958363755" lon="4.55624390842331"><ele>248.66666666666666</ele><time>2026-04-16T08:44:42Z</time></trkpt><trkpt lat="50.340345229902546" lon="4.556194931315883"><ele>248.33333333333331</ele><time>2026-04-16T08:44:44Z</time></trkpt><trkpt lat="50.34041740032457" lon="4.556151324655554"><ele>248.0</ele><time>2026-04-16T08:44:46Z</time></trkpt><trkpt lat="50.34050793199523" lon="4.556126298334075"><ele>247.66666666666666</ele><time>2026-04-16T08:44:48Z</time></trkpt><trkpt lat="50.340607025316004" lon="4.556105401163183"><ele>247.33333333333331</ele><time>2026-04-16T08:44:50Z</time></trkpt><trkpt lat="50.34067779535049" lon="4.556008986750388"><ele>247.0</ele><time>2026-04-16T08:44:53Z</time></trkpt><trkpt lat="50.34079247715321" lon="4.555999776247377"><ele>247.0</ele><time>2026-04-16T08:44:55Z</time></trkpt><trkpt lat="50.340860401659356" lon="4.556000452577343"><ele>247.0</ele><time>2026-04-16T08:44:56Z</time></trkpt><trkpt lat="50.3409200482438" lon="4.556032426114659"><ele>247.0</ele><time>2026-04-16T08:44:57Z</time></trkpt><trkpt lat="50.34097947938872" lon="4.555993142847579"><ele>247.0</ele><time>2026-04-16T08:44:59Z</time></trkpt><trkpt lat="50.34093116819151" lon="4.556071945191406"><ele>247.0</ele><time>2026-04-16T08:45:08.999Z</time></trkpt><trkpt lat="50.340890002562325" lon="4.556154365919119"><ele>247.0</ele><time>2026-04-16T08:45:13.999Z</time></trkpt><trkpt lat="50.340904792668894" lon="4.556255365718526"><ele>247.0</ele><time>2026-04-16T08:45:15.999Z</time></trkpt><trkpt lat="50.34091905925604" lon="4.556356769988268"><ele>246.99999999999997</ele><time>2026-04-16T08:45:18.999Z</time></trkpt><trkpt lat="50.340931899874846" lon="4.556484298209319"><ele>247.0</ele><time>2026-04-16T08:45:20.999Z</time></trkpt><trkpt lat="50.340986749099145" lon="4.556615054091579"><ele>247.0</ele><time>2026-04-16T08:45:23.999Z</time></trkpt><trkpt lat="50.340985478648946" lon="4.556733029877913"><ele>247.0</ele><time>2026-04-16T08:45:25.999Z</time></trkpt><trkpt lat="50.34102882994534" lon="4.556808358065428"><ele>246.99999999999997</ele><time>2026-04-16T08:45:28.999Z</time></trkpt><trkpt lat="50.34106515297854" lon="4.5568957554666945"><ele>247.0</ele><time>2026-04-16T08:45:32.999Z</time></trkpt><trkpt lat="50.34113035713433" lon="4.556899517686756"><ele>246.99999999999997</ele><time>2026-04-16T08:45:35.999Z</time></trkpt><trkpt lat="50.34120510232344" lon="4.556879032033475"><ele>247.0</ele><time>2026-04-16T08:45:37.999Z</time></trkpt><trkpt lat="50.34127168452158" lon="4.556874046909167"><ele>247.0</ele><time>2026-04-16T08:45:39.999Z</time></trkpt><trkpt lat="50.34135303070737" lon="4.556874211618524"><ele>247.0</ele><time>2026-04-16T08:45:41.999Z</time></trkpt><trkpt lat="50.34141869115316" lon="4.556841727928132"><ele>246.99999999999997</ele><time>2026-04-16T08:45:43.999Z</time></trkpt><trkpt lat="50.34148976736952" lon="4.556816462322744"><ele>247.0</ele><time>2026-04-16T08:45:45.999Z</time></trkpt><trkpt lat="50.341581616832194" lon="4.556802870715516"><ele>245.99999999999997</ele><time>2026-04-16T08:45:47.999Z</time></trkpt><trkpt lat="50.34166151125269" lon="4.556800946366782"><ele>245.0</ele><time>2026-04-16T08:45:49.999Z</time></trkpt><trkpt lat="50.341749532834136" lon="4.556795054075045"><ele>244.0</ele><time>2026-04-16T08:45:51.999Z</time></trkpt><trkpt lat="50.34181645904187" lon="4.556783237985803"><ele>243.0</ele><time>2026-04-16T08:45:53.999Z</time></trkpt><trkpt lat="50.34191030320472" lon="4.556716320102787"><ele>241.99999999999997</ele><time>2026-04-16T08:45:56.999Z</time></trkpt><trkpt lat="50.341997892253836" lon="4.5567286840258365"><ele>241.0</ele><time>2026-04-16T08:45:58.999Z</time></trkpt><trkpt lat="50.34206582131495" lon="4.556720197701424"><ele>240.99999999999997</ele><time>2026-04-16T08:46:00.999Z</time></trkpt><trkpt lat="50.3421677142639" lon="4.556679445876798"><ele>241.0</ele><time>2026-04-16T08:46:03.999Z</time></trkpt><trkpt lat="50.342248845771515" lon="4.556657772648994"><ele>241.0</ele><time>2026-04-16T08:46:06.999Z</time></trkpt><trkpt lat="50.342322287770365" lon="4.556646169777289"><ele>241.0</ele><time>2026-04-16T08:46:09.999Z</time></trkpt><trkpt lat="50.34238504353932" lon="4.556606545173793"><ele>240.99999999999997</ele><time>2026-04-16T08:46:12Z</time></trkpt><trkpt lat="50.34250455437174" lon="4.556589442702044"><ele>241.0</ele><time>2026-04-16T08:46:16Z</time></trkpt><trkpt lat="50.3425826066355" lon="4.55654998466697"><ele>240.5</ele><time>2026-04-16T08:46:18Z</time></trkpt><trkpt lat="50.34267153184991" lon="4.5565237436244885"><ele>240.0</ele><time>2026-04-16T08:46:20Z</time></trkpt><trkpt lat="50.34289356823458" lon="4.556481653188206"><ele>239.5</ele><time>2026-04-16T08:46:25Z</time></trkpt><trkpt lat="50.34299723739682" lon="4.556445551549312"><ele>239.0</ele><time>2026-04-16T08:46:27Z</time></trkpt><trkpt lat="50.34309252531024" lon="4.556427776277123"><ele>238.39999999999998</ele><time>2026-04-16T08:46:29Z</time></trkpt><trkpt lat="50.343201160679634" lon="4.556412026722383"><ele>237.79999999999998</ele><time>2026-04-16T08:46:31Z</time></trkpt><trkpt lat="50.34330534011804" lon="4.556380795493469"><ele>237.20000000000002</ele><time>2026-04-16T08:46:33Z</time></trkpt><trkpt lat="50.34337149534701" lon="4.55636732068747"><ele>236.60000000000002</ele><time>2026-04-16T08:46:34Z</time></trkpt><trkpt lat="50.34347141014781" lon="4.556336160110005"><ele>236.0</ele><time>2026-04-16T08:46:36Z</time></trkpt><trkpt lat="50.34355395076965" lon="4.556312989754268"><ele>236.00000000000003</ele><time>2026-04-16T08:46:38Z</time></trkpt><trkpt lat="50.34364045125447" lon="4.556311361449193"><ele>236.0</ele><time>2026-04-16T08:46:41Z</time></trkpt><trkpt lat="50.34370948526523" lon="4.5563212843686"><ele>236.0</ele><time>2026-04-16T08:46:48Z</time></trkpt><trkpt lat="50.34375559642182" lon="4.556470820722187"><ele>236.0</ele><time>2026-04-16T08:46:51Z</time></trkpt><trkpt lat="50.343757480891426" lon="4.556595185971081"><ele>236.00000000000003</ele><time>2026-04-16T08:46:53Z</time></trkpt><trkpt lat="50.34377471382153" lon="4.556739283047444"><ele>236.0</ele><time>2026-04-16T08:46:55Z</time></trkpt><trkpt lat="50.343789825719924" lon="4.556841125820987"><ele>236.00000000000003</ele><time>2026-04-16T08:46:56Z</time></trkpt><trkpt lat="50.34381184823943" lon="4.556940981556557"><ele>236.0</ele><time>2026-04-16T08:46:57Z</time></trkpt><trkpt lat="50.343862943374894" lon="4.557107245052202"><ele>236.0</ele><time>2026-04-16T08:46:59Z</time></trkpt><trkpt lat="50.34395156027098" lon="4.557241149500859"><ele>236.0</ele><time>2026-04-16T08:47:01Z</time></trkpt><trkpt lat="50.343988839127825" lon="4.557326518689559"><ele>236.00000000000003</ele><time>2026-04-16T08:47:02Z</time></trkpt><trkpt lat="50.344033793981055" lon="4.5574077308586105"><ele>236.0</ele><time>2026-04-16T08:47:03Z</time></trkpt><trkpt lat="50.344088031625205" lon="4.5574851130942475"><ele>234.85714285714283</ele><time>2026-04-16T08:47:04Z</time></trkpt><trkpt lat="50.34414580238883" lon="4.5575566642662135"><ele>233.71428571428572</ele><time>2026-04-16T08:47:05Z</time></trkpt><trkpt lat="50.34419992088834" lon="4.55763077313879"><ele>232.57142857142856</ele><time>2026-04-16T08:47:06Z</time></trkpt><trkpt lat="50.344251086359684" lon="4.5577054403665755"><ele>231.42857142857142</ele><time>2026-04-16T08:47:07Z</time></trkpt><trkpt lat="50.34430486420682" lon="4.557783656129186"><ele>230.28571428571428</ele><time>2026-04-16T08:47:08Z</time></trkpt><trkpt lat="50.34435781608951" lon="4.557863512660406"><ele>229.14285714285714</ele><time>2026-04-16T08:47:09Z</time></trkpt><trkpt lat="50.34439670047036" lon="4.557961490059147"><ele>228.0</ele><time>2026-04-16T08:47:09.999Z</time></trkpt><trkpt lat="50.344457324942375" lon="4.558028054452482"><ele>228.0</ele><time>2026-04-16T08:47:10.999Z</time></trkpt><trkpt lat="50.34450892288656" lon="4.558119837102526"><ele>228.0</ele><time>2026-04-16T08:47:11.999Z</time></trkpt><trkpt lat="50.3445536467575" lon="4.55820802865049"><ele>228.0</ele><time>2026-04-16T08:47:12.999Z</time></trkpt><trkpt lat="50.344600691407614" lon="4.558297164672298"><ele>228.0</ele><time>2026-04-16T08:47:13.999Z</time></trkpt><trkpt lat="50.34464738024073" lon="4.558393367042966"><ele>228.0</ele><time>2026-04-16T08:47:14.999Z</time></trkpt><trkpt lat="50.344697620473134" lon="4.558489748028156"><ele>228.0</ele><time>2026-04-16T08:47:15.999Z</time></trkpt><trkpt lat="50.34474620103156" lon="4.558575157788944"><ele>226.16666666666666</ele><time>2026-04-16T08:47:16.999Z</time></trkpt><trkpt lat="50.34477792930483" lon="4.558683308499252"><ele>224.33333333333331</ele><time>2026-04-16T08:47:17.999Z</time></trkpt><trkpt lat="50.34483231228119" lon="4.558760500030966"><ele>222.5</ele><time>2026-04-16T08:47:18.999Z</time></trkpt><trkpt lat="50.344863930762266" lon="4.558859494194361"><ele>220.66666666666666</ele><time>2026-04-16T08:47:19.999Z</time></trkpt><trkpt lat="50.3449078553218" lon="4.558944250179532"><ele>218.83333333333331</ele><time>2026-04-16T08:47:20.999Z</time></trkpt><trkpt lat="50.34499103452671" lon="4.559085933519183"><ele>217.0</ele><time>2026-04-16T08:47:22.999Z</time></trkpt><trkpt lat="50.34506040770742" lon="4.559213689632021"><ele>217.0</ele><time>2026-04-16T08:47:24.999Z</time></trkpt><trkpt lat="50.34513659630869" lon="4.559344923246218"><ele>217.0</ele><time>2026-04-16T08:47:26.999Z</time></trkpt><trkpt lat="50.3452080747362" lon="4.5594683711340185"><ele>217.0</ele><time>2026-04-16T08:47:28.999Z</time></trkpt><trkpt lat="50.34528191915342" lon="4.559580436244763"><ele>217.0</ele><time>2026-04-16T08:47:30.999Z</time></trkpt><trkpt lat="50.34535183698396" lon="4.559675857473287"><ele>217.0</ele><time>2026-04-16T08:47:32.999Z</time></trkpt><trkpt lat="50.34541300159443" lon="4.559764561032316"><ele>216.6</ele><time>2026-04-16T08:47:34.999Z</time></trkpt><trkpt lat="50.345453943927964" lon="4.559856943872057"><ele>216.2</ele><time>2026-04-16T08:47:36.999Z</time></trkpt><trkpt lat="50.345543276371565" lon="4.559652142251409"><ele>215.8</ele><time>2026-04-16T08:47:39.999Z</time></trkpt><trkpt lat="50.34555591361437" lon="4.559497998421473"><ele>215.4</ele><time>2026-04-16T08:47:41.999Z</time></trkpt><trkpt lat="50.34556689564252" lon="4.559397718307212"><ele>215.0</ele><time>2026-04-16T08:47:42.999Z</time></trkpt><trkpt lat="50.3455677307892" lon="4.559289988066941"><ele>214.8</ele><time>2026-04-16T08:47:44.999Z</time></trkpt><trkpt lat="50.34556863384302" lon="4.559115060017537"><ele>214.6</ele><time>2026-04-16T08:47:46.999Z</time></trkpt><trkpt lat="50.34554142289815" lon="4.558948862842232"><ele>214.39999999999998</ele><time>2026-04-16T08:47:48.999Z</time></trkpt><trkpt lat="50.34553489303463" lon="4.55878231927384"><ele>214.2</ele><time>2026-04-16T08:47:50.999Z</time></trkpt><trkpt lat="50.345503632999424" lon="4.558658547174208"><ele>214.0</ele><time>2026-04-16T08:47:52.999Z</time></trkpt><trkpt lat="50.34550354066902" lon="4.558521044451885"><ele>213.39999999999998</ele><time>2026-04-16T08:47:54.999Z</time></trkpt><trkpt lat="50.34557142283442" lon="4.558452467079548"><ele>212.79999999999998</ele><time>2026-04-16T08:47:56.999Z</time></trkpt><trkpt lat="50.34567217455725" lon="4.558406161642341"><ele>212.2</ele><time>2026-04-16T08:47:58.999Z</time></trkpt><trkpt lat="50.34576609728658" lon="4.558398840407739"><ele>211.60000000000002</ele><time>2026-04-16T08:48:00.999Z</time></trkpt><trkpt lat="50.34587468487793" lon="4.5583279717209555"><ele>211.0</ele><time>2026-04-16T08:48:02.999Z</time></trkpt><trkpt lat="50.34597602648007" lon="4.558295621059984"><ele>211.0</ele><time>2026-04-16T08:48:04.999Z</time></trkpt><trkpt lat="50.34607008568194" lon="4.558235384843241"><ele>211.0</ele><time>2026-04-16T08:48:06.999Z</time></trkpt><trkpt lat="50.3461800637199" lon="4.558215625768505"><ele>211.0</ele><time>2026-04-16T08:48:08.999Z</time></trkpt><trkpt lat="50.34626369203381" lon="4.558172971243619"><ele>211.0</ele><time>2026-04-16T08:48:10.999Z</time></trkpt><trkpt lat="50.34638401545853" lon="4.558138250312219"><ele>211.0</ele><time>2026-04-16T08:48:12.999Z</time></trkpt><trkpt lat="50.34648773323815" lon="4.558120520831283"><ele>209.0</ele><time>2026-04-16T08:48:14.999Z</time></trkpt><trkpt lat="50.34658710156935" lon="4.558052580106247"><ele>207.0</ele><time>2026-04-16T08:48:17Z</time></trkpt><trkpt lat="50.34667023781676" lon="4.557987556626953"><ele>205.0</ele><time>2026-04-16T08:48:19Z</time></trkpt><trkpt lat="50.346747294872166" lon="4.557900152063882"><ele>203.0</ele><time>2026-04-16T08:48:21Z</time></trkpt><trkpt lat="50.34683369314933" lon="4.557791003715143"><ele>201.0</ele><time>2026-04-16T08:48:23Z</time></trkpt><trkpt lat="50.346923311593955" lon="4.557658993787885"><ele>201.0</ele><time>2026-04-16T08:48:25Z</time></trkpt><trkpt lat="50.34697357770702" lon="4.557586943909041"><ele>201.0</ele><time>2026-04-16T08:48:26Z</time></trkpt><trkpt lat="50.34702128570344" lon="4.55751912187478"><ele>201.0</ele><time>2026-04-16T08:48:27Z</time></trkpt><trkpt lat="50.34706771572109" lon="4.557440830226581"><ele>201.0</ele><time>2026-04-16T08:48:28Z</time></trkpt><trkpt lat="50.34711558327896" lon="4.557358085532189"><ele>201.0</ele><time>2026-04-16T08:48:29Z</time></trkpt><trkpt lat="50.3471897835777" lon="4.55721976489484"><ele>201.0</ele><time>2026-04-16T08:48:31Z</time></trkpt><trkpt lat="50.34722902001889" lon="4.557120647834001"><ele>200.33333333333334</ele><time>2026-04-16T08:48:32Z</time></trkpt><trkpt lat="50.34726903784677" lon="4.557007906410706"><ele>199.66666666666669</ele><time>2026-04-16T08:48:33Z</time></trkpt><trkpt lat="50.34730800755481" lon="4.556889224860238"><ele>199.0</ele><time>2026-04-16T08:48:34Z</time></trkpt><trkpt lat="50.34734607427156" lon="4.556770638632465"><ele>198.33333333333334</ele><time>2026-04-16T08:48:35Z</time></trkpt><trkpt lat="50.347381256031575" lon="4.556656798241813"><ele>197.66666666666669</ele><time>2026-04-16T08:48:36Z</time></trkpt><trkpt lat="50.347414480258564" lon="4.556542877869622"><ele>197.0</ele><time>2026-04-16T08:48:37Z</time></trkpt><trkpt lat="50.34744641857939" lon="4.556429107078999"><ele>197.00000000000003</ele><time>2026-04-16T08:48:38Z</time></trkpt><trkpt lat="50.34747898251445" lon="4.55631019892832"><ele>197.0</ele><time>2026-04-16T08:48:39Z</time></trkpt><trkpt lat="50.34750525397934" lon="4.556201798552623"><ele>197.0</ele><time>2026-04-16T08:48:40Z</time></trkpt><trkpt lat="50.347532082616674" lon="4.556090600404995"><ele>197.0</ele><time>2026-04-16T08:48:41Z</time></trkpt><trkpt lat="50.34756263245381" lon="4.555985750327983"><ele>197.00000000000003</ele><time>2026-04-16T08:48:42Z</time></trkpt><trkpt lat="50.34759204963805" lon="4.5558872236104575"><ele>197.0</ele><time>2026-04-16T08:48:43Z</time></trkpt><trkpt lat="50.34762476466154" lon="4.555777285876456"><ele>197.00000000000003</ele><time>2026-04-16T08:48:44Z</time></trkpt><trkpt lat="50.347647875345146" lon="4.555681526865875"><ele>197.0</ele><time>2026-04-16T08:48:45Z</time></trkpt><trkpt lat="50.34767355419443" lon="4.555572971818908"><ele>197.0</ele><time>2026-04-16T08:48:46Z</time></trkpt><trkpt lat="50.34769881265416" lon="4.555470032136049"><ele>197.0</ele><time>2026-04-16T08:48:47Z</time></trkpt><trkpt lat="50.347733854161135" lon="4.5553094703835075"><ele>197.00000000000003</ele><time>2026-04-16T08:48:49Z</time></trkpt><trkpt lat="50.34775854331141" lon="4.555202830520409"><ele>197.0</ele><time>2026-04-16T08:48:50Z</time></trkpt><trkpt lat="50.347791743423144" lon="4.555085644669546"><ele>197.33333333333334</ele><time>2026-04-16T08:48:51Z</time></trkpt><trkpt lat="50.34782618742852" lon="4.554968057905418"><ele>197.66666666666669</ele><time>2026-04-16T08:48:52Z</time></trkpt><trkpt lat="50.347851303262495" lon="4.554854246674194"><ele>198.0</ele><time>2026-04-16T08:48:53Z</time></trkpt><trkpt lat="50.34787512536286" lon="4.55473319555942"><ele>198.33333333333331</ele><time>2026-04-16T08:48:54Z</time></trkpt><trkpt lat="50.347898858104756" lon="4.554614638834417"><ele>198.66666666666666</ele><time>2026-04-16T08:48:55Z</time></trkpt><trkpt lat="50.347924344181884" lon="4.55450555392503"><ele>199.0</ele><time>2026-04-16T08:48:56Z</time></trkpt><trkpt lat="50.347952409275024" lon="4.554393154616765"><ele>198.99999999999997</ele><time>2026-04-16T08:48:57Z</time></trkpt><trkpt lat="50.34797917395186" lon="4.554279622917988"><ele>199.0</ele><time>2026-04-16T08:48:58Z</time></trkpt><trkpt lat="50.34800770438731" lon="4.554176837616686"><ele>199.0</ele><time>2026-04-16T08:48:59Z</time></trkpt><trkpt lat="50.348036800564024" lon="4.554065595616528"><ele>199.0</ele><time>2026-04-16T08:49:00Z</time></trkpt><trkpt lat="50.34806578852202" lon="4.553946473645157"><ele>198.99999999999997</ele><time>2026-04-16T08:49:01Z</time></trkpt><trkpt lat="50.34809387097004" lon="4.553827438368042"><ele>199.0</ele><time>2026-04-16T08:49:02Z</time></trkpt><trkpt lat="50.34811998142034" lon="4.553721505307419"><ele>198.49999999999997</ele><time>2026-04-16T08:49:03Z</time></trkpt><trkpt lat="50.34814003861157" lon="4.5536264610530885"><ele>198.0</ele><time>2026-04-16T08:49:04Z</time></trkpt><trkpt lat="50.34816750717379" lon="4.553522251563953"><ele>197.5</ele><time>2026-04-16T08:49:05Z</time></trkpt><trkpt lat="50.34819692078123" lon="4.553407908158317"><ele>197.0</ele><time>2026-04-16T08:49:06Z</time></trkpt><trkpt lat="50.34822569289259" lon="4.5532887963627315"><ele>196.49999999999997</ele><time>2026-04-16T08:49:07Z</time></trkpt><trkpt lat="50.34825543818058" lon="4.553171827382599"><ele>196.0</ele><time>2026-04-16T08:49:08Z</time></trkpt><trkpt lat="50.348283495317624" lon="4.553051580442029"><ele>195.99999999999997</ele><time>2026-04-16T08:49:09Z</time></trkpt><trkpt lat="50.3483135993607" lon="4.5529380752459385"><ele>196.0</ele><time>2026-04-16T08:49:10Z</time></trkpt><trkpt lat="50.348341589945164" lon="4.5528204392382925"><ele>196.0</ele><time>2026-04-16T08:49:11Z</time></trkpt><trkpt lat="50.348366907765104" lon="4.552712009227598"><ele>196.0</ele><time>2026-04-16T08:49:12Z</time></trkpt><trkpt lat="50.348396401809296" lon="4.552597014484615"><ele>195.99999999999997</ele><time>2026-04-16T08:49:12.999Z</time></trkpt><trkpt lat="50.348421912871025" lon="4.552472487778884"><ele>196.0</ele><time>2026-04-16T08:49:13.999Z</time></trkpt><trkpt lat="50.34845133680623" lon="4.552369522734511"><ele>195.99999999999997</ele><time>2026-04-16T08:49:14.999Z</time></trkpt><trkpt lat="50.348476294566765" lon="4.552262501889147"><ele>196.0</ele><time>2026-04-16T08:49:15.999Z</time></trkpt><trkpt lat="50.348502422856654" lon="4.55215467807244"><ele>196.0</ele><time>2026-04-16T08:49:16.999Z</time></trkpt><trkpt lat="50.34852458883882" lon="4.5520620528341"><ele>196.0</ele><time>2026-04-16T08:49:17.999Z</time></trkpt><trkpt lat="50.34856936982156" lon="4.5518807089767845"><ele>195.99999999999997</ele><time>2026-04-16T08:49:19.999Z</time></trkpt><trkpt lat="50.34859394918234" lon="4.551779718829246"><ele>196.0</ele><time>2026-04-16T08:49:20.999Z</time></trkpt><trkpt lat="50.34861812584994" lon="4.551686939449694"><ele>195.99999999999997</ele><time>2026-04-16T08:49:21.999Z</time></trkpt><trkpt lat="50.34864181184985" lon="4.551588829644614"><ele>196.0</ele><time>2026-04-16T08:49:22.999Z</time></trkpt><trkpt lat="50.34866719798393" lon="4.551495369437089"><ele>196.0</ele><time>2026-04-16T08:49:23.999Z</time></trkpt><trkpt lat="50.3486916901957" lon="4.551399891864711"><ele>196.0</ele><time>2026-04-16T08:49:24.999Z</time></trkpt><trkpt lat="50.34871327438616" lon="4.55130440151608"><ele>195.99999999999997</ele><time>2026-04-16T08:49:25.999Z</time></trkpt><trkpt lat="50.348761325317405" lon="4.551128517508481"><ele>196.0</ele><time>2026-04-16T08:49:27.999Z</time></trkpt><trkpt lat="50.34880652992412" lon="4.550940244246559"><ele>195.66666666666666</ele><time>2026-04-16T08:49:29.999Z</time></trkpt><trkpt lat="50.34883164287854" lon="4.550843666583535"><ele>195.33333333333331</ele><time>2026-04-16T08:49:30.999Z</time></trkpt><trkpt lat="50.34886091522281" lon="4.5507367251175"><ele>195.0</ele><time>2026-04-16T08:49:31.999Z</time></trkpt><trkpt lat="50.34888588556799" lon="4.550640921665536"><ele>194.66666666666669</ele><time>2026-04-16T08:49:32.999Z</time></trkpt><trkpt lat="50.34891946956212" lon="4.550477026602461"><ele>194.33333333333334</ele><time>2026-04-16T08:49:34.999Z</time></trkpt><trkpt lat="50.34896388192679" lon="4.550326207330334"><ele>194.0</ele><time>2026-04-16T08:49:36.999Z</time></trkpt><trkpt lat="50.34900143795865" lon="4.550180400698441"><ele>193.39999999999998</ele><time>2026-04-16T08:49:38.999Z</time></trkpt><trkpt lat="50.34904894566307" lon="4.550051001627323"><ele>192.8</ele><time>2026-04-16T08:49:40.999Z</time></trkpt><trkpt lat="50.34910496836588" lon="4.5499327901263"><ele>192.2</ele><time>2026-04-16T08:49:42.999Z</time></trkpt><trkpt lat="50.349158696524995" lon="4.549863515591429"><ele>191.60000000000002</ele><time>2026-04-16T08:49:44.999Z</time></trkpt><trkpt lat="50.34924284130817" lon="4.549801452418199"><ele>191.0</ele><time>2026-04-16T08:49:46.999Z</time></trkpt><trkpt lat="50.34932993944213" lon="4.549726897039285"><ele>191.0</ele><time>2026-04-16T08:49:48.999Z</time></trkpt><trkpt lat="50.349418097359425" lon="4.549678372150944"><ele>191.0</ele><time>2026-04-16T08:49:50.999Z</time></trkpt><trkpt lat="50.34949745011495" lon="4.549648094308288"><ele>191.0</ele><time>2026-04-16T08:49:52.999Z</time></trkpt><trkpt lat="50.34952970646095" lon="4.549775173206981"><ele>191.0</ele><time>2026-04-16T08:49:53.999Z</time></trkpt><trkpt lat="50.349573590348406" lon="4.549945676648053"><ele>191.0</ele><time>2026-04-16T08:49:55.999Z</time></trkpt><trkpt lat="50.34961848251901" lon="4.550109330944312"><ele>191.0</ele><time>2026-04-16T08:49:57.999Z</time></trkpt><trkpt lat="50.34971108083335" lon="4.550198708576247"><ele>191.0</ele><time>2026-04-16T08:49:59.999Z</time></trkpt><trkpt lat="50.34982276609843" lon="4.550220080087149"><ele>191.0</ele><time>2026-04-16T08:50:01.999Z</time></trkpt><trkpt lat="50.349888382912" lon="4.550229488273436"><ele>191.0</ele><time>2026-04-16T08:50:02.999Z</time></trkpt><trkpt lat="50.34995857079828" lon="4.550231635715134"><ele>191.0</ele><time>2026-04-16T08:50:03.999Z</time></trkpt><trkpt lat="50.35002790506755" lon="4.55023976912264"><ele>191.0</ele><time>2026-04-16T08:50:04.999Z</time></trkpt><trkpt lat="50.35015862096809" lon="4.5502508703605935"><ele>191.0</ele><time>2026-04-16T08:50:06.999Z</time></trkpt><trkpt lat="50.35023224676818" lon="4.5502588703251075"><ele>191.0</ele><time>2026-04-16T08:50:07.999Z</time></trkpt><trkpt lat="50.35031052697833" lon="4.550269088893948"><ele>191.0</ele><time>2026-04-16T08:50:08.999Z</time></trkpt><trkpt lat="50.35039285918433" lon="4.550282266881985"><ele>191.0</ele><time>2026-04-16T08:50:09.999Z</time></trkpt><trkpt lat="50.350463341247796" lon="4.550280176469348"><ele>191.0</ele><time>2026-04-16T08:50:10.999Z</time></trkpt><trkpt lat="50.35052903324224" lon="4.550279758013677"><ele>191.0</ele><time>2026-04-16T08:50:11.999Z</time></trkpt><trkpt lat="50.350656925182186" lon="4.550300672302161"><ele>190.60000000000002</ele><time>2026-04-16T08:50:13.999Z</time></trkpt><trkpt lat="50.350756771453" lon="4.550182469499906"><ele>190.2</ele><time>2026-04-16T08:50:15.999Z</time></trkpt><trkpt lat="50.35081259143423" lon="4.55005924255461"><ele>189.8</ele><time>2026-04-16T08:50:17.999Z</time></trkpt><trkpt lat="50.35088646848961" lon="4.549939871902455"><ele>189.39999999999998</ele><time>2026-04-16T08:50:19.999Z</time></trkpt><trkpt lat="50.35095070907432" lon="4.549798330467354"><ele>189.0</ele><time>2026-04-16T08:50:21.999Z</time></trkpt><trkpt lat="50.35101477780933" lon="4.549671652587857"><ele>188.75</ele><time>2026-04-16T08:50:24Z</time></trkpt><trkpt lat="50.35103781481521" lon="4.549507671647543"><ele>188.5</ele><time>2026-04-16T08:50:26Z</time></trkpt><trkpt lat="50.35105442886249" lon="4.549319544184067"><ele>188.25</ele><time>2026-04-16T08:50:28Z</time></trkpt><trkpt lat="50.35106702045495" lon="4.54914574232726"><ele>188.0</ele><time>2026-04-16T08:50:30Z</time></trkpt><trkpt lat="50.35106685172901" lon="4.548968425486007"><ele>188.0</ele><time>2026-04-16T08:50:32Z</time></trkpt><trkpt lat="50.351075104733724" lon="4.548810607471014"><ele>188.0</ele><time>2026-04-16T08:50:34Z</time></trkpt><trkpt lat="50.35108029370705" lon="4.548673612945803"><ele>188.0</ele><time>2026-04-16T08:50:36Z</time></trkpt><trkpt lat="50.351094082555484" lon="4.548539732176031"><ele>188.0</ele><time>2026-04-16T08:50:38Z</time></trkpt><trkpt lat="50.3510712207464" lon="4.548404743883747"><ele>188.0</ele><time>2026-04-16T08:50:40Z</time></trkpt><trkpt lat="50.35104729981097" lon="4.548281654031888"><ele>188.0</ele><time>2026-04-16T08:50:42Z</time></trkpt><trkpt lat="50.35101379534317" lon="4.54817939515581"><ele>187.83333333333331</ele><time>2026-04-16T08:50:44Z</time></trkpt><trkpt lat="50.35104295939419" lon="4.548061753510867"><ele>187.66666666666666</ele><time>2026-04-16T08:50:46Z</time></trkpt><trkpt lat="50.35116134984099" lon="4.548071767794847"><ele>187.5</ele><time>2026-04-16T08:50:48Z</time></trkpt><trkpt lat="50.35122470438019" lon="4.548065118438672"><ele>187.33333333333334</ele><time>2026-04-16T08:50:49Z</time></trkpt><trkpt lat="50.35133199299456" lon="4.548096811496097"><ele>187.16666666666669</ele><time>2026-04-16T08:50:51Z</time></trkpt><trkpt lat="50.351398511906986" lon="4.548111395229638"><ele>187.0</ele><time>2026-04-16T08:50:52Z</time></trkpt><trkpt lat="50.35147144945921" lon="4.5481258997727565"><ele>186.0</ele><time>2026-04-16T08:50:53Z</time></trkpt><trkpt lat="50.35154584131007" lon="4.548144188468709"><ele>185.0</ele><time>2026-04-16T08:50:54Z</time></trkpt><trkpt lat="50.351612701849696" lon="4.548157227961365"><ele>184.0</ele><time>2026-04-16T08:50:55Z</time></trkpt><trkpt lat="50.35167986835494" lon="4.548163039777594"><ele>183.0</ele><time>2026-04-16T08:50:56Z</time></trkpt><trkpt lat="50.351744302900165" lon="4.5481800691103516"><ele>182.0</ele><time>2026-04-16T08:50:57Z</time></trkpt><trkpt lat="50.35186348745311" lon="4.548210793148739"><ele>181.0</ele><time>2026-04-16T08:50:59Z</time></trkpt><trkpt lat="50.35192420806221" lon="4.548249334940232"><ele>181.0</ele><time>2026-04-16T08:51:00Z</time></trkpt><trkpt lat="50.35201184031051" lon="4.548403146734214"><ele>181.0</ele><time>2026-04-16T08:51:02Z</time></trkpt><trkpt lat="50.352057977494205" lon="4.54848545235085"><ele>181.0</ele><time>2026-04-16T08:51:03Z</time></trkpt><trkpt lat="50.35210658075986" lon="4.548560399740805"><ele>181.0</ele><time>2026-04-16T08:51:04Z</time></trkpt><trkpt lat="50.35216010263215" lon="4.548641678314087"><ele>181.0</ele><time>2026-04-16T08:51:05Z</time></trkpt><trkpt lat="50.352221276159085" lon="4.548719400993775"><ele>181.0</ele><time>2026-04-16T08:51:06Z</time></trkpt><trkpt lat="50.3522862356731" lon="4.548792360311198"><ele>181.85714285714286</ele><time>2026-04-16T08:51:07Z</time></trkpt><trkpt lat="50.35235314497646" lon="4.54885829250281"><ele>182.71428571428572</ele><time>2026-04-16T08:51:08Z</time></trkpt><trkpt lat="50.35241713973347" lon="4.548912073345416"><ele>183.57142857142856</ele><time>2026-04-16T08:51:09Z</time></trkpt><trkpt lat="50.35248127195271" lon="4.548943760491427"><ele>184.42857142857144</ele><time>2026-04-16T08:51:10Z</time></trkpt><trkpt lat="50.35254659479016" lon="4.548949318951514"><ele>185.2857142857143</ele><time>2026-04-16T08:51:11Z</time></trkpt><trkpt lat="50.352615023126454" lon="4.548959962161293"><ele>186.14285714285714</ele><time>2026-04-16T08:51:12Z</time></trkpt><trkpt lat="50.3526803434229" lon="4.548961200531679"><ele>187.0</ele><time>2026-04-16T08:51:13Z</time></trkpt><trkpt lat="50.35274200631129" lon="4.548982375016393"><ele>187.0</ele><time>2026-04-16T08:51:14Z</time></trkpt><trkpt lat="50.352808096912476" lon="4.548972772641903"><ele>187.0</ele><time>2026-04-16T08:51:15Z</time></trkpt><trkpt lat="50.352882549333174" lon="4.548960752296688"><ele>187.0</ele><time>2026-04-16T08:51:16Z</time></trkpt><trkpt lat="50.352957513514326" lon="4.548961392633078"><ele>187.0</ele><time>2026-04-16T08:51:17Z</time></trkpt><trkpt lat="50.35304593322346" lon="4.5489733534095524"><ele>187.0</ele><time>2026-04-16T08:51:18Z</time></trkpt><trkpt lat="50.35314280113126" lon="4.548964015779825"><ele>187.0</ele><time>2026-04-16T08:51:19Z</time></trkpt><trkpt lat="50.35323110503656" lon="4.548982026483416"><ele>187.6</ele><time>2026-04-16T08:51:20Z</time></trkpt><trkpt lat="50.353320798532586" lon="4.549019948338005"><ele>188.2</ele><time>2026-04-16T08:51:20.999Z</time></trkpt><trkpt lat="50.353421424376634" lon="4.5490391663094805"><ele>188.8</ele><time>2026-04-16T08:51:21.999Z</time></trkpt><trkpt lat="50.353526264659614" lon="4.549037327290158"><ele>189.4</ele><time>2026-04-16T08:51:22.999Z</time></trkpt><trkpt lat="50.35363377345965" lon="4.549064536464013"><ele>190.0</ele><time>2026-04-16T08:51:23.999Z</time></trkpt><trkpt lat="50.35374004075575" lon="4.5490840203940826"><ele>190.0</ele><time>2026-04-16T08:51:24.999Z</time></trkpt><trkpt lat="50.35384657743346" lon="4.549113373642843"><ele>190.0</ele><time>2026-04-16T08:51:25.999Z</time></trkpt><trkpt lat="50.35395859457353" lon="4.549145877373671"><ele>190.0</ele><time>2026-04-16T08:51:26.999Z</time></trkpt><trkpt lat="50.35406634701997" lon="4.549184552749819"><ele>190.0</ele><time>2026-04-16T08:51:27.999Z</time></trkpt><trkpt lat="50.35417320149446" lon="4.549223154663363"><ele>190.0</ele><time>2026-04-16T08:51:28.999Z</time></trkpt><trkpt lat="50.35428000035225" lon="4.549255407219023"><ele>190.5</ele><time>2026-04-16T08:51:29.999Z</time></trkpt><trkpt lat="50.35438715106083" lon="4.549299086420725"><ele>191.0</ele><time>2026-04-16T08:51:30.999Z</time></trkpt><trkpt lat="50.354492619602624" lon="4.549350578818303"><ele>191.5</ele><time>2026-04-16T08:51:31.999Z</time></trkpt><trkpt lat="50.35460077685967" lon="4.549417841601542"><ele>192.0</ele><time>2026-04-16T08:51:32.999Z</time></trkpt><trkpt lat="50.35470586016114" lon="4.5494965244243435"><ele>192.25</ele><time>2026-04-16T08:51:33.999Z</time></trkpt><trkpt lat="50.35481347376836" lon="4.549582064088467"><ele>192.5</ele><time>2026-04-16T08:51:34.999Z</time></trkpt><trkpt lat="50.35491902493046" lon="4.549664235955724"><ele>192.75</ele><time>2026-04-16T08:51:35.999Z</time></trkpt><trkpt lat="50.35501805872736" lon="4.5497528142359505"><ele>193.0</ele><time>2026-04-16T08:51:36.999Z</time></trkpt><trkpt lat="50.35511984776004" lon="4.549841305799018"><ele>193.0</ele><time>2026-04-16T08:51:37.999Z</time></trkpt><trkpt lat="50.35522202892622" lon="4.5499299672524955"><ele>193.0</ele><time>2026-04-16T08:51:38.999Z</time></trkpt><trkpt lat="50.35532453661635" lon="4.550010393786534"><ele>193.0</ele><time>2026-04-16T08:51:39.999Z</time></trkpt><trkpt lat="50.35542900541039" lon="4.550090744039049"><ele>193.0</ele><time>2026-04-16T08:51:40.999Z</time></trkpt><trkpt lat="50.35553112827732" lon="4.550170767113567"><ele>193.5</ele><time>2026-04-16T08:51:41.999Z</time></trkpt><trkpt lat="50.355636391986394" lon="4.550257634733535"><ele>194.0</ele><time>2026-04-16T08:51:42.999Z</time></trkpt><trkpt lat="50.35574397564084" lon="4.550337535688233"><ele>194.5</ele><time>2026-04-16T08:51:43.999Z</time></trkpt><trkpt lat="50.355850131151755" lon="4.550417413692738"><ele>195.0</ele><time>2026-04-16T08:51:44.999Z</time></trkpt><trkpt lat="50.355957461309735" lon="4.550502302296767"><ele>195.0</ele><time>2026-04-16T08:51:45.999Z</time></trkpt><trkpt lat="50.35606383590391" lon="4.550582267138834"><ele>195.0</ele><time>2026-04-16T08:51:46.999Z</time></trkpt><trkpt lat="50.356168888594745" lon="4.550666735780313"><ele>195.0</ele><time>2026-04-16T08:51:47.999Z</time></trkpt><trkpt lat="50.35627285867825" lon="4.550746704325943"><ele>195.0</ele><time>2026-04-16T08:51:48.999Z</time></trkpt><trkpt lat="50.35638319599336" lon="4.550815553290005"><ele>196.0</ele><time>2026-04-16T08:51:49.999Z</time></trkpt><trkpt lat="50.35648813618308" lon="4.550895600553846"><ele>197.0</ele><time>2026-04-16T08:51:50.999Z</time></trkpt><trkpt lat="50.356593601058954" lon="4.550960028279783"><ele>198.0</ele><time>2026-04-16T08:51:51.999Z</time></trkpt><trkpt lat="50.35669259583808" lon="4.5510340881239015"><ele>199.0</ele><time>2026-04-16T08:51:52.999Z</time></trkpt><trkpt lat="50.35680060751059" lon="4.551096454777476"><ele>199.0</ele><time>2026-04-16T08:51:53.999Z</time></trkpt><trkpt lat="50.35690874481653" lon="4.55115555109731"><ele>199.0</ele><time>2026-04-16T08:51:54.999Z</time></trkpt><trkpt lat="50.35701580607131" lon="4.551211803017499"><ele>199.0</ele><time>2026-04-16T08:51:55.999Z</time></trkpt><trkpt lat="50.35712402354033" lon="4.551266605031953"><ele>199.0</ele><time>2026-04-16T08:51:56.999Z</time></trkpt><trkpt lat="50.35723602186825" lon="4.551319081527077"><ele>199.49999999999997</ele><time>2026-04-16T08:51:57.999Z</time></trkpt><trkpt lat="50.357342823035516" lon="4.55136867585203"><ele>200.0</ele><time>2026-04-16T08:51:58.999Z</time></trkpt><trkpt lat="50.35742403040438" lon="4.551425831739673"><ele>200.5</ele><time>2026-04-16T08:51:59.999Z</time></trkpt><trkpt lat="50.35750292452705" lon="4.551443803641001"><ele>201.0</ele><time>2026-04-16T08:52:00.999Z</time></trkpt><trkpt lat="50.35757312321938" lon="4.551477812522291"><ele>201.49999999999997</ele><time>2026-04-16T08:52:01.999Z</time></trkpt><trkpt lat="50.357632213853755" lon="4.551520626284043"><ele>202.0</ele><time>2026-04-16T08:52:02.999Z</time></trkpt><trkpt lat="50.35769964866443" lon="4.551541944573804"><ele>201.99999999999997</ele><time>2026-04-16T08:52:03.999Z</time></trkpt><trkpt lat="50.35777445428872" lon="4.551571216233212"><ele>202.0</ele><time>2026-04-16T08:52:04.999Z</time></trkpt><trkpt lat="50.357854870724076" lon="4.551602071096702"><ele>202.0</ele><time>2026-04-16T08:52:05.999Z</time></trkpt><trkpt lat="50.357937130672305" lon="4.55164097087159"><ele>202.0</ele><time>2026-04-16T08:52:06.999Z</time></trkpt><trkpt lat="50.35801839810398" lon="4.5516793395472455"><ele>201.99999999999997</ele><time>2026-04-16T08:52:07.999Z</time></trkpt><trkpt lat="50.358100925500935" lon="4.5517143266590825"><ele>202.0</ele><time>2026-04-16T08:52:08.999Z</time></trkpt><trkpt lat="50.35818491537611" lon="4.5517491629033255"><ele>202.49999999999997</ele><time>2026-04-16T08:52:09.999Z</time></trkpt><trkpt lat="50.35826923188937" lon="4.551780854066988"><ele>203.0</ele><time>2026-04-16T08:52:10.999Z</time></trkpt><trkpt lat="50.358351038514996" lon="4.551816783390358"><ele>203.5</ele><time>2026-04-16T08:52:11.999Z</time></trkpt><trkpt lat="50.358419966786116" lon="4.5518504944953975"><ele>204.0</ele><time>2026-04-16T08:52:12.999Z</time></trkpt><trkpt lat="50.35849178086765" lon="4.5518795315961285"><ele>204.49999999999997</ele><time>2026-04-16T08:52:13.999Z</time></trkpt><trkpt lat="50.35857382748635" lon="4.551907427974949"><ele>205.0</ele><time>2026-04-16T08:52:14.999Z</time></trkpt><trkpt lat="50.35866277752583" lon="4.55194096911488"><ele>205.0</ele><time>2026-04-16T08:52:15.999Z</time></trkpt><trkpt lat="50.358755571498726" lon="4.551982297912939"><ele>205.0</ele><time>2026-04-16T08:52:16.999Z</time></trkpt><trkpt lat="50.35885673079526" lon="4.55202654138184"><ele>205.0</ele><time>2026-04-16T08:52:17.999Z</time></trkpt><trkpt lat="50.358960006168886" lon="4.552078743077213"><ele>205.0</ele><time>2026-04-16T08:52:18.999Z</time></trkpt><trkpt lat="50.35905655515573" lon="4.552143223561586"><ele>205.0</ele><time>2026-04-16T08:52:19.999Z</time></trkpt><trkpt lat="50.35914372587343" lon="4.552211158160795"><ele>205.99999999999997</ele><time>2026-04-16T08:52:20.999Z</time></trkpt><trkpt lat="50.35921780276418" lon="4.552288105431943"><ele>207.0</ele><time>2026-04-16T08:52:21.999Z</time></trkpt><trkpt lat="50.35928845403674" lon="4.552332938387187"><ele>208.0</ele><time>2026-04-16T08:52:22.999Z</time></trkpt><trkpt lat="50.359386322404745" lon="4.552418952727578"><ele>209.0</ele><time>2026-04-16T08:52:24.999Z</time></trkpt><trkpt lat="50.35946228456433" lon="4.552472390383078"><ele>209.99999999999997</ele><time>2026-04-16T08:52:26.999Z</time></trkpt><trkpt lat="50.359512644609765" lon="4.5525435968083805"><ele>211.0</ele><time>2026-04-16T08:52:30Z</time></trkpt><trkpt lat="50.35955821491032" lon="4.552627458166855"><ele>210.99999999999997</ele><time>2026-04-16T08:53:32.999Z</time></trkpt><trkpt lat="50.359615244805696" lon="4.552681894950896"><ele>211.0</ele><time>2026-04-16T08:53:39.999Z</time></trkpt><trkpt lat="50.35967780403742" lon="4.552711076241439"><ele>211.0</ele><time>2026-04-16T08:53:51.999Z</time></trkpt><trkpt lat="50.35976062795588" lon="4.55277514882448"><ele>211.0</ele><time>2026-04-16T08:53:54.999Z</time></trkpt><trkpt lat="50.359864780924596" lon="4.5528343634890795"><ele>210.99999999999997</ele><time>2026-04-16T08:53:56.999Z</time></trkpt><trkpt lat="50.35996327795937" lon="4.552911566093623"><ele>211.0</ele><time>2026-04-16T08:53:58.999Z</time></trkpt><trkpt lat="50.36002034312855" lon="4.552956182412732"><ele>211.66666666666666</ele><time>2026-04-16T08:53:59.999Z</time></trkpt><trkpt lat="50.36008901225275" lon="4.552998640036332"><ele>212.33333333333331</ele><time>2026-04-16T08:54:00.999Z</time></trkpt><trkpt lat="50.36016085132101" lon="4.553053044330985"><ele>213.0</ele><time>2026-04-16T08:54:01.999Z</time></trkpt><trkpt lat="50.36024003519334" lon="4.553108624275016"><ele>213.66666666666669</ele><time>2026-04-16T08:54:02.999Z</time></trkpt><trkpt lat="50.36031295041133" lon="4.553158681117442"><ele>214.33333333333334</ele><time>2026-04-16T08:54:03.999Z</time></trkpt><trkpt lat="50.36037905549798" lon="4.553213201607838"><ele>215.0</ele><time>2026-04-16T08:54:04.999Z</time></trkpt><trkpt lat="50.36045334473766" lon="4.553263230163492"><ele>215.0</ele><time>2026-04-16T08:54:05.999Z</time></trkpt><trkpt lat="50.360535184072305" lon="4.553301551411351"><ele>215.0</ele><time>2026-04-16T08:54:06.999Z</time></trkpt><trkpt lat="50.36063669289123" lon="4.5533718481802845"><ele>215.0</ele><time>2026-04-16T08:54:07.999Z</time></trkpt><trkpt lat="50.360732829213056" lon="4.5534415691412065"><ele>215.0</ele><time>2026-04-16T08:54:08.999Z</time></trkpt><trkpt lat="50.36083222888334" lon="4.5535121917643995"><ele>215.0</ele><time>2026-04-16T08:54:09.999Z</time></trkpt><trkpt lat="50.360936908929695" lon="4.553570797494651"><ele>215.0</ele><time>2026-04-16T08:54:10.999Z</time></trkpt><trkpt lat="50.36104355348394" lon="4.553634990039004"><ele>215.0</ele><time>2026-04-16T08:54:11.999Z</time></trkpt><trkpt lat="50.361150438808316" lon="4.553702014399007"><ele>215.0</ele><time>2026-04-16T08:54:12.999Z</time></trkpt><trkpt lat="50.36126193154666" lon="4.553771802830146"><ele>215.0</ele><time>2026-04-16T08:54:13.999Z</time></trkpt><trkpt lat="50.36137362326814" lon="4.553845116721696"><ele>215.75</ele><time>2026-04-16T08:54:14.999Z</time></trkpt><trkpt lat="50.36148917523853" lon="4.553920229463079"><ele>216.5</ele><time>2026-04-16T08:54:15.999Z</time></trkpt><trkpt lat="50.36160188883277" lon="4.553986657965236"><ele>217.25</ele><time>2026-04-16T08:54:16.999Z</time></trkpt><trkpt lat="50.36172716511208" lon="4.554063235946338"><ele>218.0</ele><time>2026-04-16T08:54:17.999Z</time></trkpt><trkpt lat="50.3618541378157" lon="4.554144034346397"><ele>218.0</ele><time>2026-04-16T08:54:18.999Z</time></trkpt><trkpt lat="50.36198237334351" lon="4.554229367261015"><ele>218.0</ele><time>2026-04-16T08:54:19.999Z</time></trkpt><trkpt lat="50.362120732118996" lon="4.5543147856723785"><ele>218.0</ele><time>2026-04-16T08:54:20.999Z</time></trkpt><trkpt lat="50.362259960624705" lon="4.554407578850834"><ele>218.0</ele><time>2026-04-16T08:54:21.999Z</time></trkpt><trkpt lat="50.3624145975687" lon="4.554502584433988"><ele>219.0</ele><time>2026-04-16T08:54:22.999Z</time></trkpt><trkpt lat="50.36255264928489" lon="4.554588319512311"><ele>220.0</ele><time>2026-04-16T08:54:23.999Z</time></trkpt><trkpt lat="50.36269733884516" lon="4.554680339348932"><ele>221.0</ele><time>2026-04-16T08:54:24.999Z</time></trkpt><trkpt lat="50.36284420941077" lon="4.5547725289958105"><ele>221.0</ele><time>2026-04-16T08:54:25.999Z</time></trkpt><trkpt lat="50.362991590697966" lon="4.5548621665407385"><ele>221.0</ele><time>2026-04-16T08:54:26.999Z</time></trkpt><trkpt lat="50.363129317897844" lon="4.554958317901466"><ele>221.0</ele><time>2026-04-16T08:54:27.999Z</time></trkpt><trkpt lat="50.36326050371836" lon="4.555038092464599"><ele>221.5</ele><time>2026-04-16T08:54:28.999Z</time></trkpt><trkpt lat="50.363375492046124" lon="4.55510685260805"><ele>222.0</ele><time>2026-04-16T08:54:29.999Z</time></trkpt><trkpt lat="50.36348032581015" lon="4.555175818973526"><ele>222.5</ele><time>2026-04-16T08:54:30.999Z</time></trkpt><trkpt lat="50.36358573064497" lon="4.555240632311853"><ele>223.0</ele><time>2026-04-16T08:54:31.999Z</time></trkpt><trkpt lat="50.3636898760107" lon="4.555294733249754"><ele>223.0</ele><time>2026-04-16T08:54:32.999Z</time></trkpt><trkpt lat="50.36379510170661" lon="4.555329562603792"><ele>223.0</ele><time>2026-04-16T08:54:33.999Z</time></trkpt><trkpt lat="50.363905094979735" lon="4.555333585557641"><ele>223.0</ele><time>2026-04-16T08:54:35Z</time></trkpt><trkpt lat="50.36401373694381" lon="4.555313445164398"><ele>223.0</ele><time>2026-04-16T08:54:36Z</time></trkpt><trkpt lat="50.36412800427111" lon="4.555280741894241"><ele>223.0</ele><time>2026-04-16T08:54:37Z</time></trkpt><trkpt lat="50.364250874073306" lon="4.555261312033969"><ele>223.0</ele><time>2026-04-16T08:54:38Z</time></trkpt><trkpt lat="50.364376553516315" lon="4.555233551660329"><ele>223.0</ele><time>2026-04-16T08:54:39Z</time></trkpt><trkpt lat="50.36449677264341" lon="4.555210597506436"><ele>223.0</ele><time>2026-04-16T08:54:40Z</time></trkpt><trkpt lat="50.36460523144101" lon="4.555190331610637"><ele>223.0</ele><time>2026-04-16T08:54:41Z</time></trkpt><trkpt lat="50.364705732809675" lon="4.555169272240745"><ele>222.25</ele><time>2026-04-16T08:54:42Z</time></trkpt><trkpt lat="50.36481190846975" lon="4.555143724477756"><ele>221.5</ele><time>2026-04-16T08:54:43Z</time></trkpt><trkpt lat="50.36493303081999" lon="4.555145495712172"><ele>220.75</ele><time>2026-04-16T08:54:44Z</time></trkpt><trkpt lat="50.36505865589652" lon="4.5551234500856"><ele>220.0</ele><time>2026-04-16T08:54:45Z</time></trkpt><trkpt lat="50.36517199634771" lon="4.555103562904462"><ele>220.0</ele><time>2026-04-16T08:54:46Z</time></trkpt><trkpt lat="50.36527359962894" lon="4.555082409144699"><ele>220.0</ele><time>2026-04-16T08:54:47Z</time></trkpt><trkpt lat="50.36538545060943" lon="4.555071297293366"><ele>220.0</ele><time>2026-04-16T08:54:48Z</time></trkpt><trkpt lat="50.3655077768995" lon="4.555048742855339"><ele>220.0</ele><time>2026-04-16T08:54:49Z</time></trkpt><trkpt lat="50.36563307059492" lon="4.555012910900428"><ele>220.0</ele><time>2026-04-16T08:54:50Z</time></trkpt><trkpt lat="50.365775158323125" lon="4.554971865331559"><ele>220.0</ele><time>2026-04-16T08:54:51Z</time></trkpt><trkpt lat="50.365926738555416" lon="4.554969568819992"><ele>220.0</ele><time>2026-04-16T08:54:52Z</time></trkpt><trkpt lat="50.366067497260765" lon="4.554942839123882"><ele>220.0</ele><time>2026-04-16T08:54:53Z</time></trkpt><trkpt lat="50.36619938256699" lon="4.554903084570764"><ele>220.0</ele><time>2026-04-16T08:54:54Z</time></trkpt><trkpt lat="50.366343174776055" lon="4.5548777213207305"><ele>220.0</ele><time>2026-04-16T08:54:55Z</time></trkpt><trkpt lat="50.366493189342386" lon="4.554846190427267"><ele>220.0</ele><time>2026-04-16T08:54:56Z</time></trkpt><trkpt lat="50.36664415082772" lon="4.5548267805121885"><ele>220.0</ele><time>2026-04-16T08:54:57Z</time></trkpt><trkpt lat="50.366782997470125" lon="4.554809202630206"><ele>219.5</ele><time>2026-04-16T08:54:58Z</time></trkpt><trkpt lat="50.3669025967349" lon="4.554779892259806"><ele>219.0</ele><time>2026-04-16T08:54:59Z</time></trkpt><trkpt lat="50.367027453660974" lon="4.5547454189119"><ele>218.5</ele><time>2026-04-16T08:55:00Z</time></trkpt><trkpt lat="50.36716016880352" lon="4.5547426015244366"><ele>218.0</ele><time>2026-04-16T08:55:01Z</time></trkpt><trkpt lat="50.36727815179013" lon="4.554697455713644"><ele>219.2</ele><time>2026-04-16T08:55:02Z</time></trkpt><trkpt lat="50.3673926670929" lon="4.554703387592593"><ele>220.4</ele><time>2026-04-16T08:55:03Z</time></trkpt><trkpt lat="50.36749231622599" lon="4.554681023189295"><ele>221.59999999999997</ele><time>2026-04-16T08:55:04Z</time></trkpt><trkpt lat="50.36758961179304" lon="4.554663768612218"><ele>222.79999999999998</ele><time>2026-04-16T08:55:05Z</time></trkpt><trkpt lat="50.36768372727246" lon="4.554649192587171"><ele>224.0</ele><time>2026-04-16T08:55:06Z</time></trkpt><trkpt lat="50.36777344839932" lon="4.554633237689625"><ele>224.0</ele><time>2026-04-16T08:55:07Z</time></trkpt><trkpt lat="50.367875354522845" lon="4.5546134557854"><ele>224.0</ele><time>2026-04-16T08:55:08Z</time></trkpt><trkpt lat="50.367994039957956" lon="4.5545951670056715"><ele>224.0</ele><time>2026-04-16T08:55:09Z</time></trkpt><trkpt lat="50.36813185224854" lon="4.554571894761097"><ele>224.0</ele><time>2026-04-16T08:55:10Z</time></trkpt><trkpt lat="50.368280996128554" lon="4.5545527366736716"><ele>225.0</ele><time>2026-04-16T08:55:11Z</time></trkpt><trkpt lat="50.36843328066446" lon="4.554518320248837"><ele>226.0</ele><time>2026-04-16T08:55:12Z</time></trkpt><trkpt lat="50.36858830599732" lon="4.554484767319756"><ele>227.0</ele><time>2026-04-16T08:55:13Z</time></trkpt><trkpt lat="50.368754571948294" lon="4.554460305396029"><ele>225.66666666666669</ele><time>2026-04-16T08:55:14Z</time></trkpt><trkpt lat="50.36892254572711" lon="4.554434081865453"><ele>224.33333333333331</ele><time>2026-04-16T08:55:15Z</time></trkpt><trkpt lat="50.369091367040255" lon="4.554398733155379"><ele>223.0</ele><time>2026-04-16T08:55:16Z</time></trkpt><trkpt lat="50.36924471624231" lon="4.55437412646571"><ele>223.0</ele><time>2026-04-16T08:55:17Z</time></trkpt><trkpt lat="50.369389706483524" lon="4.554344088120861"><ele>223.0</ele><time>2026-04-16T08:55:18Z</time></trkpt><trkpt lat="50.369516274140175" lon="4.554347313029107"><ele>223.0</ele><time>2026-04-16T08:55:19Z</time></trkpt><trkpt lat="50.36964619886279" lon="4.554311293204947"><ele>223.0</ele><time>2026-04-16T08:55:20Z</time></trkpt><trkpt lat="50.36979246544558" lon="4.554298146390843"><ele>222.0</ele><time>2026-04-16T08:55:21Z</time></trkpt><trkpt lat="50.369932685355984" lon="4.554297418976342"><ele>221.0</ele><time>2026-04-16T08:55:22Z</time></trkpt><trkpt lat="50.37008836874691" lon="4.554290121185456"><ele>220.0</ele><time>2026-04-16T08:55:23Z</time></trkpt><trkpt lat="50.37024579395124" lon="4.554300486179282"><ele>220.0</ele><time>2026-04-16T08:55:24Z</time></trkpt><trkpt lat="50.370408027747985" lon="4.554326142483686"><ele>220.0</ele><time>2026-04-16T08:55:25Z</time></trkpt><trkpt lat="50.37057061319279" lon="4.554359833471522"><ele>220.0</ele><time>2026-04-16T08:55:26Z</time></trkpt><trkpt lat="50.370736948629215" lon="4.5544204928593635"><ele>219.33333333333331</ele><time>2026-04-16T08:55:27Z</time></trkpt><trkpt lat="50.37091969290347" lon="4.554439456424581"><ele>218.66666666666669</ele><time>2026-04-16T08:55:28Z</time></trkpt><trkpt lat="50.371084195064554" lon="4.554476298569103"><ele>218.0</ele><time>2026-04-16T08:55:29Z</time></trkpt><trkpt lat="50.37123159243203" lon="4.5545009444790905"><ele>218.0</ele><time>2026-04-16T08:55:30Z</time></trkpt><trkpt lat="50.37137318741648" lon="4.554534088150336"><ele>218.0</ele><time>2026-04-16T08:55:31Z</time></trkpt><trkpt lat="50.371531939928325" lon="4.55456607843421"><ele>218.0</ele><time>2026-04-16T08:55:31.999Z</time></trkpt><trkpt lat="50.3716974175742" lon="4.554591988949319"><ele>217.66666666666669</ele><time>2026-04-16T08:55:32.999Z</time></trkpt><trkpt lat="50.37185013407736" lon="4.554621166449305"><ele>217.33333333333331</ele><time>2026-04-16T08:55:33.999Z</time></trkpt><trkpt lat="50.372002192177625" lon="4.554657315178586"><ele>217.0</ele><time>2026-04-16T08:55:34.999Z</time></trkpt><trkpt lat="50.37217022423254" lon="4.554700632914165"><ele>217.33333333333331</ele><time>2026-04-16T08:55:35.999Z</time></trkpt><trkpt lat="50.37233553895964" lon="4.5547609111550305"><ele>217.66666666666669</ele><time>2026-04-16T08:55:36.999Z</time></trkpt><trkpt lat="50.372506950997334" lon="4.554838030069238"><ele>218.0</ele><time>2026-04-16T08:55:37.999Z</time></trkpt><trkpt lat="50.37267504150726" lon="4.554915107313527"><ele>218.0</ele><time>2026-04-16T08:55:38.999Z</time></trkpt><trkpt lat="50.37283529798329" lon="4.555000455878493"><ele>218.0</ele><time>2026-04-16T08:55:39.999Z</time></trkpt><trkpt lat="50.373006772521755" lon="4.555092638856038"><ele>218.0</ele><time>2026-04-16T08:55:40.999Z</time></trkpt><trkpt lat="50.373177661024485" lon="4.555149214329956"><ele>217.66666666666669</ele><time>2026-04-16T08:55:41.999Z</time></trkpt><trkpt lat="50.37333898382853" lon="4.5552367736363175"><ele>217.33333333333331</ele><time>2026-04-16T08:55:42.999Z</time></trkpt><trkpt lat="50.373500830519085" lon="4.555308328032293"><ele>217.0</ele><time>2026-04-16T08:55:43.999Z</time></trkpt><trkpt lat="50.37365041022917" lon="4.555373325818627"><ele>216.5</ele><time>2026-04-16T08:55:44.999Z</time></trkpt><trkpt lat="50.37378420941743" lon="4.555434359287078"><ele>216.0</ele><time>2026-04-16T08:55:45.999Z</time></trkpt><trkpt lat="50.37390446556307" lon="4.555499158058177"><ele>215.5</ele><time>2026-04-16T08:55:46.999Z</time></trkpt><trkpt lat="50.37401685322726" lon="4.5555462247540595"><ele>215.0</ele><time>2026-04-16T08:55:47.999Z</time></trkpt><trkpt lat="50.37412092620287" lon="4.555600777284777"><ele>214.6</ele><time>2026-04-16T08:55:48.999Z</time></trkpt><trkpt lat="50.374218318538595" lon="4.5556521140550625"><ele>214.2</ele><time>2026-04-16T08:55:49.999Z</time></trkpt><trkpt lat="50.37431238042938" lon="4.555694210263587"><ele>213.8</ele><time>2026-04-16T08:55:50.999Z</time></trkpt><trkpt lat="50.37440559147876" lon="4.555740326375464"><ele>213.4</ele><time>2026-04-16T08:55:51.999Z</time></trkpt><trkpt lat="50.37450189998779" lon="4.555781571788472"><ele>213.0</ele><time>2026-04-16T08:55:52.999Z</time></trkpt><trkpt lat="50.37460593845803" lon="4.555830799462268"><ele>213.2</ele><time>2026-04-16T08:55:53.999Z</time></trkpt><trkpt lat="50.37471437815819" lon="4.555882310505738"><ele>213.4</ele><time>2026-04-16T08:55:54.999Z</time></trkpt><trkpt lat="50.374810273383375" lon="4.555934382553283"><ele>213.59999999999997</ele><time>2026-04-16T08:55:55.999Z</time></trkpt><trkpt lat="50.37492016208063" lon="4.555983074479211"><ele>213.79999999999998</ele><time>2026-04-16T08:55:56.999Z</time></trkpt><trkpt lat="50.375034426426616" lon="4.556035240438958"><ele>214.0</ele><time>2026-04-16T08:55:57.999Z</time></trkpt><trkpt lat="50.37514074797139" lon="4.556083872161664"><ele>214.0</ele><time>2026-04-16T08:55:58.999Z</time></trkpt><trkpt lat="50.37524897042491" lon="4.556143132912689"><ele>214.0</ele><time>2026-04-16T08:55:59.999Z</time></trkpt><trkpt lat="50.37536246919912" lon="4.556188229116021"><ele>214.0</ele><time>2026-04-16T08:56:00.999Z</time></trkpt><trkpt lat="50.37547923913771" lon="4.556235160638918"><ele>214.0</ele><time>2026-04-16T08:56:01.999Z</time></trkpt><trkpt lat="50.37559149243127" lon="4.556286514653305"><ele>213.2</ele><time>2026-04-16T08:56:02.999Z</time></trkpt><trkpt lat="50.37570835830034" lon="4.556337141682081"><ele>212.39999999999998</ele><time>2026-04-16T08:56:03.999Z</time></trkpt><trkpt lat="50.375807621144105" lon="4.55639129156026"><ele>211.6</ele><time>2026-04-16T08:56:04.999Z</time></trkpt><trkpt lat="50.375883374770744" lon="4.556430487926634"><ele>210.8</ele><time>2026-04-16T08:56:05.999Z</time></trkpt><trkpt lat="50.375944250708045" lon="4.556461027026329"><ele>210.0</ele><time>2026-04-16T08:56:06.999Z</time></trkpt><trkpt lat="50.37605218446829" lon="4.5565054927874105"><ele>210.0</ele><time>2026-04-16T08:56:08.999Z</time></trkpt><trkpt lat="50.37614392477342" lon="4.5565412854542116"><ele>210.0</ele><time>2026-04-16T08:56:10.999Z</time></trkpt><trkpt lat="50.37621161912798" lon="4.556567053997073"><ele>210.0</ele><time>2026-04-16T08:56:14.999Z</time></trkpt><trkpt lat="50.3762079586659" lon="4.556347357186336"><ele>210.0</ele><time>2026-04-16T08:56:19.999Z</time></trkpt><trkpt lat="50.37620961647499" lon="4.556222556428873"><ele>210.0</ele><time>2026-04-16T08:56:22.999Z</time></trkpt><trkpt lat="50.376236095608284" lon="4.556112140655733"><ele>210.0</ele><time>2026-04-16T08:56:24.999Z</time></trkpt><trkpt lat="50.37624828235102" lon="4.555990857539948"><ele>210.0</ele><time>2026-04-16T08:56:26.999Z</time></trkpt><trkpt lat="50.37624255630722" lon="4.555890484146208"><ele>210.0</ele><time>2026-04-16T08:56:27.999Z</time></trkpt><trkpt lat="50.3762390194366" lon="4.555791248880525"><ele>210.0</ele><time>2026-04-16T08:56:28.999Z</time></trkpt><trkpt lat="50.376237275064554" lon="4.555623619868297"><ele>210.0</ele><time>2026-04-16T08:56:30.999Z</time></trkpt><trkpt lat="50.376237388216346" lon="4.555512590212921"><ele>210.0</ele><time>2026-04-16T08:56:31.999Z</time></trkpt><trkpt lat="50.37625369684305" lon="4.555393850950019"><ele>210.4</ele><time>2026-04-16T08:56:32.999Z</time></trkpt><trkpt lat="50.37624579503673" lon="4.555281400518516"><ele>210.8</ele><time>2026-04-16T08:56:33.999Z</time></trkpt><trkpt lat="50.37624982813902" lon="4.555181271295768"><ele>211.2</ele><time>2026-04-16T08:56:34.999Z</time></trkpt><trkpt lat="50.37623650224377" lon="4.55497661812713"><ele>211.6</ele><time>2026-04-16T08:56:36.999Z</time></trkpt><trkpt lat="50.37623058436613" lon="4.554782427171469"><ele>212.0</ele><time>2026-04-16T08:56:38.999Z</time></trkpt><trkpt lat="50.376231955726226" lon="4.554683722808032"><ele>212.0</ele><time>2026-04-16T08:56:39.999Z</time></trkpt><trkpt lat="50.37623594231913" lon="4.554583580563426"><ele>212.0</ele><time>2026-04-16T08:56:41Z</time></trkpt><trkpt lat="50.376239603592204" lon="4.55448418083456"><ele>212.0</ele><time>2026-04-16T08:56:42Z</time></trkpt><trkpt lat="50.37622644194156" lon="4.554297276714379"><ele>212.0</ele><time>2026-04-16T08:56:44Z</time></trkpt><trkpt lat="50.376225953426854" lon="4.554103452868995"><ele>212.0</ele><time>2026-04-16T08:56:46Z</time></trkpt><trkpt lat="50.37621224059639" lon="4.553898878763903"><ele>211.50000000000003</ele><time>2026-04-16T08:56:48Z</time></trkpt><trkpt lat="50.37621240192753" lon="4.553791640022987"><ele>211.0</ele><time>2026-04-16T08:56:49Z</time></trkpt><trkpt lat="50.37621383693772" lon="4.5536085345232955"><ele>210.5</ele><time>2026-04-16T08:56:51Z</time></trkpt><trkpt lat="50.37619344279281" lon="4.553503859855888"><ele>210.0</ele><time>2026-04-16T08:56:52Z</time></trkpt><trkpt lat="50.376162866657715" lon="4.553312431260266"><ele>209.50000000000003</ele><time>2026-04-16T08:56:54Z</time></trkpt><trkpt lat="50.376152602526524" lon="4.553211534292875"><ele>209.0</ele><time>2026-04-16T08:56:55Z</time></trkpt><trkpt lat="50.3761484892943" lon="4.553095095801397"><ele>207.6</ele><time>2026-04-16T08:56:56Z</time></trkpt><trkpt lat="50.37609581168462" lon="4.552905636846104"><ele>206.2</ele><time>2026-04-16T08:56:58Z</time></trkpt><trkpt lat="50.37606329874039" lon="4.552732856800989"><ele>204.79999999999998</ele><time>2026-04-16T08:57:00Z</time></trkpt><trkpt lat="50.37601401175631" lon="4.552558720450583"><ele>203.39999999999998</ele><time>2026-04-16T08:57:02Z</time></trkpt><trkpt lat="50.37599067705294" lon="4.552440476854384"><ele>202.0</ele><time>2026-04-16T08:57:03Z</time></trkpt><trkpt lat="50.37593663131051" lon="4.552343992754892"><ele>201.14285714285714</ele><time>2026-04-16T08:57:03.999Z</time></trkpt><trkpt lat="50.3758933829928" lon="4.552250558055066"><ele>200.28571428571428</ele><time>2026-04-16T08:57:04.999Z</time></trkpt><trkpt lat="50.375852625865335" lon="4.5521603096542425"><ele>199.42857142857144</ele><time>2026-04-16T08:57:05.999Z</time></trkpt><trkpt lat="50.3758183719255" lon="4.552073335477217"><ele>198.57142857142856</ele><time>2026-04-16T08:57:06.999Z</time></trkpt><trkpt lat="50.37579354635057" lon="4.551973320788301"><ele>197.71428571428572</ele><time>2026-04-16T08:57:07.999Z</time></trkpt><trkpt lat="50.37576498670685" lon="4.55186691699886"><ele>196.85714285714286</ele><time>2026-04-16T08:57:08.999Z</time></trkpt><trkpt lat="50.37573528241315" lon="4.551747866616819"><ele>196.0</ele><time>2026-04-16T08:57:09.999Z</time></trkpt><trkpt lat="50.37571996498792" lon="4.551639348612498"><ele>194.66666666666666</ele><time>2026-04-16T08:57:10.999Z</time></trkpt><trkpt lat="50.375668153202334" lon="4.551447663392842"><ele>193.33333333333331</ele><time>2026-04-16T08:57:12.999Z</time></trkpt><trkpt lat="50.375643371811336" lon="4.551343404784526"><ele>192.0</ele><time>2026-04-16T08:57:13.999Z</time></trkpt><trkpt lat="50.375620757606214" lon="4.551224198244002"><ele>190.66666666666666</ele><time>2026-04-16T08:57:14.999Z</time></trkpt><trkpt lat="50.37559508170014" lon="4.551097923710475"><ele>189.33333333333331</ele><time>2026-04-16T08:57:15.999Z</time></trkpt><trkpt lat="50.37556633322932" lon="4.550994387391986"><ele>188.0</ele><time>2026-04-16T08:57:16.999Z</time></trkpt><trkpt lat="50.37555836655183" lon="4.550890427456539"><ele>187.0</ele><time>2026-04-16T08:57:17.999Z</time></trkpt><trkpt lat="50.37552339214898" lon="4.5507933385313795"><ele>186.0</ele><time>2026-04-16T08:57:18.999Z</time></trkpt><trkpt lat="50.375487828114146" lon="4.550597491511666"><ele>185.0</ele><time>2026-04-16T08:57:20.999Z</time></trkpt><trkpt lat="50.37547477591518" lon="4.550471140837589"><ele>184.0</ele><time>2026-04-16T08:57:21.999Z</time></trkpt><trkpt lat="50.37546294579378" lon="4.550344704716441"><ele>183.0</ele><time>2026-04-16T08:57:22.999Z</time></trkpt><trkpt lat="50.37543686587336" lon="4.550213511741665"><ele>184.83333333333334</ele><time>2026-04-16T08:57:23.999Z</time></trkpt><trkpt lat="50.37543033358243" lon="4.550072955405457"><ele>186.66666666666669</ele><time>2026-04-16T08:57:24.999Z</time></trkpt><trkpt lat="50.37542030963817" lon="4.549920199173691"><ele>188.5</ele><time>2026-04-16T08:57:25.999Z</time></trkpt><trkpt lat="50.37541731878893" lon="4.549786822105872"><ele>190.33333333333334</ele><time>2026-04-16T08:57:26.999Z</time></trkpt><trkpt lat="50.375401752957266" lon="4.549665272285547"><ele>192.16666666666669</ele><time>2026-04-16T08:57:27.999Z</time></trkpt><trkpt lat="50.375396734934284" lon="4.549536954331912"><ele>194.0</ele><time>2026-04-16T08:57:28.999Z</time></trkpt><trkpt lat="50.375388820471066" lon="4.5494058391765675"><ele>194.39999999999998</ele><time>2026-04-16T08:57:29.999Z</time></trkpt><trkpt lat="50.375373709876584" lon="4.549278377406036"><ele>194.8</ele><time>2026-04-16T08:57:30.999Z</time></trkpt><trkpt lat="50.37537189269218" lon="4.549174078526589"><ele>195.2</ele><time>2026-04-16T08:57:31.999Z</time></trkpt><trkpt lat="50.37534421767832" lon="4.5490113676215636"><ele>195.60000000000002</ele><time>2026-04-16T08:57:33.999Z</time></trkpt><trkpt lat="50.37531134782955" lon="4.548805108987954"><ele>196.0</ele><time>2026-04-16T08:57:35.999Z</time></trkpt><trkpt lat="50.37530348277425" lon="4.548684081980811"><ele>195.20000000000002</ele><time>2026-04-16T08:57:36.999Z</time></trkpt><trkpt lat="50.37527968463898" lon="4.548488578378536"><ele>194.4</ele><time>2026-04-16T08:57:38.999Z</time></trkpt><trkpt lat="50.375259225542635" lon="4.548307521348462"><ele>193.6</ele><time>2026-04-16T08:57:40.999Z</time></trkpt><trkpt lat="50.375230414738695" lon="4.5482148185561515"><ele>192.8</ele><time>2026-04-16T08:57:42.999Z</time></trkpt><trkpt lat="50.37525470825637" lon="4.548069402835316"><ele>192.0</ele><time>2026-04-16T08:58:31.998Z</time></trkpt><trkpt lat="50.37523716099067" lon="4.547952900387742"><ele>191.16666666666666</ele><time>2026-04-16T08:58:35.998Z</time></trkpt><trkpt lat="50.375231633420356" lon="4.547821432183202"><ele>190.33333333333334</ele><time>2026-04-16T08:58:39.998Z</time></trkpt><trkpt lat="50.375234434682966" lon="4.54769934657003"><ele>189.5</ele><time>2026-04-16T08:58:42.998Z</time></trkpt><trkpt lat="50.375224408000534" lon="4.547586982429629"><ele>188.66666666666669</ele><time>2026-04-16T08:58:44.998Z</time></trkpt><trkpt lat="50.37521569367679" lon="4.547445402550755"><ele>187.83333333333334</ele><time>2026-04-16T08:58:47.999Z</time></trkpt><trkpt lat="50.37520000761078" lon="4.54733850188988"><ele>187.0</ele><time>2026-04-16T08:58:49.999Z</time></trkpt><trkpt lat="50.37517494993356" lon="4.547224893249403"><ele>187.0</ele><time>2026-04-16T08:58:52Z</time></trkpt><trkpt lat="50.37514372379376" lon="4.54711852942005"><ele>187.0</ele><time>2026-04-16T08:58:54Z</time></trkpt><trkpt lat="50.375102369337036" lon="4.547006305075403"><ele>187.0</ele><time>2026-04-16T08:58:57Z</time></trkpt><trkpt lat="50.375066374863216" lon="4.546924934933397"><ele>187.0</ele><time>2026-04-16T08:58:59Z</time></trkpt><trkpt lat="50.37504153755448" lon="4.5468105764154085"><ele>187.0</ele><time>2026-04-16T08:59:01Z</time></trkpt><trkpt lat="50.37501201649163" lon="4.546693599992671"><ele>187.0</ele><time>2026-04-16T08:59:03Z</time></trkpt><trkpt lat="50.37497729540043" lon="4.546599843502495"><ele>187.0</ele><time>2026-04-16T08:59:05Z</time></trkpt><trkpt lat="50.37493096624531" lon="4.546452035285182"><ele>186.28571428571428</ele><time>2026-04-16T08:59:08Z</time></trkpt><trkpt lat="50.37489717019141" lon="4.546335777316673"><ele>185.57142857142858</ele><time>2026-04-16T08:59:10Z</time></trkpt><trkpt lat="50.37486972068204" lon="4.546230897197389"><ele>184.85714285714286</ele><time>2026-04-16T08:59:12Z</time></trkpt><trkpt lat="50.37482827173771" lon="4.5461483383338415"><ele>184.14285714285714</ele><time>2026-04-16T08:59:14Z</time></trkpt><trkpt lat="50.374798566805985" lon="4.546056080866782"><ele>183.42857142857144</ele><time>2026-04-16T08:59:16Z</time></trkpt><trkpt lat="50.374761858555175" lon="4.545953162788744"><ele>182.71428571428572</ele><time>2026-04-16T08:59:18Z</time></trkpt><trkpt lat="50.37472640999516" lon="4.545860721835655"><ele>182.0</ele><time>2026-04-16T08:59:20Z</time></trkpt><trkpt lat="50.374692561760476" lon="4.5457498979561075"><ele>182.83333333333331</ele><time>2026-04-16T08:59:22Z</time></trkpt><trkpt lat="50.374651362134365" lon="4.54562409683479"><ele>183.66666666666666</ele><time>2026-04-16T08:59:24Z</time></trkpt><trkpt lat="50.37461601289201" lon="4.545511977811509"><ele>184.5</ele><time>2026-04-16T08:59:26Z</time></trkpt><trkpt lat="50.37458566086408" lon="4.545408431274111"><ele>185.33333333333334</ele><time>2026-04-16T08:59:28Z</time></trkpt><trkpt lat="50.37453690328475" lon="4.5452975020328035"><ele>186.16666666666669</ele><time>2026-04-16T08:59:31Z</time></trkpt><trkpt lat="50.37447947224804" lon="4.5452086493706645"><ele>187.0</ele><time>2026-04-16T08:59:33Z</time></trkpt><trkpt lat="50.374445930318984" lon="4.545095811666657"><ele>187.0</ele><time>2026-04-16T08:59:35Z</time></trkpt><trkpt lat="50.374407142836816" lon="4.544958704336411"><ele>187.0</ele><time>2026-04-16T08:59:37Z</time></trkpt><trkpt lat="50.37435133028338" lon="4.544839268616137"><ele>187.0</ele><time>2026-04-16T08:59:39Z</time></trkpt><trkpt lat="50.37430191411015" lon="4.544686082280998"><ele>187.0</ele><time>2026-04-16T08:59:41Z</time></trkpt><trkpt lat="50.374260118933286" lon="4.544561051448698"><ele>187.0</ele><time>2026-04-16T08:59:43Z</time></trkpt><trkpt lat="50.3742280824651" lon="4.544458288027713"><ele>187.0</ele><time>2026-04-16T08:59:44.999Z</time></trkpt><trkpt lat="50.37418891525949" lon="4.544359385458643"><ele>187.0</ele><time>2026-04-16T08:59:46.999Z</time></trkpt><trkpt lat="50.37414059738488" lon="4.544250024349488"><ele>187.0</ele><time>2026-04-16T08:59:48.999Z</time></trkpt><trkpt lat="50.3740967776916" lon="4.544117332913983"><ele>187.0</ele><time>2026-04-16T08:59:50.999Z</time></trkpt><trkpt lat="50.37404275450056" lon="4.5439607885742594"><ele>187.0</ele><time>2026-04-16T08:59:52.999Z</time></trkpt><trkpt lat="50.373996522963964" lon="4.543811076717787"><ele>187.2</ele><time>2026-04-16T08:59:54.999Z</time></trkpt><trkpt lat="50.37396875531908" lon="4.543677785782498"><ele>187.39999999999998</ele><time>2026-04-16T08:59:56.999Z</time></trkpt><trkpt lat="50.37394093617864" lon="4.543531670160918"><ele>187.60000000000002</ele><time>2026-04-16T08:59:58.999Z</time></trkpt><trkpt lat="50.373908565348664" lon="4.543382513111479"><ele>187.8</ele><time>2026-04-16T09:00:00.999Z</time></trkpt><trkpt lat="50.37387862511897" lon="4.543236601374983"><ele>188.0</ele><time>2026-04-16T09:00:02.999Z</time></trkpt><trkpt lat="50.37382512506479" lon="4.543130264675826"><ele>189.0</ele><time>2026-04-16T09:00:04.999Z</time></trkpt><trkpt lat="50.37381820454707" lon="4.5429326394927365"><ele>190.0</ele><time>2026-04-16T09:00:06.999Z</time></trkpt><trkpt lat="50.37379084838516" lon="4.542792023640237"><ele>191.0</ele><time>2026-04-16T09:00:08.999Z</time></trkpt><trkpt lat="50.37376678836149" lon="4.542662466207244"><ele>192.0</ele><time>2026-04-16T09:00:10.999Z</time></trkpt><trkpt lat="50.3737710469352" lon="4.542526002531082"><ele>193.0</ele><time>2026-04-16T09:00:12.999Z</time></trkpt><trkpt lat="50.373775651624555" lon="4.542403433019232"><ele>193.00000000000003</ele><time>2026-04-16T09:00:16.999Z</time></trkpt><trkpt lat="50.37378067266282" lon="4.542298039528642"><ele>193.0</ele><time>2026-04-16T09:00:19.999Z</time></trkpt><trkpt lat="50.373797623380725" lon="4.542195787297129"><ele>193.0</ele><time>2026-04-16T09:00:36.999Z</time></trkpt><trkpt lat="50.373775718840456" lon="4.542096510186014"><ele>193.0</ele><time>2026-04-16T09:00:55Z</time></trkpt><trkpt lat="50.37379566942676" lon="4.541990832279722"><ele>193.0</ele><time>2026-04-16T09:00:59Z</time></trkpt><trkpt lat="50.37382408117566" lon="4.541885593627466"><ele>193.00000000000003</ele><time>2026-04-16T09:01:03Z</time></trkpt><trkpt lat="50.37385804832012" lon="4.541779411018075"><ele>193.0</ele><time>2026-04-16T09:01:07Z</time></trkpt><trkpt lat="50.37388857409689" lon="4.541678748763976"><ele>191.83333333333331</ele><time>2026-04-16T09:01:11Z</time></trkpt><trkpt lat="50.37391640493981" lon="4.541563180826654"><ele>190.66666666666666</ele><time>2026-04-16T09:01:16Z</time></trkpt><trkpt lat="50.37394942442576" lon="4.541454695425736"><ele>189.5</ele><time>2026-04-16T09:02:04.999Z</time></trkpt><trkpt lat="50.373994748932894" lon="4.5413783844603515"><ele>188.33333333333331</ele><time>2026-04-16T09:02:06.999Z</time></trkpt><trkpt lat="50.3740118832692" lon="4.54127657075083"><ele>187.16666666666666</ele><time>2026-04-16T09:02:09.999Z</time></trkpt><trkpt lat="50.37413483818309" lon="4.541271841097967"><ele>186.0</ele><time>2026-04-16T09:02:10.999Z</time></trkpt><trkpt lat="50.374189128441024" lon="4.541217049464019"><ele>185.4</ele><time>2026-04-16T09:02:11.999Z</time></trkpt><trkpt lat="50.37429709094537" lon="4.541111158459877"><ele>184.8</ele><time>2026-04-16T09:02:13.999Z</time></trkpt><trkpt lat="50.37436132242031" lon="4.541045047092795"><ele>184.20000000000002</ele><time>2026-04-16T09:02:14.999Z</time></trkpt><trkpt lat="50.37443190160043" lon="4.540974308863782"><ele>183.60000000000002</ele><time>2026-04-16T09:02:15.999Z</time></trkpt><trkpt lat="50.37450915158182" lon="4.540900703642677"><ele>183.0</ele><time>2026-04-16T09:02:16.999Z</time></trkpt><trkpt lat="50.374586660954854" lon="4.540823536621563"><ele>183.0</ele><time>2026-04-16T09:02:17.999Z</time></trkpt><trkpt lat="50.37465698071331" lon="4.54075703707921"><ele>183.0</ele><time>2026-04-16T09:02:18.999Z</time></trkpt><trkpt lat="50.374728770847874" lon="4.540684160289059"><ele>183.0</ele><time>2026-04-16T09:02:19.999Z</time></trkpt><trkpt lat="50.37481006889171" lon="4.54060903558579"><ele>183.0</ele><time>2026-04-16T09:02:20.999Z</time></trkpt><trkpt lat="50.37489759139729" lon="4.54053146281407"><ele>183.0</ele><time>2026-04-16T09:02:21.999Z</time></trkpt><trkpt lat="50.374973381495444" lon="4.540459628252243"><ele>181.2</ele><time>2026-04-16T09:02:22.999Z</time></trkpt><trkpt lat="50.37505212260101" lon="4.5403858245878554"><ele>179.4</ele><time>2026-04-16T09:02:23.999Z</time></trkpt><trkpt lat="50.3751316564264" lon="4.540323010011115"><ele>177.6</ele><time>2026-04-16T09:02:24.999Z</time></trkpt><trkpt lat="50.37521143116039" lon="4.5402570007381335"><ele>175.79999999999998</ele><time>2026-04-16T09:02:25.999Z</time></trkpt><trkpt lat="50.37529461146062" lon="4.5401793278611375"><ele>174.0</ele><time>2026-04-16T09:02:26.999Z</time></trkpt><trkpt lat="50.37538304110549" lon="4.5400958912075176"><ele>173.5</ele><time>2026-04-16T09:02:27.999Z</time></trkpt><trkpt lat="50.37548995689848" lon="4.540009400746513"><ele>173.0</ele><time>2026-04-16T09:02:28.999Z</time></trkpt><trkpt lat="50.375603603831934" lon="4.539917723620499"><ele>172.5</ele><time>2026-04-16T09:02:29.999Z</time></trkpt><trkpt lat="50.375730045855455" lon="4.539821627819121"><ele>172.0</ele><time>2026-04-16T09:02:30.999Z</time></trkpt><trkpt lat="50.3758673540507" lon="4.539741740733007"><ele>171.0</ele><time>2026-04-16T09:02:31.999Z</time></trkpt><trkpt lat="50.375995663264995" lon="4.539657553414996"><ele>170.0</ele><time>2026-04-16T09:02:32.999Z</time></trkpt><trkpt lat="50.37612827746398" lon="4.539573886778336"><ele>169.0</ele><time>2026-04-16T09:02:33.999Z</time></trkpt><trkpt lat="50.3762775409464" lon="4.539501683195617"><ele>168.0</ele><time>2026-04-16T09:02:34.999Z</time></trkpt><trkpt lat="50.37642496046822" lon="4.539429237848556"><ele>165.0</ele><time>2026-04-16T09:02:35.999Z</time></trkpt><trkpt lat="50.3765802340701" lon="4.539355726949455"><ele>162.0</ele><time>2026-04-16T09:02:36.999Z</time></trkpt><trkpt lat="50.37673349310879" lon="4.539299639514375"><ele>159.0</ele><time>2026-04-16T09:02:37.999Z</time></trkpt><trkpt lat="50.37687356338115" lon="4.539250618481669"><ele>159.0</ele><time>2026-04-16T09:02:38.999Z</time></trkpt><trkpt lat="50.37701200708082" lon="4.53921618090454"><ele>159.0</ele><time>2026-04-16T09:02:39.999Z</time></trkpt><trkpt lat="50.377147073199865" lon="4.539176446445152"><ele>159.0</ele><time>2026-04-16T09:02:40.999Z</time></trkpt><trkpt lat="50.3772898283538" lon="4.539134534862402"><ele>159.0</ele><time>2026-04-16T09:02:41.999Z</time></trkpt><trkpt lat="50.37743126266175" lon="4.53910444137606"><ele>158.25</ele><time>2026-04-16T09:02:42.999Z</time></trkpt><trkpt lat="50.377577184275054" lon="4.539074564584142"><ele>157.5</ele><time>2026-04-16T09:02:43.999Z</time></trkpt><trkpt lat="50.377718016427586" lon="4.539029077940658"><ele>156.75</ele><time>2026-04-16T09:02:44.999Z</time></trkpt><trkpt lat="50.37786209079451" lon="4.538990856970321"><ele>156.0</ele><time>2026-04-16T09:02:45.999Z</time></trkpt><trkpt lat="50.37800479018539" lon="4.538954733285409"><ele>155.25</ele><time>2026-04-16T09:02:46.999Z</time></trkpt><trkpt lat="50.378148612755034" lon="4.538902033419644"><ele>154.5</ele><time>2026-04-16T09:02:47.999Z</time></trkpt><trkpt lat="50.37829116003129" lon="4.5388432301307"><ele>153.75</ele><time>2026-04-16T09:02:48.999Z</time></trkpt><trkpt lat="50.37843497723609" lon="4.538785506899625"><ele>153.0</ele><time>2026-04-16T09:02:49.999Z</time></trkpt><trkpt lat="50.37858049250964" lon="4.5387311529008825"><ele>153.0</ele><time>2026-04-16T09:02:50.999Z</time></trkpt><trkpt lat="50.3787268142208" lon="4.538663146027847"><ele>153.0</ele><time>2026-04-16T09:02:51.999Z</time></trkpt><trkpt lat="50.37888018525751" lon="4.538589483998063"><ele>153.0</ele><time>2026-04-16T09:02:52.999Z</time></trkpt><trkpt lat="50.37903676556561" lon="4.538501264016582"><ele>153.0</ele><time>2026-04-16T09:02:53.999Z</time></trkpt><trkpt lat="50.379204310253606" lon="4.538420470705601"><ele>153.0</ele><time>2026-04-16T09:02:54.999Z</time></trkpt><trkpt lat="50.379366822646276" lon="4.538325439729047"><ele>153.0</ele><time>2026-04-16T09:02:55.999Z</time></trkpt><trkpt lat="50.37952565929227" lon="4.53820933783211"><ele>153.0</ele><time>2026-04-16T09:02:56.999Z</time></trkpt><trkpt lat="50.379676950090854" lon="4.538087157566336"><ele>153.0</ele><time>2026-04-16T09:02:57.999Z</time></trkpt><trkpt lat="50.379829885511356" lon="4.537976686073434"><ele>153.0</ele><time>2026-04-16T09:02:59Z</time></trkpt><trkpt lat="50.379964448014114" lon="4.537880568274074"><ele>154.4</ele><time>2026-04-16T09:03:00Z</time></trkpt><trkpt lat="50.380078324435345" lon="4.53780071016785"><ele>155.8</ele><time>2026-04-16T09:03:01Z</time></trkpt><trkpt lat="50.3801761786755" lon="4.537715035999476"><ele>157.2</ele><time>2026-04-16T09:03:02Z</time></trkpt><trkpt lat="50.380261596660134" lon="4.537655745140366"><ele>158.6</ele><time>2026-04-16T09:03:03Z</time></trkpt><trkpt lat="50.38033564110515" lon="4.537603393959219"><ele>160.0</ele><time>2026-04-16T09:03:04Z</time></trkpt><trkpt lat="50.38040060238828" lon="4.537551539812703"><ele>160.0</ele><time>2026-04-16T09:03:05Z</time></trkpt><trkpt lat="50.38046133229196" lon="4.5375055353596565"><ele>160.0</ele><time>2026-04-16T09:03:06Z</time></trkpt><trkpt lat="50.38053006151797" lon="4.537455940668667"><ele>160.0</ele><time>2026-04-16T09:03:07Z</time></trkpt><trkpt lat="50.380612820723385" lon="4.537398125965124"><ele>160.0</ele><time>2026-04-16T09:03:08Z</time></trkpt><trkpt lat="50.380667784299106" lon="4.537340660446579"><ele>160.0</ele><time>2026-04-16T09:03:09Z</time></trkpt><trkpt lat="50.38064775421242" lon="4.537124029198655"><ele>160.0</ele><time>2026-04-16T09:03:12Z</time></trkpt><trkpt lat="50.38058658722319" lon="4.536952949559287"><ele>160.4</ele><time>2026-04-16T09:03:14Z</time></trkpt><trkpt lat="50.38053709924049" lon="4.53676385826477"><ele>160.8</ele><time>2026-04-16T09:03:16Z</time></trkpt><trkpt lat="50.380512208388105" lon="4.53661252399681"><ele>161.2</ele><time>2026-04-16T09:03:18Z</time></trkpt><trkpt lat="50.380522897894465" lon="4.536440647126957"><ele>161.6</ele><time>2026-04-16T09:03:20Z</time></trkpt><trkpt lat="50.38054658606162" lon="4.5362811598594135"><ele>162.0</ele><time>2026-04-16T09:03:22Z</time></trkpt><trkpt lat="50.38056570185963" lon="4.536123381194636"><ele>161.8</ele><time>2026-04-16T09:03:24Z</time></trkpt><trkpt lat="50.38058358540728" lon="4.535927949809039"><ele>161.6</ele><time>2026-04-16T09:03:26Z</time></trkpt><trkpt lat="50.38058211047917" lon="4.535819897554851"><ele>161.4</ele><time>2026-04-16T09:03:27Z</time></trkpt><trkpt lat="50.38056482605707" lon="4.535718195089589"><ele>161.20000000000002</ele><time>2026-04-16T09:03:28Z</time></trkpt><trkpt lat="50.380504839341434" lon="4.535561427666852"><ele>161.0</ele><time>2026-04-16T09:03:30Z</time></trkpt><trkpt lat="50.38045311437893" lon="4.535406783016704"><ele>160.75</ele><time>2026-04-16T09:03:32Z</time></trkpt><trkpt lat="50.38039767509684" lon="4.535241392903825"><ele>160.5</ele><time>2026-04-16T09:03:34Z</time></trkpt><trkpt lat="50.38034498910007" lon="4.5350722147775535"><ele>160.25</ele><time>2026-04-16T09:03:36Z</time></trkpt><trkpt lat="50.38029765848425" lon="4.5349076562322805"><ele>160.0</ele><time>2026-04-16T09:03:38Z</time></trkpt><trkpt lat="50.38029089760786" lon="4.534733427780154"><ele>160.33333333333334</ele><time>2026-04-16T09:03:40Z</time></trkpt><trkpt lat="50.380300676885746" lon="4.534551914275358"><ele>160.66666666666669</ele><time>2026-04-16T09:03:42Z</time></trkpt><trkpt lat="50.38032148474383" lon="4.534449167663919"><ele>161.0</ele><time>2026-04-16T09:03:43Z</time></trkpt><trkpt lat="50.380344501191374" lon="4.534342506933772"><ele>161.33333333333334</ele><time>2026-04-16T09:03:44Z</time></trkpt><trkpt lat="50.38038294517953" lon="4.53415435370754"><ele>161.66666666666666</ele><time>2026-04-16T09:03:46Z</time></trkpt><trkpt lat="50.3803989542501" lon="4.53405882187886"><ele>162.0</ele><time>2026-04-16T09:03:47Z</time></trkpt><trkpt lat="50.380410433322" lon="4.53387103511624"><ele>162.0</ele><time>2026-04-16T09:03:49Z</time></trkpt><trkpt lat="50.380403106802206" lon="4.533702454963985"><ele>162.0</ele><time>2026-04-16T09:03:51Z</time></trkpt><trkpt lat="50.3803862130662" lon="4.533606822332233"><ele>162.0</ele><time>2026-04-16T09:03:52Z</time></trkpt><trkpt lat="50.380329157376735" lon="4.5334359687431"><ele>162.0</ele><time>2026-04-16T09:03:54Z</time></trkpt><trkpt lat="50.38029989350329" lon="4.533347557604674"><ele>162.0</ele><time>2026-04-16T09:03:55Z</time></trkpt><trkpt lat="50.38024066665346" lon="4.533168427093873"><ele>162.0</ele><time>2026-04-16T09:03:57Z</time></trkpt><trkpt lat="50.38021206913217" lon="4.533073210936146"><ele>162.0</ele><time>2026-04-16T09:03:58Z</time></trkpt><trkpt lat="50.380159118920766" lon="4.532909716512183"><ele>162.0</ele><time>2026-04-16T09:03:59.999Z</time></trkpt><trkpt lat="50.380112794066896" lon="4.532753997931244"><ele>162.0</ele><time>2026-04-16T09:04:01.999Z</time></trkpt><trkpt lat="50.38006358204106" lon="4.53263294238586"><ele>162.0</ele><time>2026-04-16T09:04:03.999Z</time></trkpt><trkpt lat="50.38002642809694" lon="4.532513606709927"><ele>161.66666666666666</ele><time>2026-04-16T09:04:05.999Z</time></trkpt><trkpt lat="50.37999566632516" lon="4.532379629233743"><ele>161.33333333333334</ele><time>2026-04-16T09:04:07.999Z</time></trkpt><trkpt lat="50.37997685255495" lon="4.532247252574229"><ele>161.0</ele><time>2026-04-16T09:04:09.999Z</time></trkpt><trkpt lat="50.37997087687802" lon="4.532114878986588"><ele>160.66666666666669</ele><time>2026-04-16T09:04:12.999Z</time></trkpt><trkpt lat="50.3800414342926" lon="4.532059342046956"><ele>160.33333333333334</ele><time>2026-04-16T09:04:14.999Z</time></trkpt><trkpt lat="50.3801376620716" lon="4.531991128824818"><ele>160.0</ele><time>2026-04-16T09:04:16.999Z</time></trkpt><trkpt lat="50.38023120392188" lon="4.531922133117558"><ele>159.8</ele><time>2026-04-16T09:04:18.999Z</time></trkpt><trkpt lat="50.380330001453665" lon="4.53186016679745"><ele>159.6</ele><time>2026-04-16T09:04:20.999Z</time></trkpt><trkpt lat="50.38038880435766" lon="4.531824779608068"><ele>159.4</ele><time>2026-04-16T09:04:21.999Z</time></trkpt><trkpt lat="50.38048790589049" lon="4.531737035942398"><ele>159.2</ele><time>2026-04-16T09:04:23.999Z</time></trkpt><trkpt lat="50.38058313146876" lon="4.531685396989094"><ele>159.0</ele><time>2026-04-16T09:04:25.999Z</time></trkpt><trkpt lat="50.3806833670291" lon="4.531607925592768"><ele>159.5</ele><time>2026-04-16T09:04:27.999Z</time></trkpt><trkpt lat="50.38076177947182" lon="4.531571744850751"><ele>160.0</ele><time>2026-04-16T09:04:29.999Z</time></trkpt><trkpt lat="50.380833524363354" lon="4.531531141394751"><ele>160.5</ele><time>2026-04-16T09:04:31.999Z</time></trkpt><trkpt lat="50.38085607956047" lon="4.53139349919518"><ele>161.0</ele><time>2026-04-16T09:04:34.999Z</time></trkpt><trkpt lat="50.38080752678815" lon="4.531230271938959"><ele>161.5</ele><time>2026-04-16T09:04:36.999Z</time></trkpt><trkpt lat="50.38076618480852" lon="4.531116045264233"><ele>162.0</ele><time>2026-04-16T09:04:38.999Z</time></trkpt><trkpt lat="50.38072673211337" lon="4.530930211579394"><ele>162.0</ele><time>2026-04-16T09:04:40.999Z</time></trkpt><trkpt lat="50.38070382895766" lon="4.530823844582081"><ele>162.0</ele><time>2026-04-16T09:04:41.999Z</time></trkpt><trkpt lat="50.380677141462606" lon="4.530711132580601"><ele>162.0</ele><time>2026-04-16T09:04:42.999Z</time></trkpt><trkpt lat="50.38064948858328" lon="4.5306040369105345"><ele>162.0</ele><time>2026-04-16T09:04:43.999Z</time></trkpt><trkpt lat="50.38062930034395" lon="4.530503469172262"><ele>162.0</ele><time>2026-04-16T09:04:44.999Z</time></trkpt><trkpt lat="50.38059180957608" lon="4.530331810848871"><ele>162.0</ele><time>2026-04-16T09:04:46.999Z</time></trkpt><trkpt lat="50.38056284682937" lon="4.530167610115356"><ele>161.4</ele><time>2026-04-16T09:04:48.999Z</time></trkpt><trkpt lat="50.3805263322348" lon="4.530046084862682"><ele>160.79999999999998</ele><time>2026-04-16T09:04:50.999Z</time></trkpt><trkpt lat="50.380547633716475" lon="4.529913377253411"><ele>160.2</ele><time>2026-04-16T09:04:53.999Z</time></trkpt><trkpt lat="50.38065568631095" lon="4.5298400448779095"><ele>159.6</ele><time>2026-04-16T09:04:55.999Z</time></trkpt><trkpt lat="50.3807444341196" lon="4.529772431752276"><ele>159.0</ele><time>2026-04-16T09:04:57.999Z</time></trkpt><trkpt lat="50.38084858818139" lon="4.529691882698942"><ele>159.0</ele><time>2026-04-16T09:04:59.999Z</time></trkpt><trkpt lat="50.3809465213371" lon="4.529613727030264"><ele>159.0</ele><time>2026-04-16T09:05:01.999Z</time></trkpt><trkpt lat="50.381009222708165" lon="4.529566166572793"><ele>159.0</ele><time>2026-04-16T09:05:02.999Z</time></trkpt><trkpt lat="50.381081050029145" lon="4.529515679038233"><ele>159.0</ele><time>2026-04-16T09:05:03.999Z</time></trkpt><trkpt lat="50.38114829158974" lon="4.5294628245121045"><ele>159.0</ele><time>2026-04-16T09:05:05Z</time></trkpt><trkpt lat="50.381217191432185" lon="4.529406684385177"><ele>159.0</ele><time>2026-04-16T09:05:06Z</time></trkpt><trkpt lat="50.38128790165775" lon="4.52935049538612"><ele>158.83333333333334</ele><time>2026-04-16T09:05:07Z</time></trkpt><trkpt lat="50.38135759160685" lon="4.529295242784462"><ele>158.66666666666666</ele><time>2026-04-16T09:05:08Z</time></trkpt><trkpt lat="50.38142817567559" lon="4.529238982073269"><ele>158.5</ele><time>2026-04-16T09:05:09Z</time></trkpt><trkpt lat="50.38149573071181" lon="4.529179912146282"><ele>158.33333333333331</ele><time>2026-04-16T09:05:10Z</time></trkpt><trkpt lat="50.38155687878357" lon="4.529131824834374"><ele>158.16666666666666</ele><time>2026-04-16T09:05:11Z</time></trkpt><trkpt lat="50.38162445415629" lon="4.529077896388681"><ele>158.0</ele><time>2026-04-16T09:05:12Z</time></trkpt><trkpt lat="50.38169143020296" lon="4.529022198083668"><ele>158.00000000000003</ele><time>2026-04-16T09:05:13Z</time></trkpt><trkpt lat="50.38175333130668" lon="4.528968029228244"><ele>158.0</ele><time>2026-04-16T09:05:14Z</time></trkpt><trkpt lat="50.38181420472234" lon="4.52890862088384"><ele>158.0</ele><time>2026-04-16T09:05:15Z</time></trkpt><trkpt lat="50.381871799517256" lon="4.528856492075032"><ele>158.0</ele><time>2026-04-16T09:05:16Z</time></trkpt><trkpt lat="50.38193024050821" lon="4.528810222589786"><ele>158.0</ele><time>2026-04-16T09:05:17Z</time></trkpt><trkpt lat="50.38199496990247" lon="4.528754184651162"><ele>158.00000000000003</ele><time>2026-04-16T09:05:18Z</time></trkpt><trkpt lat="50.3820595081947" lon="4.528698637693779"><ele>158.0</ele><time>2026-04-16T09:05:19Z</time></trkpt><trkpt lat="50.382119833167344" lon="4.528646363889614"><ele>157.66666666666666</ele><time>2026-04-16T09:05:20Z</time></trkpt><trkpt lat="50.382180115680235" lon="4.528595219608989"><ele>157.33333333333331</ele><time>2026-04-16T09:05:21Z</time></trkpt><trkpt lat="50.382245325790166" lon="4.528536615457272"><ele>157.0</ele><time>2026-04-16T09:05:22Z</time></trkpt><trkpt lat="50.38231540830087" lon="4.528474523508504"><ele>156.66666666666666</ele><time>2026-04-16T09:05:23Z</time></trkpt><trkpt lat="50.382385187935085" lon="4.528414209059248"><ele>156.33333333333334</ele><time>2026-04-16T09:05:24Z</time></trkpt><trkpt lat="50.382457175501976" lon="4.528348100284998"><ele>156.0</ele><time>2026-04-16T09:05:25Z</time></trkpt><trkpt lat="50.38252624893647" lon="4.528286896370667"><ele>156.83333333333334</ele><time>2026-04-16T09:05:26Z</time></trkpt><trkpt lat="50.382596776948546" lon="4.528230712333646"><ele>157.66666666666666</ele><time>2026-04-16T09:05:27Z</time></trkpt><trkpt lat="50.382672072662665" lon="4.52816879733459"><ele>158.5</ele><time>2026-04-16T09:05:28Z</time></trkpt><trkpt lat="50.382748193219584" lon="4.528104690072595"><ele>159.33333333333331</ele><time>2026-04-16T09:05:29Z</time></trkpt><trkpt lat="50.38282346314115" lon="4.528035941828701"><ele>160.16666666666666</ele><time>2026-04-16T09:05:30Z</time></trkpt><trkpt lat="50.38289572751572" lon="4.527975739485698"><ele>161.0</ele><time>2026-04-16T09:05:31Z</time></trkpt><trkpt lat="50.382952411595625" lon="4.5279210863822295"><ele>161.0</ele><time>2026-04-16T09:05:32Z</time></trkpt><trkpt lat="50.383009007638854" lon="4.527866066357168"><ele>161.0</ele><time>2026-04-16T09:05:33Z</time></trkpt><trkpt lat="50.383099346134856" lon="4.527795754765763"><ele>161.0</ele><time>2026-04-16T09:05:35Z</time></trkpt><trkpt lat="50.38316673254534" lon="4.527729540717275"><ele>161.0</ele><time>2026-04-16T09:05:37Z</time></trkpt><trkpt lat="50.38323936684045" lon="4.527675800062331"><ele>161.0</ele><time>2026-04-16T09:05:39Z</time></trkpt><trkpt lat="50.3833084982869" lon="4.527609214481814"><ele>161.0</ele><time>2026-04-16T09:05:41Z</time></trkpt><trkpt lat="50.383381041114426" lon="4.527551947761542"><ele>161.60000000000002</ele><time>2026-04-16T09:05:43Z</time></trkpt><trkpt lat="50.38344380810693" lon="4.527473281335989"><ele>162.2</ele><time>2026-04-16T09:05:45Z</time></trkpt><trkpt lat="50.38354317188506" lon="4.5273975347956465"><ele>162.8</ele><time>2026-04-16T09:05:47Z</time></trkpt><trkpt lat="50.38364227649724" lon="4.527318308418058"><ele>163.39999999999998</ele><time>2026-04-16T09:05:49Z</time></trkpt><trkpt lat="50.38372925526523" lon="4.527243796500722"><ele>164.0</ele><time>2026-04-16T09:05:51Z</time></trkpt><trkpt lat="50.383821807036625" lon="4.527156553140607"><ele>164.2</ele><time>2026-04-16T09:05:53Z</time></trkpt><trkpt lat="50.38391655961488" lon="4.527076027507641"><ele>164.39999999999998</ele><time>2026-04-16T09:05:55Z</time></trkpt><trkpt lat="50.383996275209924" lon="4.5270104616255"><ele>164.6</ele><time>2026-04-16T09:05:57Z</time></trkpt><trkpt lat="50.384061349146585" lon="4.526949068288243"><ele>164.8</ele><time>2026-04-16T09:05:59Z</time></trkpt><trkpt lat="50.38415963274102" lon="4.526860194417035"><ele>165.0</ele><time>2026-04-16T09:06:01Z</time></trkpt><trkpt lat="50.38424373308196" lon="4.526781567678411"><ele>164.6</ele><time>2026-04-16T09:06:03Z</time></trkpt><trkpt lat="50.38431824919463" lon="4.526725645343703"><ele>164.2</ele><time>2026-04-16T09:06:04.999Z</time></trkpt><trkpt lat="50.38439980962007" lon="4.526636192453197"><ele>163.8</ele><time>2026-04-16T09:06:06.999Z</time></trkpt><trkpt lat="50.384483586109674" lon="4.526566633965547"><ele>163.4</ele><time>2026-04-16T09:06:08.999Z</time></trkpt><trkpt lat="50.384559688932065" lon="4.5264869240849865"><ele>163.0</ele><time>2026-04-16T09:06:10.999Z</time></trkpt><trkpt lat="50.384654979568616" lon="4.526383706447044"><ele>162.8</ele><time>2026-04-16T09:06:12.999Z</time></trkpt><trkpt lat="50.38472616353823" lon="4.526308844219048"><ele>162.60000000000002</ele><time>2026-04-16T09:06:14.999Z</time></trkpt><trkpt lat="50.38480745516948" lon="4.526220249255345"><ele>162.39999999999998</ele><time>2026-04-16T09:06:16.999Z</time></trkpt><trkpt lat="50.38489193606306" lon="4.526128717268168"><ele>162.2</ele><time>2026-04-16T09:06:18.999Z</time></trkpt><trkpt lat="50.384965546058204" lon="4.526035885380598"><ele>162.0</ele><time>2026-04-16T09:06:20.999Z</time></trkpt><trkpt lat="50.38504165370462" lon="4.525949960403113"><ele>161.4</ele><time>2026-04-16T09:06:22.999Z</time></trkpt><trkpt lat="50.38512066743883" lon="4.525861596732252"><ele>160.79999999999998</ele><time>2026-04-16T09:06:24.999Z</time></trkpt><trkpt lat="50.38519483394051" lon="4.525773780179224"><ele>160.2</ele><time>2026-04-16T09:06:26.999Z</time></trkpt><trkpt lat="50.38526686531487" lon="4.525681944874134"><ele>159.6</ele><time>2026-04-16T09:06:28.999Z</time></trkpt><trkpt lat="50.38534502812266" lon="4.5255880469237635"><ele>159.0</ele><time>2026-04-16T09:06:30.999Z</time></trkpt><trkpt lat="50.38541808209138" lon="4.525494259268426"><ele>159.0</ele><time>2026-04-16T09:06:32.999Z</time></trkpt><trkpt lat="50.38549710644101" lon="4.525417416183721"><ele>159.0</ele><time>2026-04-16T09:06:34.999Z</time></trkpt><trkpt lat="50.38559113576053" lon="4.525343811308203"><ele>159.0</ele><time>2026-04-16T09:06:36.999Z</time></trkpt><trkpt lat="50.385687358883246" lon="4.525254550863607"><ele>159.0</ele><time>2026-04-16T09:06:38.999Z</time></trkpt><trkpt lat="50.38579274955255" lon="4.5252229604509875"><ele>159.0</ele><time>2026-04-16T09:06:40.999Z</time></trkpt><trkpt lat="50.385861084602546" lon="4.525123647104412"><ele>157.85714285714286</ele><time>2026-04-16T09:06:42.999Z</time></trkpt><trkpt lat="50.385945961465985" lon="4.525065580324118"><ele>156.71428571428572</ele><time>2026-04-16T09:06:44.999Z</time></trkpt><trkpt lat="50.38601320278344" lon="4.524988131020409"><ele>155.57142857142858</ele><time>2026-04-16T09:06:46.999Z</time></trkpt><trkpt lat="50.38606664271358" lon="4.524935790999043"><ele>154.42857142857144</ele><time>2026-04-16T09:06:49.999Z</time></trkpt><trkpt lat="50.3861260228987" lon="4.524885282371204"><ele>153.28571428571428</ele><time>2026-04-16T09:06:51.999Z</time></trkpt><trkpt lat="50.38618540998912" lon="4.524829481386394"><ele>152.14285714285717</ele><time>2026-04-16T09:06:54.999Z</time></trkpt><trkpt lat="50.386220025209504" lon="4.524744134543713"><ele>151.0</ele><time>2026-04-16T09:06:57.999Z</time></trkpt><trkpt lat="50.38622597326095" lon="4.5246200086131365"><ele>151.0</ele><time>2026-04-16T09:06:59.999Z</time></trkpt><trkpt lat="50.386230160326974" lon="4.52447953778725"><ele>151.0</ele><time>2026-04-16T09:07:01.999Z</time></trkpt><trkpt lat="50.38628198673912" lon="4.524304273031523"><ele>151.0</ele><time>2026-04-16T09:07:03.999Z</time></trkpt><trkpt lat="50.38637658380582" lon="4.524200052683272"><ele>151.0</ele><time>2026-04-16T09:07:05.999Z</time></trkpt><trkpt lat="50.38643710816887" lon="4.524157539932843"><ele>151.0</ele><time>2026-04-16T09:07:06.999Z</time></trkpt><trkpt lat="50.386545903958144" lon="4.52410606457739"><ele>152.5</ele><time>2026-04-16T09:07:08.999Z</time></trkpt><trkpt lat="50.38661823651746" lon="4.524079731823076"><ele>154.0</ele><time>2026-04-16T09:07:09.999Z</time></trkpt><trkpt lat="50.38669914868566" lon="4.524046449028656"><ele>155.5</ele><time>2026-04-16T09:07:11Z</time></trkpt><trkpt lat="50.386780868079164" lon="4.523999665738394"><ele>157.0</ele><time>2026-04-16T09:07:12Z</time></trkpt><trkpt lat="50.386864708675695" lon="4.523944365564881"><ele>158.5</ele><time>2026-04-16T09:07:13Z</time></trkpt><trkpt lat="50.38693271278926" lon="4.523885957531284"><ele>160.0</ele><time>2026-04-16T09:07:14Z</time></trkpt><trkpt lat="50.38699973127847" lon="4.523836008548791"><ele>160.0</ele><time>2026-04-16T09:07:15Z</time></trkpt><trkpt lat="50.38707699818059" lon="4.5238097640768435"><ele>160.0</ele><time>2026-04-16T09:07:16Z</time></trkpt><trkpt lat="50.38713743808176" lon="4.523748061871928"><ele>160.0</ele><time>2026-04-16T09:07:17Z</time></trkpt><trkpt lat="50.387196873319" lon="4.5237145360637045"><ele>160.0</ele><time>2026-04-16T09:07:18Z</time></trkpt><trkpt lat="50.387260705202436" lon="4.523686610626806"><ele>160.0</ele><time>2026-04-16T09:07:19Z</time></trkpt><trkpt lat="50.38732505826526" lon="4.523657040321272"><ele>160.0</ele><time>2026-04-16T09:07:20Z</time></trkpt><trkpt lat="50.38738979686051" lon="4.523628233032464"><ele>160.0</ele><time>2026-04-16T09:07:21Z</time></trkpt><trkpt lat="50.38748834976654" lon="4.523583797887837"><ele>160.16666666666669</ele><time>2026-04-16T09:07:23Z</time></trkpt><trkpt lat="50.387577795662914" lon="4.523563305052935"><ele>160.33333333333334</ele><time>2026-04-16T09:07:25Z</time></trkpt><trkpt lat="50.38764777097555" lon="4.523533030417814"><ele>160.5</ele><time>2026-04-16T09:07:27Z</time></trkpt><trkpt lat="50.38771529778914" lon="4.523534927136168"><ele>160.66666666666666</ele><time>2026-04-16T09:07:30Z</time></trkpt><trkpt lat="50.387728962425086" lon="4.523636564798837"><ele>160.83333333333331</ele><time>2026-04-16T09:07:31Z</time></trkpt><trkpt lat="50.3877375355427" lon="4.523797993877362"><ele>161.0</ele><time>2026-04-16T09:07:33Z</time></trkpt><trkpt lat="50.387749724312" lon="4.523898221295411"><ele>161.16666666666666</ele><time>2026-04-16T09:07:34Z</time></trkpt><trkpt lat="50.38775448259874" lon="4.5240589222694405"><ele>161.33333333333331</ele><time>2026-04-16T09:07:36Z</time></trkpt><trkpt lat="50.38776311763369" lon="4.524167607623308"><ele>161.5</ele><time>2026-04-16T09:07:37Z</time></trkpt><trkpt lat="50.38777842004504" lon="4.524285348815483"><ele>161.66666666666666</ele><time>2026-04-16T09:07:38Z</time></trkpt><trkpt lat="50.3877858303354" lon="4.524424188410438"><ele>161.83333333333334</ele><time>2026-04-16T09:07:39Z</time></trkpt><trkpt lat="50.38780323262301" lon="4.524557178581289"><ele>162.0</ele><time>2026-04-16T09:07:40Z</time></trkpt><trkpt lat="50.38781942000272" lon="4.52467079857018"><ele>162.16666666666666</ele><time>2026-04-16T09:07:41Z</time></trkpt><trkpt lat="50.38784170928752" lon="4.524783485784349"><ele>162.33333333333334</ele><time>2026-04-16T09:07:42Z</time></trkpt><trkpt lat="50.387873631833045" lon="4.524900149605093"><ele>162.5</ele><time>2026-04-16T09:07:43Z</time></trkpt><trkpt lat="50.38790450753208" lon="4.5250230950137516"><ele>162.66666666666669</ele><time>2026-04-16T09:07:44Z</time></trkpt><trkpt lat="50.387943634668964" lon="4.525144515713521"><ele>162.83333333333334</ele><time>2026-04-16T09:07:45Z</time></trkpt><trkpt lat="50.38798851320527" lon="4.525266283411519"><ele>163.0</ele><time>2026-04-16T09:07:46Z</time></trkpt><trkpt lat="50.38802795219902" lon="4.52539641868166"><ele>163.14285714285714</ele><time>2026-04-16T09:07:47Z</time></trkpt><trkpt lat="50.38806269525665" lon="4.525511524050432"><ele>163.28571428571428</ele><time>2026-04-16T09:07:48Z</time></trkpt><trkpt lat="50.38810225455119" lon="4.525612163325585"><ele>163.42857142857142</ele><time>2026-04-16T09:07:49Z</time></trkpt><trkpt lat="50.38813833542847" lon="4.525702638613377"><ele>163.57142857142856</ele><time>2026-04-16T09:07:50Z</time></trkpt><trkpt lat="50.38816769632569" lon="4.525800641648209"><ele>163.71428571428572</ele><time>2026-04-16T09:07:51Z</time></trkpt><trkpt lat="50.38819866206145" lon="4.525903740359281"><ele>163.85714285714283</ele><time>2026-04-16T09:07:52Z</time></trkpt><trkpt lat="50.38823697975317" lon="4.526008431777331"><ele>164.0</ele><time>2026-04-16T09:07:53Z</time></trkpt><trkpt lat="50.38827140793181" lon="4.526112446974748"><ele>164.0</ele><time>2026-04-16T09:07:54Z</time></trkpt><trkpt lat="50.3883004341302" lon="4.526206789987331"><ele>164.0</ele><time>2026-04-16T09:07:55Z</time></trkpt><trkpt lat="50.38832838985439" lon="4.5262955734002635"><ele>164.0</ele><time>2026-04-16T09:07:56Z</time></trkpt><trkpt lat="50.38837261869162" lon="4.526456252408406"><ele>164.0</ele><time>2026-04-16T09:07:58Z</time></trkpt><trkpt lat="50.38841492021394" lon="4.526584529316905"><ele>164.0</ele><time>2026-04-16T09:08:00Z</time></trkpt><trkpt lat="50.38845263321033" lon="4.526696223536423"><ele>164.0</ele><time>2026-04-16T09:08:03Z</time></trkpt><trkpt lat="50.388477177580675" lon="4.526808919358392"><ele>164.0</ele><time>2026-04-16T09:08:06Z</time></trkpt></trkseg></trk></gpx>